<?xml version='1.0' encoding='UTF-8'?><gpx version="1.1" creator="JPX - https://github.com/jenetics/jpx" xmlns="http://www.topografix.com/GPX/1/1"><trk><trkseg><trkpt lat="40.990752324511604" lon="14.25028901717906"><ele>19.0</ele><time>2026-04-24T11:40:28.999Z</time></trkpt><trkpt lat="40.990730333026875" lon="14.250151429499862"><ele>19.0</ele><time>2026-04-24T11:40:30.999Z</time></trkpt><trkpt lat="40.99071171477675" lon="14.250047647253053"><ele>19.0</ele><time>2026-04-24T11:40:32.999Z</time></trkpt><trkpt lat="40.99072452846178" lon="14.249951648093116"><ele>19.0</ele><time>2026-04-24T11:40:35.999Z</time></trkpt><trkpt lat="40.99079602009692" lon="14.249945855994268"><ele>19.0</ele><time>2026-04-24T11:40:43.999Z</time></trkpt><trkpt lat="40.99087253495916" lon="14.249923390159315"><ele>19.0</ele><time>2026-04-24T11:40:48.999Z</time></trkpt><trkpt lat="40.99093755140802" lon="14.249933714256727"><ele>19.4</ele><time>2026-04-24T11:40:50.999Z</time></trkpt><trkpt lat="40.9910022287324" lon="14.249930842283"><ele>19.799999999999997</ele><time>2026-04-24T11:40:55.999Z</time></trkpt><trkpt lat="40.991056734772336" lon="14.24987748594448"><ele>20.200000000000003</ele><time>2026-04-24T11:41:01.999Z</time></trkpt><trkpt lat="40.9910627110641" lon="14.249756381755581"><ele>20.6</ele><time>2026-04-24T11:41:03.999Z</time></trkpt><trkpt lat="40.991051742715044" lon="14.249600590087624"><ele>21.0</ele><time>2026-04-24T11:41:05.999Z</time></trkpt><trkpt lat="40.9910439981014" lon="14.249436761803048"><ele>21.0</ele><time>2026-04-24T11:41:07.999Z</time></trkpt><trkpt lat="40.99106655949467" lon="14.249332551050852"><ele>21.0</ele><time>2026-04-24T11:41:08.999Z</time></trkpt><trkpt lat="40.99106857295591" lon="14.249219060275898"><ele>21.0</ele><time>2026-04-24T11:41:09.999Z</time></trkpt><trkpt lat="40.991070586411595" lon="14.24911103837509"><ele>21.0</ele><time>2026-04-24T11:41:10.999Z</time></trkpt><trkpt lat="40.991073025652966" lon="14.248983889398009"><ele>21.0</ele><time>2026-04-24T11:41:11.999Z</time></trkpt><trkpt lat="40.991075936134116" lon="14.248835740728966"><ele>21.200000000000003</ele><time>2026-04-24T11:41:12.999Z</time></trkpt><trkpt lat="40.99107789548934" lon="14.248736006085416"><ele>21.400000000000002</ele><time>2026-04-24T11:41:13.999Z</time></trkpt><trkpt lat="40.991080125198714" lon="14.24862250991324"><ele>21.6</ele><time>2026-04-24T11:41:14.999Z</time></trkpt><trkpt lat="40.99108240740573" lon="14.248506341493625"><ele>21.8</ele><time>2026-04-24T11:41:15.999Z</time></trkpt><trkpt lat="40.99108332831833" lon="14.24840492977727"><ele>22.0</ele><time>2026-04-24T11:41:16.999Z</time></trkpt><trkpt lat="40.99108335357269" lon="14.248216241229827"><ele>22.142857142857142</ele><time>2026-04-24T11:41:18.999Z</time></trkpt><trkpt lat="40.99108331003898" lon="14.24812130256608"><ele>22.285714285714285</ele><time>2026-04-24T11:41:19.999Z</time></trkpt><trkpt lat="40.99108347937084" lon="14.248028447074523"><ele>22.42857142857143</ele><time>2026-04-24T11:41:20.999Z</time></trkpt><trkpt lat="40.99105503187558" lon="14.247933719162164"><ele>22.57142857142857</ele><time>2026-04-24T11:41:21.999Z</time></trkpt><trkpt lat="40.99101875926529" lon="14.247858963576377"><ele>22.71428571428571</ele><time>2026-04-24T11:41:22.999Z</time></trkpt><trkpt lat="40.99095863925235" lon="14.24780620595022"><ele>22.857142857142858</ele><time>2026-04-24T11:41:23.999Z</time></trkpt><trkpt lat="40.99089358698088" lon="14.2477772926023"><ele>23.0</ele><time>2026-04-24T11:41:24.999Z</time></trkpt><trkpt lat="40.990825051497815" lon="14.247779441756991"><ele>22.666666666666668</ele><time>2026-04-24T11:41:25.999Z</time></trkpt><trkpt lat="40.990749394540224" lon="14.247801524938941"><ele>22.333333333333336</ele><time>2026-04-24T11:41:26.999Z</time></trkpt><trkpt lat="40.990682216187004" lon="14.247853950054147"><ele>22.0</ele><time>2026-04-24T11:41:27.999Z</time></trkpt><trkpt lat="40.99061027354201" lon="14.247914705797278"><ele>21.666666666666668</ele><time>2026-04-24T11:41:28.999Z</time></trkpt><trkpt lat="40.990534451404535" lon="14.247969972073053"><ele>21.333333333333332</ele><time>2026-04-24T11:41:29.999Z</time></trkpt><trkpt lat="40.990460491839926" lon="14.2480185231437"><ele>21.0</ele><time>2026-04-24T11:41:30.999Z</time></trkpt><trkpt lat="40.99038657036632" lon="14.24806710571631"><ele>21.0</ele><time>2026-04-24T11:41:31.999Z</time></trkpt><trkpt lat="40.99030724526066" lon="14.24810994702887"><ele>21.0</ele><time>2026-04-24T11:41:32.999Z</time></trkpt><trkpt lat="40.99023564433766" lon="14.248127481890041"><ele>21.0</ele><time>2026-04-24T11:41:33.999Z</time></trkpt><trkpt lat="40.990153936045935" lon="14.248136290418813"><ele>21.0</ele><time>2026-04-24T11:41:34.999Z</time></trkpt><trkpt lat="40.99008901450684" lon="14.248136389285266"><ele>21.0</ele><time>2026-04-24T11:41:35.999Z</time></trkpt><trkpt lat="40.99002397307044" lon="14.24812627896545"><ele>21.0</ele><time>2026-04-24T11:41:36.999Z</time></trkpt><trkpt lat="40.98990222745952" lon="14.248112976576653"><ele>21.166666666666668</ele><time>2026-04-24T11:41:38.999Z</time></trkpt><trkpt lat="40.98980398304374" lon="14.248076446553187"><ele>21.333333333333332</ele><time>2026-04-24T11:41:40.998Z</time></trkpt><trkpt lat="40.98971637927923" lon="14.248037163819472"><ele>21.5</ele><time>2026-04-24T11:41:42.998Z</time></trkpt><trkpt lat="40.98963025769534" lon="14.24799880375446"><ele>21.666666666666664</ele><time>2026-04-24T11:41:44.998Z</time></trkpt><trkpt lat="40.98954688478004" lon="14.247962512680216"><ele>21.833333333333332</ele><time>2026-04-24T11:41:46.998Z</time></trkpt><trkpt lat="40.98948638236" lon="14.247933559485395"><ele>22.0</ele><time>2026-04-24T11:41:48.998Z</time></trkpt><trkpt lat="40.98942038810963" lon="14.247905753169166"><ele>22.0</ele><time>2026-04-24T11:41:50.998Z</time></trkpt><trkpt lat="40.98935254119428" lon="14.247880669091089"><ele>22.0</ele><time>2026-04-24T11:41:52.998Z</time></trkpt><trkpt lat="40.989282792499075" lon="14.247849507869693"><ele>22.0</ele><time>2026-04-24T11:41:54.998Z</time></trkpt><trkpt lat="40.98921871632024" lon="14.247821732572993"><ele>22.0</ele><time>2026-04-24T11:41:56.998Z</time></trkpt><trkpt lat="40.98914711466176" lon="14.247789139972287"><ele>22.0</ele><time>2026-04-24T11:41:58.998Z</time></trkpt><trkpt lat="40.989065178362345" lon="14.247708067242423"><ele>22.0</ele><time>2026-04-24T11:42:00.998Z</time></trkpt><trkpt lat="40.988976317296824" lon="14.247557927818217"><ele>22.0</ele><time>2026-04-24T11:42:02.998Z</time></trkpt><trkpt lat="40.98893630196934" lon="14.247438395498817"><ele>22.0</ele><time>2026-04-24T11:42:03.998Z</time></trkpt><trkpt lat="40.98891285748187" lon="14.247307993392612"><ele>22.0</ele><time>2026-04-24T11:42:04.998Z</time></trkpt><trkpt lat="40.98888857444134" lon="14.24717109522328"><ele>22.0</ele><time>2026-04-24T11:42:05.998Z</time></trkpt><trkpt lat="40.98886064764491" lon="14.247022834255864"><ele>22.0</ele><time>2026-04-24T11:42:06.998Z</time></trkpt><trkpt lat="40.98884079114593" lon="14.246865000181412"><ele>22.0</ele><time>2026-04-24T11:42:07.998Z</time></trkpt><trkpt lat="40.98882120402786" lon="14.246701485538283"><ele>22.0</ele><time>2026-04-24T11:42:08.998Z</time></trkpt><trkpt lat="40.98880211613699" lon="14.24653814238147"><ele>22.0</ele><time>2026-04-24T11:42:09.998Z</time></trkpt><trkpt lat="40.98877657664579" lon="14.246372714720852"><ele>22.0</ele><time>2026-04-24T11:42:10.998Z</time></trkpt><trkpt lat="40.98875136344511" lon="14.246207090051541"><ele>22.0</ele><time>2026-04-24T11:42:11.998Z</time></trkpt><trkpt lat="40.98872042516237" lon="14.246040304718646"><ele>22.0</ele><time>2026-04-24T11:42:12.998Z</time></trkpt><trkpt lat="40.98869470203503" lon="14.245874367340717"><ele>22.0</ele><time>2026-04-24T11:42:13.998Z</time></trkpt><trkpt lat="40.98867838300651" lon="14.24571090400598"><ele>22.0</ele><time>2026-04-24T11:42:14.998Z</time></trkpt><trkpt lat="40.988654040224745" lon="14.245549980765702"><ele>22.333333333333332</ele><time>2026-04-24T11:42:15.998Z</time></trkpt><trkpt lat="40.98861580215903" lon="14.245387228695906"><ele>22.666666666666668</ele><time>2026-04-24T11:42:16.998Z</time></trkpt><trkpt lat="40.98853629724712" lon="14.245095099231545"><ele>23.0</ele><time>2026-04-24T11:42:18.998Z</time></trkpt><trkpt lat="40.98849724837154" lon="14.244968852742893"><ele>23.0</ele><time>2026-04-24T11:42:19.998Z</time></trkpt><trkpt lat="40.98846109207745" lon="14.244847009991615"><ele>23.0</ele><time>2026-04-24T11:42:20.998Z</time></trkpt><trkpt lat="40.988419144535676" lon="14.244738443697411"><ele>23.0</ele><time>2026-04-24T11:42:21.998Z</time></trkpt><trkpt lat="40.98848401476081" lon="14.244594602793285"><ele>23.0</ele><time>2026-04-24T11:42:22.998Z</time></trkpt><trkpt lat="40.98854135853851" lon="14.244470066825912"><ele>23.0</ele><time>2026-04-24T11:42:23.998Z</time></trkpt><trkpt lat="40.9885948956177" lon="14.244339165965725"><ele>22.75</ele><time>2026-04-24T11:42:24.998Z</time></trkpt><trkpt lat="40.98864595516246" lon="14.244195382929865"><ele>22.5</ele><time>2026-04-24T11:42:25.998Z</time></trkpt><trkpt lat="40.98870576640876" lon="14.244047240276508"><ele>22.25</ele><time>2026-04-24T11:42:26.998Z</time></trkpt><trkpt lat="40.98877222783236" lon="14.243899241822781"><ele>22.0</ele><time>2026-04-24T11:42:27.998Z</time></trkpt><trkpt lat="40.98884172678462" lon="14.243756864305228"><ele>21.75</ele><time>2026-04-24T11:42:28.998Z</time></trkpt><trkpt lat="40.988910676733255" lon="14.24362774067103"><ele>21.5</ele><time>2026-04-24T11:42:29.998Z</time></trkpt><trkpt lat="40.98897891666482" lon="14.243502201847997"><ele>21.25</ele><time>2026-04-24T11:42:30.998Z</time></trkpt><trkpt lat="40.98904736926328" lon="14.24337702536822"><ele>21.0</ele><time>2026-04-24T11:42:31.998Z</time></trkpt><trkpt lat="40.98911387476632" lon="14.24325898277167"><ele>21.0</ele><time>2026-04-24T11:42:32.998Z</time></trkpt><trkpt lat="40.989185320761166" lon="14.243153236882566"><ele>21.0</ele><time>2026-04-24T11:42:33.998Z</time></trkpt><trkpt lat="40.98926877443767" lon="14.243066629880827"><ele>21.0</ele><time>2026-04-24T11:42:34.998Z</time></trkpt><trkpt lat="40.98935601848232" lon="14.242992979078638"><ele>21.0</ele><time>2026-04-24T11:42:35.998Z</time></trkpt><trkpt lat="40.989446404776054" lon="14.242923551889263"><ele>21.0</ele><time>2026-04-24T11:42:36.998Z</time></trkpt><trkpt lat="40.98953023024444" lon="14.242845766521237"><ele>21.0</ele><time>2026-04-24T11:42:37.998Z</time></trkpt><trkpt lat="40.98960485381678" lon="14.242751430198448"><ele>21.0</ele><time>2026-04-24T11:42:38.998Z</time></trkpt><trkpt lat="40.98967079590053" lon="14.24264411751782"><ele>21.0</ele><time>2026-04-24T11:42:39.998Z</time></trkpt><trkpt lat="40.98973411734114" lon="14.242534553391883"><ele>21.0</ele><time>2026-04-24T11:42:40.998Z</time></trkpt><trkpt lat="40.98980452186729" lon="14.242432499978674"><ele>21.0</ele><time>2026-04-24T11:42:41.998Z</time></trkpt><trkpt lat="40.98987793851889" lon="14.24234427212813"><ele>21.0</ele><time>2026-04-24T11:42:42.998Z</time></trkpt><trkpt lat="40.98996055109856" lon="14.242266942948227"><ele>21.0</ele><time>2026-04-24T11:42:43.998Z</time></trkpt><trkpt lat="40.99004203191167" lon="14.24219798509033"><ele>21.0</ele><time>2026-04-24T11:42:44.998Z</time></trkpt><trkpt lat="40.99011277229621" lon="14.242109910212644"><ele>21.0</ele><time>2026-04-24T11:42:45.998Z</time></trkpt><trkpt lat="40.99016799433364" lon="14.24199618034632"><ele>21.0</ele><time>2026-04-24T11:42:46.998Z</time></trkpt><trkpt lat="40.99024227168351" lon="14.241899775106893"><ele>21.166666666666668</ele><time>2026-04-24T11:42:47.998Z</time></trkpt><trkpt lat="40.99029798004892" lon="14.2418030584687"><ele>21.333333333333332</ele><time>2026-04-24T11:42:48.999Z</time></trkpt><trkpt lat="40.990352607264875" lon="14.241704240675613"><ele>21.5</ele><time>2026-04-24T11:42:49.999Z</time></trkpt><trkpt lat="40.990430127446125" lon="14.241638776322798"><ele>21.666666666666664</ele><time>2026-04-24T11:42:50.999Z</time></trkpt><trkpt lat="40.99050397326228" lon="14.241586849462465"><ele>21.833333333333332</ele><time>2026-04-24T11:42:51.999Z</time></trkpt><trkpt lat="40.99055651085328" lon="14.24151085379113"><ele>22.0</ele><time>2026-04-24T11:42:52.999Z</time></trkpt><trkpt lat="40.99057700967326" lon="14.241409379685706"><ele>22.0</ele><time>2026-04-24T11:42:53.999Z</time></trkpt><trkpt lat="40.99057070291865" lon="14.241298103903427"><ele>22.0</ele><time>2026-04-24T11:42:54.999Z</time></trkpt><trkpt lat="40.990537126832926" lon="14.241203594170944"><ele>22.0</ele><time>2026-04-24T11:42:55.999Z</time></trkpt><trkpt lat="40.99050272501544" lon="14.241131366504879"><ele>22.0</ele><time>2026-04-24T11:42:56.999Z</time></trkpt><trkpt lat="40.99043839670085" lon="14.24100077397887"><ele>22.0</ele><time>2026-04-24T11:42:59.999Z</time></trkpt><trkpt lat="40.99039338332671" lon="14.240917709544641"><ele>22.0</ele><time>2026-04-24T11:43:02.999Z</time></trkpt><trkpt lat="40.99033261825666" lon="14.240887498717973"><ele>22.0</ele><time>2026-04-24T11:43:05.999Z</time></trkpt><trkpt lat="40.99025617085373" lon="14.240993452766922"><ele>22.0</ele><time>2026-04-24T11:43:06.999Z</time></trkpt><trkpt lat="40.990218200362825" lon="14.241067138452125"><ele>22.0</ele><time>2026-04-24T11:43:07.999Z</time></trkpt><trkpt lat="40.99017875871349" lon="14.241146766325782"><ele>22.0</ele><time>2026-04-24T11:43:08.999Z</time></trkpt><trkpt lat="40.99013449501642" lon="14.24124862135544"><ele>22.0</ele><time>2026-04-24T11:43:09.999Z</time></trkpt><trkpt lat="40.990031399601264" lon="14.241432178146296"><ele>21.8</ele><time>2026-04-24T11:43:11.999Z</time></trkpt><trkpt lat="40.98997015331816" lon="14.241511852287442"><ele>21.6</ele><time>2026-04-24T11:43:12.999Z</time></trkpt><trkpt lat="40.98988763886344" lon="14.24157662026339"><ele>21.400000000000002</ele><time>2026-04-24T11:43:13.999Z</time></trkpt><trkpt lat="40.98979210132339" lon="14.241602192493096"><ele>21.200000000000003</ele><time>2026-04-24T11:43:14.999Z</time></trkpt><trkpt lat="40.98968938220512" lon="14.241594781732672"><ele>21.0</ele><time>2026-04-24T11:43:15.999Z</time></trkpt><trkpt lat="40.989584101782214" lon="14.241564403009459"><ele>21.0</ele><time>2026-04-24T11:43:16.999Z</time></trkpt><trkpt lat="40.98948744835367" lon="14.241509505110812"><ele>21.0</ele><time>2026-04-24T11:43:17.999Z</time></trkpt><trkpt lat="40.989400016979275" lon="14.241425954441812"><ele>21.0</ele><time>2026-04-24T11:43:18.999Z</time></trkpt><trkpt lat="40.989298519319654" lon="14.241368713952868"><ele>21.0</ele><time>2026-04-24T11:43:19.999Z</time></trkpt><trkpt lat="40.989201042901776" lon="14.241288206149264"><ele>21.0</ele><time>2026-04-24T11:43:20.999Z</time></trkpt><trkpt lat="40.98910480262586" lon="14.24121456133919"><ele>21.0</ele><time>2026-04-24T11:43:21.999Z</time></trkpt><trkpt lat="40.98899366822032" lon="14.241154303708273"><ele>21.0</ele><time>2026-04-24T11:43:22.999Z</time></trkpt><trkpt lat="40.98888101426517" lon="14.24111006817764"><ele>21.0</ele><time>2026-04-24T11:43:23.999Z</time></trkpt><trkpt lat="40.988762850243056" lon="14.241098282439022"><ele>21.0</ele><time>2026-04-24T11:43:24.999Z</time></trkpt><trkpt lat="40.988638978212975" lon="14.241121247182512"><ele>21.0</ele><time>2026-04-24T11:43:25.999Z</time></trkpt><trkpt lat="40.988518226336694" lon="14.241156231985471"><ele>21.0</ele><time>2026-04-24T11:43:26.999Z</time></trkpt><trkpt lat="40.98840661361343" lon="14.241191318504402"><ele>21.0</ele><time>2026-04-24T11:43:27.999Z</time></trkpt><trkpt lat="40.98829704099617" lon="14.241209333212284"><ele>21.0</ele><time>2026-04-24T11:43:28.999Z</time></trkpt><trkpt lat="40.98819724146603" lon="14.241236703728207"><ele>20.857142857142858</ele><time>2026-04-24T11:43:29.999Z</time></trkpt><trkpt lat="40.988112255019615" lon="14.241251560776577"><ele>20.714285714285715</ele><time>2026-04-24T11:43:30.999Z</time></trkpt><trkpt lat="40.98804374953923" lon="14.2412647333401"><ele>20.57142857142857</ele><time>2026-04-24T11:43:31.999Z</time></trkpt><trkpt lat="40.98798385288247" lon="14.241236804262588"><ele>20.42857142857143</ele><time>2026-04-24T11:43:34.999Z</time></trkpt><trkpt lat="40.98806459991537" lon="14.241221911491062"><ele>20.285714285714285</ele><time>2026-04-24T11:43:40.999Z</time></trkpt><trkpt lat="40.988134365373334" lon="14.241207103148339"><ele>20.142857142857142</ele><time>2026-04-24T11:43:44.999Z</time></trkpt><trkpt lat="40.988206708458534" lon="14.241191747651243"><ele>20.0</ele><time>2026-04-24T11:43:59.999Z</time></trkpt><trkpt lat="40.98834051609907" lon="14.241094077197912"><ele>20.142857142857142</ele><time>2026-04-24T11:44:01.998Z</time></trkpt><trkpt lat="40.98840083820701" lon="14.241060719813357"><ele>20.285714285714285</ele><time>2026-04-24T11:44:02.998Z</time></trkpt><trkpt lat="40.988465138851275" lon="14.241021785023467"><ele>20.42857142857143</ele><time>2026-04-24T11:44:03.998Z</time></trkpt><trkpt lat="40.9885328127212" lon="14.24099598974604"><ele>20.57142857142857</ele><time>2026-04-24T11:44:04.998Z</time></trkpt><trkpt lat="40.98859729370734" lon="14.24096834392049"><ele>20.714285714285715</ele><time>2026-04-24T11:44:05.998Z</time></trkpt><trkpt lat="40.98866464103613" lon="14.240943419213034"><ele>20.857142857142858</ele><time>2026-04-24T11:44:06.998Z</time></trkpt><trkpt lat="40.988733631081836" lon="14.240930231784347"><ele>21.0</ele><time>2026-04-24T11:44:07.998Z</time></trkpt><trkpt lat="40.98884520372588" lon="14.240919831445908"><ele>21.0</ele><time>2026-04-24T11:44:09.998Z</time></trkpt><trkpt lat="40.98895068085307" lon="14.240913183887088"><ele>21.0</ele><time>2026-04-24T11:44:11.998Z</time></trkpt><trkpt lat="40.98903342889644" lon="14.240943613877967"><ele>21.0</ele><time>2026-04-24T11:44:13.998Z</time></trkpt><trkpt lat="40.98911607389676" lon="14.240986250976238"><ele>21.0</ele><time>2026-04-24T11:44:15.998Z</time></trkpt><trkpt lat="40.98918915146253" lon="14.241015718381863"><ele>21.0</ele><time>2026-04-24T11:44:17.998Z</time></trkpt><trkpt lat="40.98925175450205" lon="14.24102820648899"><ele>21.0</ele><time>2026-04-24T11:44:19.998Z</time></trkpt><trkpt lat="40.989318400826576" lon="14.240991804177225"><ele>20.833333333333332</ele><time>2026-04-24T11:44:22.998Z</time></trkpt><trkpt lat="40.98936668801404" lon="14.240922079578013"><ele>20.666666666666668</ele><time>2026-04-24T11:44:24.998Z</time></trkpt><trkpt lat="40.98941176389153" lon="14.240842570861338"><ele>20.5</ele><time>2026-04-24T11:44:26.998Z</time></trkpt><trkpt lat="40.989462924274974" lon="14.24072111432205"><ele>20.333333333333336</ele><time>2026-04-24T11:44:28.998Z</time></trkpt><trkpt lat="40.98949519898434" lon="14.24060410036793"><ele>20.166666666666668</ele><time>2026-04-24T11:44:30.998Z</time></trkpt><trkpt lat="40.98954294104031" lon="14.240518054860571"><ele>20.0</ele><time>2026-04-24T11:44:33.998Z</time></trkpt><trkpt lat="40.989574666382715" lon="14.240437545096675"><ele>19.833333333333336</ele><time>2026-04-24T11:44:36.998Z</time></trkpt><trkpt lat="40.98960675946376" lon="14.240358370899893"><ele>19.666666666666668</ele><time>2026-04-24T11:44:38.998Z</time></trkpt><trkpt lat="40.98963075440462" lon="14.240278775832452"><ele>19.5</ele><time>2026-04-24T11:44:40.998Z</time></trkpt><trkpt lat="40.98966662852433" lon="14.240188490708233"><ele>19.333333333333332</ele><time>2026-04-24T11:44:42.998Z</time></trkpt><trkpt lat="40.98965725545907" lon="14.24009329696773"><ele>19.166666666666664</ele><time>2026-04-24T11:44:43.998Z</time></trkpt><trkpt lat="40.98963065523559" lon="14.239954999768274"><ele>19.0</ele><time>2026-04-24T11:44:46.998Z</time></trkpt><trkpt lat="40.989602621979905" lon="14.239837913788811"><ele>19.2</ele><time>2026-04-24T11:44:48.998Z</time></trkpt><trkpt lat="40.98959668785352" lon="14.239692062839934"><ele>19.4</ele><time>2026-04-24T11:44:50.998Z</time></trkpt><trkpt lat="40.98960242488194" lon="14.239545698529273"><ele>19.6</ele><time>2026-04-24T11:44:52.999Z</time></trkpt><trkpt lat="40.98961724041635" lon="14.23940288561516"><ele>19.8</ele><time>2026-04-24T11:44:54.999Z</time></trkpt><trkpt lat="40.98959299242951" lon="14.239254154725895"><ele>20.0</ele><time>2026-04-24T11:44:56.999Z</time></trkpt><trkpt lat="40.98956970115113" lon="14.239163266759432"><ele>20.0</ele><time>2026-04-24T11:44:58.999Z</time></trkpt><trkpt lat="40.98956862526908" lon="14.23905290075634"><ele>20.0</ele><time>2026-04-24T11:44:59.999Z</time></trkpt><trkpt lat="40.98956707366299" lon="14.23896429585737"><ele>20.0</ele><time>2026-04-24T11:45:00.999Z</time></trkpt><trkpt lat="40.98957690084956" lon="14.238808445546999"><ele>20.0</ele><time>2026-04-24T11:45:02.999Z</time></trkpt><trkpt lat="40.98956752468108" lon="14.23871795827863"><ele>20.0</ele><time>2026-04-24T11:45:03.999Z</time></trkpt><trkpt lat="40.98957066024226" lon="14.238631804159052"><ele>20.0</ele><time>2026-04-24T11:45:04.999Z</time></trkpt><trkpt lat="40.989560855958054" lon="14.238507143326549"><ele>20.25</ele><time>2026-04-24T11:45:06.999Z</time></trkpt><trkpt lat="40.98957176261493" lon="14.23836661094526"><ele>20.5</ele><time>2026-04-24T11:45:08.999Z</time></trkpt><trkpt lat="40.98958709523329" lon="14.238230156085399"><ele>20.75</ele><time>2026-04-24T11:45:10.999Z</time></trkpt><trkpt lat="40.98960034772372" lon="14.238072300686209"><ele>21.0</ele><time>2026-04-24T11:45:12.999Z</time></trkpt><trkpt lat="40.989599367774986" lon="14.237893042297722"><ele>21.0</ele><time>2026-04-24T11:45:14.999Z</time></trkpt><trkpt lat="40.989597657456684" lon="14.237699122478062"><ele>21.0</ele><time>2026-04-24T11:45:16.999Z</time></trkpt><trkpt lat="40.98959816364466" lon="14.237594873584541"><ele>21.0</ele><time>2026-04-24T11:45:17.999Z</time></trkpt><trkpt lat="40.989596969628366" lon="14.237489080812173"><ele>21.0</ele><time>2026-04-24T11:45:18.999Z</time></trkpt><trkpt lat="40.98959386675496" lon="14.237396085973089"><ele>21.0</ele><time>2026-04-24T11:45:19.999Z</time></trkpt><trkpt lat="40.98958701600047" lon="14.237303601553648"><ele>21.0</ele><time>2026-04-24T11:45:20.999Z</time></trkpt><trkpt lat="40.98956993384023" lon="14.23714804003643"><ele>21.200000000000003</ele><time>2026-04-24T11:45:22.999Z</time></trkpt><trkpt lat="40.98956085782951" lon="14.237008322539689"><ele>21.400000000000002</ele><time>2026-04-24T11:45:24.999Z</time></trkpt><trkpt lat="40.98953582114172" lon="14.236860933740829"><ele>21.6</ele><time>2026-04-24T11:45:26.999Z</time></trkpt><trkpt lat="40.98952105988696" lon="14.236700582277868"><ele>21.8</ele><time>2026-04-24T11:45:28.999Z</time></trkpt><trkpt lat="40.989522772163454" lon="14.236615324675357"><ele>22.0</ele><time>2026-04-24T11:45:29.999Z</time></trkpt><trkpt lat="40.98952937725903" lon="14.236516413518494"><ele>22.0</ele><time>2026-04-24T11:45:30.999Z</time></trkpt><trkpt lat="40.9895415982021" lon="14.236411101589184"><ele>22.0</ele><time>2026-04-24T11:45:31.999Z</time></trkpt><trkpt lat="40.989544978231145" lon="14.236303924881636"><ele>22.0</ele><time>2026-04-24T11:45:32.999Z</time></trkpt><trkpt lat="40.989542033070684" lon="14.23619758750398"><ele>22.0</ele><time>2026-04-24T11:45:33.999Z</time></trkpt><trkpt lat="40.98955492566852" lon="14.236079383866391"><ele>22.0</ele><time>2026-04-24T11:45:34.999Z</time></trkpt><trkpt lat="40.98959208779431" lon="14.235955615035882"><ele>22.0</ele><time>2026-04-24T11:45:35.999Z</time></trkpt><trkpt lat="40.9895936854143" lon="14.235824274780326"><ele>22.0</ele><time>2026-04-24T11:45:36.999Z</time></trkpt><trkpt lat="40.98959419956768" lon="14.235697656666984"><ele>22.0</ele><time>2026-04-24T11:45:37.999Z</time></trkpt><trkpt lat="40.98958130909984" lon="14.235578093638775"><ele>22.0</ele><time>2026-04-24T11:45:38.999Z</time></trkpt><trkpt lat="40.98958401540284" lon="14.235452291523298"><ele>22.0</ele><time>2026-04-24T11:45:39.999Z</time></trkpt><trkpt lat="40.98957889283879" lon="14.235333614437073"><ele>22.0</ele><time>2026-04-24T11:45:40.999Z</time></trkpt><trkpt lat="40.9895772441602" lon="14.235212509433019"><ele>21.833333333333332</ele><time>2026-04-24T11:45:41.999Z</time></trkpt><trkpt lat="40.989579490942376" lon="14.235103212430815"><ele>21.666666666666664</ele><time>2026-04-24T11:45:42.999Z</time></trkpt><trkpt lat="40.98958684116901" lon="14.234994779738788"><ele>21.5</ele><time>2026-04-24T11:45:43.999Z</time></trkpt><trkpt lat="40.989588528983276" lon="14.234874651107383"><ele>21.333333333333332</ele><time>2026-04-24T11:45:44.999Z</time></trkpt><trkpt lat="40.98959231832868" lon="14.234755887836394"><ele>21.166666666666668</ele><time>2026-04-24T11:45:45.999Z</time></trkpt><trkpt lat="40.9895996856918" lon="14.23463381513859"><ele>21.0</ele><time>2026-04-24T11:45:46.999Z</time></trkpt><trkpt lat="40.9896011812452" lon="14.234508783540644"><ele>21.0</ele><time>2026-04-24T11:45:47.999Z</time></trkpt><trkpt lat="40.98960635269542" lon="14.234376832120956"><ele>21.0</ele><time>2026-04-24T11:45:48.999Z</time></trkpt><trkpt lat="40.989610986176245" lon="14.234252419765362"><ele>21.0</ele><time>2026-04-24T11:45:49.999Z</time></trkpt><trkpt lat="40.989625149443164" lon="14.234122565680424"><ele>21.0</ele><time>2026-04-24T11:45:50.999Z</time></trkpt><trkpt lat="40.989627848300216" lon="14.234005792611631"><ele>21.0</ele><time>2026-04-24T11:45:51.999Z</time></trkpt><trkpt lat="40.989628658544646" lon="14.233901405008059"><ele>21.142857142857142</ele><time>2026-04-24T11:45:52.999Z</time></trkpt><trkpt lat="40.98962865854447" lon="14.233800729437222"><ele>21.285714285714285</ele><time>2026-04-24T11:45:53.999Z</time></trkpt><trkpt lat="40.98961653320521" lon="14.23370299818207"><ele>21.42857142857143</ele><time>2026-04-24T11:45:54.999Z</time></trkpt><trkpt lat="40.9896169548021" lon="14.233602190537836"><ele>21.57142857142857</ele><time>2026-04-24T11:45:55.999Z</time></trkpt><trkpt lat="40.98962189268779" lon="14.233510341410028"><ele>21.714285714285715</ele><time>2026-04-24T11:45:56.999Z</time></trkpt><trkpt lat="40.98963054343105" lon="14.233425672580196"><ele>21.857142857142858</ele><time>2026-04-24T11:45:57.999Z</time></trkpt><trkpt lat="40.98963637167264" lon="14.233341482793213"><ele>22.0</ele><time>2026-04-24T11:45:58.999Z</time></trkpt><trkpt lat="40.98963692310616" lon="14.233197294121005"><ele>22.200000000000003</ele><time>2026-04-24T11:46:00.999Z</time></trkpt><trkpt lat="40.98964067166691" lon="14.233099937003404"><ele>22.4</ele><time>2026-04-24T11:46:02.999Z</time></trkpt><trkpt lat="40.98964760893806" lon="14.232991148967276"><ele>22.6</ele><time>2026-04-24T11:46:37.999Z</time></trkpt><trkpt lat="40.9895004256649" lon="14.232892085253923"><ele>22.799999999999997</ele><time>2026-04-24T11:46:58Z</time></trkpt><trkpt lat="40.98942627894022" lon="14.232895155333143"><ele>23.0</ele><time>2026-04-24T11:46:59Z</time></trkpt><trkpt lat="40.98933383099229" lon="14.232900367496754"><ele>23.0</ele><time>2026-04-24T11:47:00Z</time></trkpt><trkpt lat="40.989238764068446" lon="14.23289803931104"><ele>23.0</ele><time>2026-04-24T11:47:01Z</time></trkpt><trkpt lat="40.98913735951627" lon="14.232890628991314"><ele>23.0</ele><time>2026-04-24T11:47:02Z</time></trkpt><trkpt lat="40.98902958147881" lon="14.232885696186582"><ele>23.0</ele><time>2026-04-24T11:47:03Z</time></trkpt><trkpt lat="40.988926597998606" lon="14.232883846722359"><ele>23.0</ele><time>2026-04-24T11:47:04Z</time></trkpt><trkpt lat="40.988827545987796" lon="14.23288383527162"><ele>23.166666666666668</ele><time>2026-04-24T11:47:05Z</time></trkpt><trkpt lat="40.98872796882324" lon="14.23288692790585"><ele>23.333333333333336</ele><time>2026-04-24T11:47:06Z</time></trkpt><trkpt lat="40.988634357912844" lon="14.232889102488247"><ele>23.5</ele><time>2026-04-24T11:47:07Z</time></trkpt><trkpt lat="40.98854992327615" lon="14.232890844640727"><ele>23.666666666666668</ele><time>2026-04-24T11:47:08Z</time></trkpt><trkpt lat="40.98847389921604" lon="14.2328906630747"><ele>23.833333333333332</ele><time>2026-04-24T11:47:09Z</time></trkpt><trkpt lat="40.988409669322664" lon="14.232891180921097"><ele>24.0</ele><time>2026-04-24T11:47:10Z</time></trkpt><trkpt lat="40.98832791430602" lon="14.23289371980621"><ele>24.2</ele><time>2026-04-24T11:47:12Z</time></trkpt><trkpt lat="40.988239617499616" lon="14.232898375223277"><ele>24.4</ele><time>2026-04-24T11:47:19Z</time></trkpt><trkpt lat="40.988159829597144" lon="14.232897764964125"><ele>24.6</ele><time>2026-04-24T11:47:22Z</time></trkpt><trkpt lat="40.98807573070015" lon="14.232887314899605"><ele>24.8</ele><time>2026-04-24T11:47:25Z</time></trkpt><trkpt lat="40.98796179594824" lon="14.232892865400903"><ele>25.0</ele><time>2026-04-24T11:47:28Z</time></trkpt><trkpt lat="40.98787364517026" lon="14.232896131485829"><ele>25.000000000000004</ele><time>2026-04-24T11:47:30Z</time></trkpt><trkpt lat="40.987788952047076" lon="14.232894111259968"><ele>25.0</ele><time>2026-04-24T11:47:32Z</time></trkpt><trkpt lat="40.98772218028599" lon="14.232896317175488"><ele>25.0</ele><time>2026-04-24T11:47:34Z</time></trkpt><trkpt lat="40.987642207357084" lon="14.232910987933536"><ele>25.0</ele><time>2026-04-24T11:47:54Z</time></trkpt><trkpt lat="40.98754798034806" lon="14.232913647144725"><ele>25.000000000000004</ele><time>2026-04-24T11:47:56Z</time></trkpt><trkpt lat="40.98748185250172" lon="14.23289931898924"><ele>25.0</ele><time>2026-04-24T11:47:57Z</time></trkpt><trkpt lat="40.98736634015756" lon="14.232899514922146"><ele>25.0</ele><time>2026-04-24T11:47:59Z</time></trkpt><trkpt lat="40.987256510999636" lon="14.23290489343583"><ele>25.0</ele><time>2026-04-24T11:48:01Z</time></trkpt><trkpt lat="40.98715972878392" lon="14.232891268975372"><ele>25.0</ele><time>2026-04-24T11:48:03Z</time></trkpt><trkpt lat="40.98706471385013" lon="14.232904262502734"><ele>25.0</ele><time>2026-04-24T11:48:05Z</time></trkpt><trkpt lat="40.98694145551746" lon="14.232908294906759"><ele>25.0</ele><time>2026-04-24T11:48:07Z</time></trkpt><trkpt lat="40.986864549730015" lon="14.232907733537612"><ele>25.000000000000004</ele><time>2026-04-24T11:48:08Z</time></trkpt><trkpt lat="40.986736170611366" lon="14.232896592411175"><ele>25.0</ele><time>2026-04-24T11:48:10Z</time></trkpt><trkpt lat="40.9866585248285" lon="14.232899391585914"><ele>25.0</ele><time>2026-04-24T11:48:11Z</time></trkpt><trkpt lat="40.98658510652551" lon="14.232898439732844"><ele>25.0</ele><time>2026-04-24T11:48:12Z</time></trkpt><trkpt lat="40.98651849936949" lon="14.232899787082994"><ele>25.000000000000004</ele><time>2026-04-24T11:48:13Z</time></trkpt><trkpt lat="40.98644589686829" lon="14.232896132791149"><ele>25.0</ele><time>2026-04-24T11:48:14Z</time></trkpt><trkpt lat="40.986375721181496" lon="14.232890852120704"><ele>25.166666666666668</ele><time>2026-04-24T11:48:15Z</time></trkpt><trkpt lat="40.98630771554104" lon="14.232888555100132"><ele>25.333333333333336</ele><time>2026-04-24T11:48:16Z</time></trkpt><trkpt lat="40.98624179132559" lon="14.232890728507927"><ele>25.5</ele><time>2026-04-24T11:48:17Z</time></trkpt><trkpt lat="40.98617663572487" lon="14.23289477971878"><ele>25.666666666666664</ele><time>2026-04-24T11:48:18Z</time></trkpt><trkpt lat="40.98608010068356" lon="14.232889530669603"><ele>25.833333333333332</ele><time>2026-04-24T11:48:20Z</time></trkpt><trkpt lat="40.98599207271042" lon="14.23289409062623"><ele>26.0</ele><time>2026-04-24T11:48:23Z</time></trkpt><trkpt lat="40.985941976918525" lon="14.232599842142887"><ele>25.999999999999996</ele><time>2026-04-24T11:48:25Z</time></trkpt><trkpt lat="40.985928522834094" lon="14.23249083294252"><ele>26.0</ele><time>2026-04-24T11:48:26Z</time></trkpt><trkpt lat="40.98592159375596" lon="14.23238402216034"><ele>26.0</ele><time>2026-04-24T11:48:27Z</time></trkpt><trkpt lat="40.98592398561735" lon="14.232272943997001"><ele>26.0</ele><time>2026-04-24T11:48:28Z</time></trkpt><trkpt lat="40.98592314291716" lon="14.232159606338355"><ele>25.999999999999996</ele><time>2026-04-24T11:48:29Z</time></trkpt><trkpt lat="40.9859216202939" lon="14.232051084194302"><ele>26.0</ele><time>2026-04-24T11:48:30Z</time></trkpt><trkpt lat="40.985921556371835" lon="14.23194736930284"><ele>26.166666666666664</ele><time>2026-04-24T11:48:31Z</time></trkpt><trkpt lat="40.98592036033607" lon="14.231853845552857"><ele>26.333333333333332</ele><time>2026-04-24T11:48:32Z</time></trkpt><trkpt lat="40.98592071641506" lon="14.231766055094997"><ele>26.5</ele><time>2026-04-24T11:48:33Z</time></trkpt><trkpt lat="40.98592520629922" lon="14.231676378100296"><ele>26.666666666666664</ele><time>2026-04-24T11:48:34Z</time></trkpt><trkpt lat="40.98592458476072" lon="14.231583477580559"><ele>26.833333333333332</ele><time>2026-04-24T11:48:35Z</time></trkpt><trkpt lat="40.98593038045203" lon="14.231465250057987"><ele>27.0</ele><time>2026-04-24T11:48:36Z</time></trkpt><trkpt lat="40.98592987646648" lon="14.23132126392996"><ele>27.0</ele><time>2026-04-24T11:48:37Z</time></trkpt><trkpt lat="40.98591723084016" lon="14.231168137815978"><ele>27.0</ele><time>2026-04-24T11:48:38Z</time></trkpt><trkpt lat="40.985917813781334" lon="14.231009387274467"><ele>27.0</ele><time>2026-04-24T11:48:39Z</time></trkpt><trkpt lat="40.985918930602494" lon="14.23084917059004"><ele>27.0</ele><time>2026-04-24T11:48:40Z</time></trkpt><trkpt lat="40.985914881712745" lon="14.230687695346813"><ele>26.75</ele><time>2026-04-24T11:48:41Z</time></trkpt><trkpt lat="40.98591553144314" lon="14.230525801321237"><ele>26.5</ele><time>2026-04-24T11:48:42Z</time></trkpt><trkpt lat="40.98593015854525" lon="14.23038253231338"><ele>26.25</ele><time>2026-04-24T11:48:43Z</time></trkpt><trkpt lat="40.98593015854142" lon="14.230198113495936"><ele>26.0</ele><time>2026-04-24T11:48:44Z</time></trkpt><trkpt lat="40.985930158539716" lon="14.230032814318937"><ele>26.0</ele><time>2026-04-24T11:48:45Z</time></trkpt><trkpt lat="40.98591358056132" lon="14.229867580072705"><ele>26.0</ele><time>2026-04-24T11:48:45.999Z</time></trkpt><trkpt lat="40.98593015853761" lon="14.229700806640126"><ele>26.0</ele><time>2026-04-24T11:48:46.999Z</time></trkpt><trkpt lat="40.98593015853659" lon="14.22953638478772"><ele>26.0</ele><time>2026-04-24T11:48:47.999Z</time></trkpt><trkpt lat="40.98593015853629" lon="14.229366084025223"><ele>26.0</ele><time>2026-04-24T11:48:48.999Z</time></trkpt><trkpt lat="40.98593015853534" lon="14.229198803332967"><ele>26.0</ele><time>2026-04-24T11:48:49.999Z</time></trkpt><trkpt lat="40.98593013164548" lon="14.229033004634454"><ele>26.0</ele><time>2026-04-24T11:48:50.999Z</time></trkpt><trkpt lat="40.9859298427639" lon="14.228872184333353"><ele>26.0</ele><time>2026-04-24T11:48:51.999Z</time></trkpt><trkpt lat="40.9859295586731" lon="14.228714030632114"><ele>26.0</ele><time>2026-04-24T11:48:52.999Z</time></trkpt><trkpt lat="40.98592927944995" lon="14.228558586921574"><ele>26.0</ele><time>2026-04-24T11:48:53.999Z</time></trkpt><trkpt lat="40.98592899937138" lon="14.228402670856223"><ele>26.0</ele><time>2026-04-24T11:48:55Z</time></trkpt><trkpt lat="40.985928509392195" lon="14.228250521506316"><ele>26.0</ele><time>2026-04-24T11:48:56Z</time></trkpt><trkpt lat="40.98592810410265" lon="14.22810021995233"><ele>26.0</ele><time>2026-04-24T11:48:57Z</time></trkpt><trkpt lat="40.985927682137635" lon="14.227943734495527"><ele>26.0</ele><time>2026-04-24T11:48:58Z</time></trkpt><trkpt lat="40.98592723521689" lon="14.227777993969482"><ele>26.0</ele><time>2026-04-24T11:48:59Z</time></trkpt><trkpt lat="40.98592708330786" lon="14.227603726906796"><ele>26.0</ele><time>2026-04-24T11:49:00Z</time></trkpt><trkpt lat="40.98592652870288" lon="14.227418489056353"><ele>25.75</ele><time>2026-04-24T11:49:01Z</time></trkpt><trkpt lat="40.9859259991086" lon="14.227232634494676"><ele>25.5</ele><time>2026-04-24T11:49:02Z</time></trkpt><trkpt lat="40.98591055406063" lon="14.227045017565253"><ele>25.25</ele><time>2026-04-24T11:49:03Z</time></trkpt><trkpt lat="40.98592489442876" lon="14.22687692464265"><ele>25.0</ele><time>2026-04-24T11:49:04Z</time></trkpt><trkpt lat="40.985912482189356" lon="14.226724770357416"><ele>25.0</ele><time>2026-04-24T11:49:05Z</time></trkpt><trkpt lat="40.98591699460981" lon="14.226605212981768"><ele>25.0</ele><time>2026-04-24T11:49:06Z</time></trkpt><trkpt lat="40.985917814317794" lon="14.226441320360438"><ele>25.0</ele><time>2026-04-24T11:49:07Z</time></trkpt><trkpt lat="40.98591727615607" lon="14.226277276749999"><ele>25.0</ele><time>2026-04-24T11:49:08Z</time></trkpt><trkpt lat="40.98591562585072" lon="14.226129188831916"><ele>25.2</ele><time>2026-04-24T11:49:09Z</time></trkpt><trkpt lat="40.98591545500637" lon="14.225985050744118"><ele>25.4</ele><time>2026-04-24T11:49:10Z</time></trkpt><trkpt lat="40.98591380913474" lon="14.2258418176416"><ele>25.6</ele><time>2026-04-24T11:49:11Z</time></trkpt><trkpt lat="40.98591550750282" lon="14.225696199014168"><ele>25.8</ele><time>2026-04-24T11:49:12Z</time></trkpt><trkpt lat="40.9859171706043" lon="14.225550581537401"><ele>26.0</ele><time>2026-04-24T11:49:13Z</time></trkpt><trkpt lat="40.985916833136535" lon="14.225411433020684"><ele>26.6</ele><time>2026-04-24T11:49:14Z</time></trkpt><trkpt lat="40.98591328240988" lon="14.225269826199035"><ele>27.200000000000003</ele><time>2026-04-24T11:49:15Z</time></trkpt><trkpt lat="40.98591558537164" lon="14.225144567944875"><ele>27.799999999999997</ele><time>2026-04-24T11:49:16Z</time></trkpt><trkpt lat="40.985922128762695" lon="14.225037991453526"><ele>28.4</ele><time>2026-04-24T11:49:17Z</time></trkpt><trkpt lat="40.98590756632268" lon="14.224916588237951"><ele>29.0</ele><time>2026-04-24T11:49:18Z</time></trkpt><trkpt lat="40.98590966226447" lon="14.224807304928273"><ele>28.999999999999996</ele><time>2026-04-24T11:49:19Z</time></trkpt><trkpt lat="40.985906942619636" lon="14.224696994325788"><ele>29.0</ele><time>2026-04-24T11:49:20Z</time></trkpt><trkpt lat="40.98590602784386" lon="14.22458714939589"><ele>29.0</ele><time>2026-04-24T11:49:21Z</time></trkpt><trkpt lat="40.9859388537993" lon="14.224493782382519"><ele>29.0</ele><time>2026-04-24T11:49:22Z</time></trkpt><trkpt lat="40.98596514946938" lon="14.22440690147031"><ele>28.999999999999996</ele><time>2026-04-24T11:49:23Z</time></trkpt><trkpt lat="40.98601724612025" lon="14.224297601989594"><ele>29.0</ele><time>2026-04-24T11:49:25Z</time></trkpt><trkpt lat="40.986067826255976" lon="14.224226095509808"><ele>29.0</ele><time>2026-04-24T11:49:28Z</time></trkpt><trkpt lat="40.98613279085165" lon="14.224126990921755"><ele>29.0</ele><time>2026-04-24T11:49:31Z</time></trkpt><trkpt lat="40.98615079298471" lon="14.224046144487472"><ele>29.0</ele><time>2026-04-24T11:49:32Z</time></trkpt><trkpt lat="40.986109373108484" lon="14.223947594658235"><ele>29.0</ele><time>2026-04-24T11:49:33Z</time></trkpt><trkpt lat="40.98604814923903" lon="14.22379475284899"><ele>29.0</ele><time>2026-04-24T11:49:35Z</time></trkpt><trkpt lat="40.98600837042148" lon="14.223693901874187"><ele>28.666666666666664</ele><time>2026-04-24T11:49:36Z</time></trkpt><trkpt lat="40.9859753781458" lon="14.22360073886056"><ele>28.333333333333332</ele><time>2026-04-24T11:49:37Z</time></trkpt><trkpt lat="40.985943706861214" lon="14.223497156532783"><ele>28.0</ele><time>2026-04-24T11:49:38Z</time></trkpt><trkpt lat="40.9859228476321" lon="14.22339596204755"><ele>27.666666666666664</ele><time>2026-04-24T11:49:39Z</time></trkpt><trkpt lat="40.98592026909974" lon="14.223289534698909"><ele>27.333333333333332</ele><time>2026-04-24T11:49:40Z</time></trkpt><trkpt lat="40.9859200585463" lon="14.223171694901165"><ele>27.0</ele><time>2026-04-24T11:49:41Z</time></trkpt><trkpt lat="40.98590373876872" lon="14.2230545112328"><ele>26.833333333333332</ele><time>2026-04-24T11:49:42Z</time></trkpt><trkpt lat="40.98590411939365" lon="14.222938331736437"><ele>26.666666666666664</ele><time>2026-04-24T11:49:43Z</time></trkpt><trkpt lat="40.985914660035164" lon="14.222817665222875"><ele>26.5</ele><time>2026-04-24T11:49:44Z</time></trkpt><trkpt lat="40.98591299392651" lon="14.222704979952713"><ele>26.333333333333332</ele><time>2026-04-24T11:49:45Z</time></trkpt><trkpt lat="40.9859113503226" lon="14.222593816742881"><ele>26.166666666666664</ele><time>2026-04-24T11:49:46Z</time></trkpt><trkpt lat="40.98590986867281" lon="14.222479220040142"><ele>26.0</ele><time>2026-04-24T11:49:47Z</time></trkpt><trkpt lat="40.98590934950147" lon="14.22236012213655"><ele>26.166666666666664</ele><time>2026-04-24T11:49:48Z</time></trkpt><trkpt lat="40.9859088300447" lon="14.22224095809749"><ele>26.333333333333332</ele><time>2026-04-24T11:49:49Z</time></trkpt><trkpt lat="40.98590957402235" lon="14.222126509501955"><ele>26.5</ele><time>2026-04-24T11:49:50Z</time></trkpt><trkpt lat="40.98591004910116" lon="14.22201531716259"><ele>26.666666666666664</ele><time>2026-04-24T11:49:51Z</time></trkpt><trkpt lat="40.98591052682235" lon="14.22190350653687"><ele>26.833333333333332</ele><time>2026-04-24T11:49:52Z</time></trkpt><trkpt lat="40.985910757083595" lon="14.221792710676997"><ele>27.0</ele><time>2026-04-24T11:49:53Z</time></trkpt><trkpt lat="40.9859084575227" lon="14.221685668378651"><ele>27.0</ele><time>2026-04-24T11:49:54Z</time></trkpt><trkpt lat="40.98590614682891" lon="14.221578107904483"><ele>27.0</ele><time>2026-04-24T11:49:55Z</time></trkpt><trkpt lat="40.98590439725217" lon="14.221478968002698"><ele>27.0</ele><time>2026-04-24T11:49:56Z</time></trkpt><trkpt lat="40.98590288794006" lon="14.221390363949943"><ele>27.0</ele><time>2026-04-24T11:49:57Z</time></trkpt><trkpt lat="40.98590144038734" lon="14.221305385498578"><ele>27.0</ele><time>2026-04-24T11:49:58Z</time></trkpt><trkpt lat="40.9858985168762" lon="14.221128717153775"><ele>27.0</ele><time>2026-04-24T11:50:00Z</time></trkpt><trkpt lat="40.98589691709195" lon="14.221028282710398"><ele>27.200000000000003</ele><time>2026-04-24T11:50:01Z</time></trkpt><trkpt lat="40.9858951307168" lon="14.220916134078097"><ele>27.400000000000002</ele><time>2026-04-24T11:50:02Z</time></trkpt><trkpt lat="40.985893858604214" lon="14.220792027301608"><ele>27.599999999999998</ele><time>2026-04-24T11:50:03Z</time></trkpt><trkpt lat="40.985892081132576" lon="14.220664493347254"><ele>27.799999999999997</ele><time>2026-04-24T11:50:04Z</time></trkpt><trkpt lat="40.98589105457891" lon="14.220535468747189"><ele>28.0</ele><time>2026-04-24T11:50:05Z</time></trkpt><trkpt lat="40.9858896842342" lon="14.22039256697148"><ele>28.0</ele><time>2026-04-24T11:50:06Z</time></trkpt><trkpt lat="40.98588818346702" lon="14.22023606440497"><ele>27.999999999999996</ele><time>2026-04-24T11:50:07Z</time></trkpt><trkpt lat="40.98588276371272" lon="14.220082942425934"><ele>27.999999999999996</ele><time>2026-04-24T11:50:08Z</time></trkpt><trkpt lat="40.985880849515624" lon="14.219938560135535"><ele>28.0</ele><time>2026-04-24T11:50:09Z</time></trkpt><trkpt lat="40.98587926760472" lon="14.219809404845247"><ele>28.0</ele><time>2026-04-24T11:50:10Z</time></trkpt><trkpt lat="40.98587710237186" lon="14.219694223711079"><ele>28.25</ele><time>2026-04-24T11:50:11Z</time></trkpt><trkpt lat="40.98587593204261" lon="14.219594802506588"><ele>28.5</ele><time>2026-04-24T11:50:12Z</time></trkpt><trkpt lat="40.98587062687461" lon="14.219459554700228"><ele>28.75</ele><time>2026-04-24T11:50:14Z</time></trkpt><trkpt lat="40.98568691138857" lon="14.219388387513542"><ele>29.0</ele><time>2026-04-24T11:50:18Z</time></trkpt><trkpt lat="40.98560561292885" lon="14.21939772761389"><ele>29.2</ele><time>2026-04-24T11:50:19Z</time></trkpt><trkpt lat="40.98551211399519" lon="14.219404297793272"><ele>29.4</ele><time>2026-04-24T11:50:20Z</time></trkpt><trkpt lat="40.98542609028963" lon="14.219407768358604"><ele>29.6</ele><time>2026-04-24T11:50:21Z</time></trkpt><trkpt lat="40.98532932367792" lon="14.21940956975414"><ele>29.8</ele><time>2026-04-24T11:50:22Z</time></trkpt><trkpt lat="40.985231086506715" lon="14.219392474754137"><ele>30.0</ele><time>2026-04-24T11:50:23Z</time></trkpt><trkpt lat="40.98512897283381" lon="14.219397960745585"><ele>30.0</ele><time>2026-04-24T11:50:24Z</time></trkpt><trkpt lat="40.98502416239657" lon="14.219410589591389"><ele>30.0</ele><time>2026-04-24T11:50:25Z</time></trkpt><trkpt lat="40.98493928722268" lon="14.219413015470604"><ele>30.0</ele><time>2026-04-24T11:50:26Z</time></trkpt><trkpt lat="40.98485930443077" lon="14.21943864742846"><ele>30.0</ele><time>2026-04-24T11:50:27Z</time></trkpt><trkpt lat="40.984792012453134" lon="14.21944161632123"><ele>30.0</ele><time>2026-04-24T11:50:28Z</time></trkpt><trkpt lat="40.98472131787392" lon="14.219453030712588"><ele>30.0</ele><time>2026-04-24T11:50:29Z</time></trkpt><trkpt lat="40.98461516447859" lon="14.219437157739987"><ele>30.0</ele><time>2026-04-24T11:50:31Z</time></trkpt><trkpt lat="40.98452259820408" lon="14.219334322634392"><ele>30.0</ele><time>2026-04-24T11:50:33Z</time></trkpt><trkpt lat="40.98446730010852" lon="14.21928390035194"><ele>30.0</ele><time>2026-04-24T11:50:34Z</time></trkpt><trkpt lat="40.98438942942707" lon="14.219209873415746"><ele>30.0</ele><time>2026-04-24T11:50:36Z</time></trkpt><trkpt lat="40.98431991584486" lon="14.219142103072059"><ele>30.0</ele><time>2026-04-24T11:50:38Z</time></trkpt><trkpt lat="40.9842136436334" lon="14.219099640389352"><ele>30.4</ele><time>2026-04-24T11:50:40Z</time></trkpt><trkpt lat="40.98405321991788" lon="14.219052485492155"><ele>30.8</ele><time>2026-04-24T11:50:43Z</time></trkpt><trkpt lat="40.98398781061707" lon="14.219036562279259"><ele>31.200000000000003</ele><time>2026-04-24T11:50:44Z</time></trkpt><trkpt lat="40.98391381587826" lon="14.219044755948238"><ele>31.6</ele><time>2026-04-24T11:50:45Z</time></trkpt><trkpt lat="40.98383800212031" lon="14.219010899405506"><ele>32.0</ele><time>2026-04-24T11:50:46Z</time></trkpt><trkpt lat="40.98375571482713" lon="14.21900232493095"><ele>31.999999999999996</ele><time>2026-04-24T11:50:47Z</time></trkpt><trkpt lat="40.98366716958237" lon="14.218995204656046"><ele>32.0</ele><time>2026-04-24T11:50:48Z</time></trkpt><trkpt lat="40.98357484378077" lon="14.218991472925499"><ele>32.0</ele><time>2026-04-24T11:50:49Z</time></trkpt><trkpt lat="40.98348898308339" lon="14.219006975323145"><ele>32.0</ele><time>2026-04-24T11:50:50Z</time></trkpt><trkpt lat="40.983398689985535" lon="14.21900272017626"><ele>31.999999999999996</ele><time>2026-04-24T11:50:51Z</time></trkpt><trkpt lat="40.98332241581787" lon="14.219000455047643"><ele>32.0</ele><time>2026-04-24T11:50:52Z</time></trkpt><trkpt lat="40.98324751520412" lon="14.218977420933728"><ele>32.2</ele><time>2026-04-24T11:50:53Z</time></trkpt><trkpt lat="40.98317240363624" lon="14.218974183544816"><ele>32.400000000000006</ele><time>2026-04-24T11:50:54Z</time></trkpt><trkpt lat="40.98308578579773" lon="14.21896791715747"><ele>32.599999999999994</ele><time>2026-04-24T11:50:55Z</time></trkpt><trkpt lat="40.98298932420869" lon="14.218960454284252"><ele>32.8</ele><time>2026-04-24T11:50:56Z</time></trkpt><trkpt lat="40.98289462998791" lon="14.218949343819492"><ele>33.0</ele><time>2026-04-24T11:50:57Z</time></trkpt><trkpt lat="40.98279536950065" lon="14.218937292548082"><ele>33.0</ele><time>2026-04-24T11:50:58Z</time></trkpt><trkpt lat="40.982699442213935" lon="14.218925645845324"><ele>33.0</ele><time>2026-04-24T11:50:59Z</time></trkpt><trkpt lat="40.982602981338495" lon="14.21891267579664"><ele>33.0</ele><time>2026-04-24T11:51:00Z</time></trkpt><trkpt lat="40.982505246529485" lon="14.218902983088935"><ele>33.0</ele><time>2026-04-24T11:51:01Z</time></trkpt><trkpt lat="40.98240639713375" lon="14.218893179841347"><ele>33.0</ele><time>2026-04-24T11:51:02Z</time></trkpt><trkpt lat="40.98231334422803" lon="14.218884590212554"><ele>33.166666666666664</ele><time>2026-04-24T11:51:03Z</time></trkpt><trkpt lat="40.98222480348692" lon="14.218873644143432"><ele>33.333333333333336</ele><time>2026-04-24T11:51:04Z</time></trkpt><trkpt lat="40.98215002037283" lon="14.218868212879476"><ele>33.5</ele><time>2026-04-24T11:51:05Z</time></trkpt><trkpt lat="40.98209316391584" lon="14.218806195714635"><ele>33.66666666666667</ele><time>2026-04-24T11:51:06Z</time></trkpt><trkpt lat="40.98203617079802" lon="14.218752451159984"><ele>33.833333333333336</ele><time>2026-04-24T11:51:07Z</time></trkpt><trkpt lat="40.98196930358404" lon="14.218709425856522"><ele>34.0</ele><time>2026-04-24T11:51:08Z</time></trkpt><trkpt lat="40.98190953627197" lon="14.218642024134803"><ele>34.0</ele><time>2026-04-24T11:51:09Z</time></trkpt><trkpt lat="40.9818301002162" lon="14.218589282359792"><ele>34.0</ele><time>2026-04-24T11:51:10Z</time></trkpt><trkpt lat="40.98175631068906" lon="14.218524220695198"><ele>34.0</ele><time>2026-04-24T11:51:11Z</time></trkpt><trkpt lat="40.98168201507338" lon="14.218460931716741"><ele>34.0</ele><time>2026-04-24T11:51:12Z</time></trkpt><trkpt lat="40.981603878832544" lon="14.218406288669728"><ele>34.0</ele><time>2026-04-24T11:51:13Z</time></trkpt><trkpt lat="40.981525168089085" lon="14.218358545237043"><ele>34.0</ele><time>2026-04-24T11:51:14Z</time></trkpt><trkpt lat="40.9814571187758" lon="14.21831646823114"><ele>33.75</ele><time>2026-04-24T11:51:15Z</time></trkpt><trkpt lat="40.981354027029084" lon="14.218238477831084"><ele>33.5</ele><time>2026-04-24T11:51:17Z</time></trkpt><trkpt lat="40.98125747152607" lon="14.218150383405296"><ele>33.25</ele><time>2026-04-24T11:51:19Z</time></trkpt><trkpt lat="40.981126416773215" lon="14.218075399433383"><ele>33.0</ele><time>2026-04-24T11:51:21Z</time></trkpt><trkpt lat="40.9810526126369" lon="14.218017656275968"><ele>33.0</ele><time>2026-04-24T11:51:22Z</time></trkpt><trkpt lat="40.98096839540925" lon="14.2179726074288"><ele>33.0</ele><time>2026-04-24T11:51:23Z</time></trkpt><trkpt lat="40.98088703413155" lon="14.217931263892764"><ele>33.0</ele><time>2026-04-24T11:51:24Z</time></trkpt><trkpt lat="40.980813499207706" lon="14.217891923753925"><ele>33.0</ele><time>2026-04-24T11:51:25Z</time></trkpt><trkpt lat="40.98074908345732" lon="14.217861519742991"><ele>33.0</ele><time>2026-04-24T11:51:26Z</time></trkpt><trkpt lat="40.98065365981189" lon="14.21783152689477"><ele>33.0</ele><time>2026-04-24T11:51:28Z</time></trkpt><trkpt lat="40.980576875865886" lon="14.217769596043347"><ele>33.0</ele><time>2026-04-24T11:51:30Z</time></trkpt><trkpt lat="40.98057003015351" lon="14.217599498366038"><ele>33.0</ele><time>2026-04-24T11:51:33Z</time></trkpt><trkpt lat="40.98059206022676" lon="14.217436657493543"><ele>33.0</ele><time>2026-04-24T11:51:35Z</time></trkpt><trkpt lat="40.980598959632786" lon="14.217348438391895"><ele>33.0</ele><time>2026-04-24T11:51:36Z</time></trkpt><trkpt lat="40.98059869363946" lon="14.217246590941542"><ele>33.0</ele><time>2026-04-24T11:51:37Z</time></trkpt><trkpt lat="40.980601559497046" lon="14.217152099115532"><ele>33.4</ele><time>2026-04-24T11:51:38Z</time></trkpt><trkpt lat="40.98061048572487" lon="14.216994189724476"><ele>33.8</ele><time>2026-04-24T11:51:40Z</time></trkpt><trkpt lat="40.980609183239416" lon="14.21683007004084"><ele>34.2</ele><time>2026-04-24T11:51:42Z</time></trkpt><trkpt lat="40.98060940940372" lon="14.216745635571272"><ele>34.6</ele><time>2026-04-24T11:51:43Z</time></trkpt><trkpt lat="40.98062430354422" lon="14.216581287687863"><ele>35.0</ele><time>2026-04-24T11:51:45Z</time></trkpt><trkpt lat="40.980630154071655" lon="14.216495095447652"><ele>35.142857142857146</ele><time>2026-04-24T11:51:46Z</time></trkpt><trkpt lat="40.98063357024795" lon="14.21640344320102"><ele>35.285714285714285</ele><time>2026-04-24T11:51:47Z</time></trkpt><trkpt lat="40.98063418572665" lon="14.216300861034584"><ele>35.42857142857143</ele><time>2026-04-24T11:51:48Z</time></trkpt><trkpt lat="40.98063599188277" lon="14.216210238801894"><ele>35.57142857142857</ele><time>2026-04-24T11:51:49Z</time></trkpt><trkpt lat="40.98063984181079" lon="14.216115583178656"><ele>35.714285714285715</ele><time>2026-04-24T11:51:50Z</time></trkpt><trkpt lat="40.980647627872514" lon="14.216027388843203"><ele>35.85714285714286</ele><time>2026-04-24T11:51:51Z</time></trkpt><trkpt lat="40.980650390242815" lon="14.215935613868101"><ele>36.0</ele><time>2026-04-24T11:51:52Z</time></trkpt><trkpt lat="40.980642149360506" lon="14.2158484095029"><ele>36.0</ele><time>2026-04-24T11:51:53Z</time></trkpt><trkpt lat="40.9806624037205" lon="14.21575651428502"><ele>36.0</ele><time>2026-04-24T11:51:54Z</time></trkpt><trkpt lat="40.98065697519363" lon="14.215665888872879"><ele>36.0</ele><time>2026-04-24T11:51:55Z</time></trkpt><trkpt lat="40.9806573058639" lon="14.215576061066834"><ele>36.0</ele><time>2026-04-24T11:51:56Z</time></trkpt><trkpt lat="40.98066235080863" lon="14.215492863469736"><ele>36.0</ele><time>2026-04-24T11:51:57Z</time></trkpt><trkpt lat="40.980662981936526" lon="14.215332084345844"><ele>36.0</ele><time>2026-04-24T11:51:59Z</time></trkpt><trkpt lat="40.98063216553735" lon="14.21525243863407"><ele>36.142857142857146</ele><time>2026-04-24T11:52:00Z</time></trkpt><trkpt lat="40.98059669338945" lon="14.21516317596317"><ele>36.285714285714285</ele><time>2026-04-24T11:52:01Z</time></trkpt><trkpt lat="40.98056226574856" lon="14.21508190789494"><ele>36.42857142857143</ele><time>2026-04-24T11:52:02Z</time></trkpt><trkpt lat="40.98053994273527" lon="14.215002008192537"><ele>36.57142857142857</ele><time>2026-04-24T11:52:03Z</time></trkpt><trkpt lat="40.98054201811612" lon="14.214900764227325"><ele>36.714285714285715</ele><time>2026-04-24T11:52:04Z</time></trkpt><trkpt lat="40.980555935895495" lon="14.214819038139565"><ele>36.85714285714286</ele><time>2026-04-24T11:52:05Z</time></trkpt><trkpt lat="40.98059875485184" lon="14.21473559322924"><ele>37.0</ele><time>2026-04-24T11:52:06Z</time></trkpt><trkpt lat="40.9806344897735" lon="14.214665974583236"><ele>37.0</ele><time>2026-04-24T11:52:07Z</time></trkpt><trkpt lat="40.98068749229385" lon="14.214558180759072"><ele>37.0</ele><time>2026-04-24T11:52:09Z</time></trkpt><trkpt lat="40.98068254514047" lon="14.21444480058145"><ele>37.0</ele><time>2026-04-24T11:52:18Z</time></trkpt><trkpt lat="40.980562159424565" lon="14.214366011157823"><ele>37.0</ele><time>2026-04-24T11:52:25Z</time></trkpt><trkpt lat="40.98041817221522" lon="14.214384951076637"><ele>37.0</ele><time>2026-04-24T11:52:27Z</time></trkpt><trkpt lat="40.98033978950002" lon="14.214391743918736"><ele>37.0</ele><time>2026-04-24T11:52:28Z</time></trkpt><trkpt lat="40.98027623362366" lon="14.214403714732395"><ele>37.0</ele><time>2026-04-24T11:52:29Z</time></trkpt><trkpt lat="40.980213091380456" lon="14.214446644941368"><ele>37.0</ele><time>2026-04-24T11:52:30Z</time></trkpt><trkpt lat="40.9801010029986" lon="14.214480467969063"><ele>37.0</ele><time>2026-04-24T11:52:32Z</time></trkpt><trkpt lat="40.97999456746945" lon="14.214509515485513"><ele>37.0</ele><time>2026-04-24T11:52:34Z</time></trkpt><trkpt lat="40.97988487621095" lon="14.214546320298"><ele>37.16666666666667</ele><time>2026-04-24T11:52:36Z</time></trkpt><trkpt lat="40.979822940485704" lon="14.214569552685974"><ele>37.333333333333336</ele><time>2026-04-24T11:52:37Z</time></trkpt><trkpt lat="40.97969861836995" lon="14.214605374461717"><ele>37.5</ele><time>2026-04-24T11:52:39Z</time></trkpt><trkpt lat="40.97962076659723" lon="14.214608879990864"><ele>37.666666666666664</ele><time>2026-04-24T11:52:40Z</time></trkpt><trkpt lat="40.979557994988575" lon="14.214622442642032"><ele>37.83333333333333</ele><time>2026-04-24T11:52:41Z</time></trkpt><trkpt lat="40.979493855963554" lon="14.214634399311597"><ele>38.0</ele><time>2026-04-24T11:52:42Z</time></trkpt><trkpt lat="40.9794257539711" lon="14.214652259500419"><ele>38.0</ele><time>2026-04-24T11:52:43Z</time></trkpt><trkpt lat="40.979352593764084" lon="14.214678402506628"><ele>38.0</ele><time>2026-04-24T11:52:44Z</time></trkpt><trkpt lat="40.97928326526775" lon="14.214701459006477"><ele>38.0</ele><time>2026-04-24T11:52:45Z</time></trkpt><trkpt lat="40.97921573330754" lon="14.214710196693055"><ele>38.0</ele><time>2026-04-24T11:52:46Z</time></trkpt><trkpt lat="40.97912088501224" lon="14.214742305931443"><ele>38.0</ele><time>2026-04-24T11:52:48Z</time></trkpt><trkpt lat="40.97905968612391" lon="14.214767135431986"><ele>38.0</ele><time>2026-04-24T11:52:50Z</time></trkpt><trkpt lat="40.97898547211704" lon="14.214788736295024"><ele>38.0</ele><time>2026-04-24T11:52:52Z</time></trkpt><trkpt lat="40.97886463528004" lon="14.214813833304005"><ele>38.0</ele><time>2026-04-24T11:52:54Z</time></trkpt><trkpt lat="40.978795724316804" lon="14.214835059180464"><ele>38.0</ele><time>2026-04-24T11:52:55Z</time></trkpt><trkpt lat="40.97872126417798" lon="14.21486398987103"><ele>38.0</ele><time>2026-04-24T11:52:56Z</time></trkpt><trkpt lat="40.9786455270029" lon="14.214891525822228"><ele>38.0</ele><time>2026-04-24T11:52:57Z</time></trkpt><trkpt lat="40.97856231875551" lon="14.214942209415783"><ele>38.0</ele><time>2026-04-24T11:52:58Z</time></trkpt><trkpt lat="40.97848813253305" lon="14.214959654981094"><ele>37.83333333333333</ele><time>2026-04-24T11:52:59Z</time></trkpt><trkpt lat="40.97841245173207" lon="14.214982287924574"><ele>37.666666666666664</ele><time>2026-04-24T11:53:00Z</time></trkpt><trkpt lat="40.978334163561044" lon="14.214987467590305"><ele>37.5</ele><time>2026-04-24T11:53:01Z</time></trkpt><trkpt lat="40.97825089367283" lon="14.2150178383741"><ele>37.333333333333336</ele><time>2026-04-24T11:53:02Z</time></trkpt><trkpt lat="40.97816727698962" lon="14.215032373738397"><ele>37.16666666666667</ele><time>2026-04-24T11:53:03Z</time></trkpt><trkpt lat="40.978071003886754" lon="14.21506014977074"><ele>37.0</ele><time>2026-04-24T11:53:04Z</time></trkpt><trkpt lat="40.97797470613509" lon="14.21507695964265"><ele>37.5</ele><time>2026-04-24T11:53:05Z</time></trkpt><trkpt lat="40.9778790212107" lon="14.215099957826798"><ele>38.0</ele><time>2026-04-24T11:53:06Z</time></trkpt><trkpt lat="40.97778387427234" lon="14.215132112077386"><ele>38.5</ele><time>2026-04-24T11:53:07Z</time></trkpt><trkpt lat="40.977601754279114" lon="14.215178252538003"><ele>39.0</ele><time>2026-04-24T11:53:09Z</time></trkpt><trkpt lat="40.97752048933515" lon="14.215175380599549"><ele>39.666666666666664</ele><time>2026-04-24T11:53:10Z</time></trkpt><trkpt lat="40.977436802105785" lon="14.215208209594891"><ele>40.333333333333336</ele><time>2026-04-24T11:53:11Z</time></trkpt><trkpt lat="40.9773479378836" lon="14.215251512148502"><ele>41.0</ele><time>2026-04-24T11:53:12Z</time></trkpt><trkpt lat="40.97726718886987" lon="14.21527823531699"><ele>41.66666666666667</ele><time>2026-04-24T11:53:13Z</time></trkpt><trkpt lat="40.977203252381955" lon="14.215297311063049"><ele>42.333333333333336</ele><time>2026-04-24T11:53:14Z</time></trkpt><trkpt lat="40.977134145988494" lon="14.215311939541916"><ele>43.0</ele><time>2026-04-24T11:53:15Z</time></trkpt><trkpt lat="40.977061623232764" lon="14.215325709716453"><ele>43.0</ele><time>2026-04-24T11:53:16Z</time></trkpt><trkpt lat="40.97697739437037" lon="14.215348668807023"><ele>43.0</ele><time>2026-04-24T11:53:17Z</time></trkpt><trkpt lat="40.9769033643338" lon="14.215369154453251"><ele>43.0</ele><time>2026-04-24T11:53:18Z</time></trkpt><trkpt lat="40.97682282458266" lon="14.215398384263601"><ele>43.0</ele><time>2026-04-24T11:53:19Z</time></trkpt><trkpt lat="40.976732289444605" lon="14.215437935998366"><ele>43.0</ele><time>2026-04-24T11:53:20Z</time></trkpt><trkpt lat="40.97664245822418" lon="14.215466497652638"><ele>43.0</ele><time>2026-04-24T11:53:21Z</time></trkpt><trkpt lat="40.97654188771035" lon="14.215494828828692"><ele>42.4</ele><time>2026-04-24T11:53:22Z</time></trkpt><trkpt lat="40.97644629284168" lon="14.2155095065227"><ele>41.8</ele><time>2026-04-24T11:53:23Z</time></trkpt><trkpt lat="40.97634363484589" lon="14.215530310806633"><ele>41.2</ele><time>2026-04-24T11:53:24Z</time></trkpt><trkpt lat="40.97623830934142" lon="14.215548682429603"><ele>40.6</ele><time>2026-04-24T11:53:25Z</time></trkpt><trkpt lat="40.97613295005333" lon="14.21556208528226"><ele>40.0</ele><time>2026-04-24T11:53:26Z</time></trkpt><trkpt lat="40.9760388627902" lon="14.215574312941182"><ele>40.0</ele><time>2026-04-24T11:53:27Z</time></trkpt><trkpt lat="40.97594900859629" lon="14.215611432920454"><ele>40.0</ele><time>2026-04-24T11:53:28Z</time></trkpt><trkpt lat="40.975861243951776" lon="14.215627098092813"><ele>40.0</ele><time>2026-04-24T11:53:29Z</time></trkpt><trkpt lat="40.97577381447178" lon="14.215660941878808"><ele>40.0</ele><time>2026-04-24T11:53:30Z</time></trkpt><trkpt lat="40.975692900748875" lon="14.215692850051537"><ele>40.0</ele><time>2026-04-24T11:53:31Z</time></trkpt><trkpt lat="40.97560228274555" lon="14.215705548922578"><ele>40.0</ele><time>2026-04-24T11:53:32Z</time></trkpt><trkpt lat="40.975508114986" lon="14.215711572693113"><ele>39.6</ele><time>2026-04-24T11:53:33Z</time></trkpt><trkpt lat="40.97541274014807" lon="14.215749487694021"><ele>39.2</ele><time>2026-04-24T11:53:34Z</time></trkpt><trkpt lat="40.975320494420124" lon="14.215775507961407"><ele>38.8</ele><time>2026-04-24T11:53:35Z</time></trkpt><trkpt lat="40.975229832498826" lon="14.215811662307"><ele>38.4</ele><time>2026-04-24T11:53:36Z</time></trkpt><trkpt lat="40.97512642393738" lon="14.215865746346875"><ele>38.0</ele><time>2026-04-24T11:53:37Z</time></trkpt><trkpt lat="40.97502231774806" lon="14.215891616152115"><ele>38.0</ele><time>2026-04-24T11:53:38Z</time></trkpt><trkpt lat="40.974927323788116" lon="14.215921018316873"><ele>38.0</ele><time>2026-04-24T11:53:39Z</time></trkpt><trkpt lat="40.97483568197254" lon="14.2159482038656"><ele>38.0</ele><time>2026-04-24T11:53:40Z</time></trkpt><trkpt lat="40.97474277416675" lon="14.215972972534928"><ele>38.0</ele><time>2026-04-24T11:53:41Z</time></trkpt><trkpt lat="40.97465908122391" lon="14.215996799571872"><ele>38.0</ele><time>2026-04-24T11:53:42Z</time></trkpt><trkpt lat="40.97458333118671" lon="14.216020371826769"><ele>38.0</ele><time>2026-04-24T11:53:43Z</time></trkpt><trkpt lat="40.97452141225888" lon="14.21604111363393"><ele>38.0</ele><time>2026-04-24T11:53:44Z</time></trkpt><trkpt lat="40.97438821820151" lon="14.216042076312721"><ele>38.0</ele><time>2026-04-24T11:53:47Z</time></trkpt><trkpt lat="40.97432323678715" lon="14.216024363932284"><ele>38.0</ele><time>2026-04-24T11:53:49Z</time></trkpt><trkpt lat="40.974238267602246" lon="14.215950951196634"><ele>38.0</ele><time>2026-04-24T11:53:51Z</time></trkpt><trkpt lat="40.9741331231508" lon="14.21587090824041"><ele>38.166666666666664</ele><time>2026-04-24T11:53:53Z</time></trkpt><trkpt lat="40.97406416479858" lon="14.21585012958301"><ele>38.33333333333333</ele><time>2026-04-24T11:53:54Z</time></trkpt><trkpt lat="40.97398906161965" lon="14.215835303706928"><ele>38.5</ele><time>2026-04-24T11:53:55Z</time></trkpt><trkpt lat="40.97389775007772" lon="14.215831466136697"><ele>38.666666666666664</ele><time>2026-04-24T11:53:56Z</time></trkpt><trkpt lat="40.973809966564005" lon="14.21583834465199"><ele>38.833333333333336</ele><time>2026-04-24T11:53:57Z</time></trkpt><trkpt lat="40.97373694464611" lon="14.215814679356834"><ele>39.0</ele><time>2026-04-24T11:53:58Z</time></trkpt><trkpt lat="40.97365844696588" lon="14.215804866604808"><ele>39.0</ele><time>2026-04-24T11:53:59Z</time></trkpt><trkpt lat="40.97358183980987" lon="14.215799632809459"><ele>39.0</ele><time>2026-04-24T11:54:00Z</time></trkpt><trkpt lat="40.97351277320592" lon="14.215761190343052"><ele>39.0</ele><time>2026-04-24T11:54:01Z</time></trkpt><trkpt lat="40.973446356865885" lon="14.215771587468698"><ele>39.0</ele><time>2026-04-24T11:54:02Z</time></trkpt><trkpt lat="40.9733618086136" lon="14.215753570519231"><ele>39.0</ele><time>2026-04-24T11:54:04Z</time></trkpt><trkpt lat="40.973280758545584" lon="14.21573294460453"><ele>39.0</ele><time>2026-04-24T11:54:07Z</time></trkpt><trkpt lat="40.97321717001229" lon="14.215690838294393"><ele>39.6</ele><time>2026-04-24T11:54:09Z</time></trkpt><trkpt lat="40.97316356655656" lon="14.215629614424513"><ele>40.2</ele><time>2026-04-24T11:54:11Z</time></trkpt><trkpt lat="40.97317149678717" lon="14.215448587504566"><ele>40.800000000000004</ele><time>2026-04-24T11:54:14Z</time></trkpt><trkpt lat="40.97315230500344" lon="14.215304532888341"><ele>41.4</ele><time>2026-04-24T11:54:16Z</time></trkpt><trkpt lat="40.97315346419379" lon="14.215159042018643"><ele>42.0</ele><time>2026-04-24T11:54:18Z</time></trkpt><trkpt lat="40.973154591419366" lon="14.215006088258164"><ele>42.0</ele><time>2026-04-24T11:54:20Z</time></trkpt><trkpt lat="40.973152008179134" lon="14.21486479087321"><ele>42.0</ele><time>2026-04-24T11:54:22Z</time></trkpt><trkpt lat="40.973167140436395" lon="14.214741200869268"><ele>42.0</ele><time>2026-04-24T11:54:24Z</time></trkpt><trkpt lat="40.973167558540894" lon="14.214655377625371"><ele>42.0</ele><time>2026-04-24T11:54:26Z</time></trkpt><trkpt lat="40.97316755854162" lon="14.214505573542928"><ele>42.0</ele><time>2026-04-24T11:55:07Z</time></trkpt><trkpt lat="40.97316755854088" lon="14.214414477042679"><ele>42.0</ele><time>2026-04-24T11:55:13Z</time></trkpt><trkpt lat="40.9731675585412" lon="14.214322740184441"><ele>42.0</ele><time>2026-04-24T11:55:16Z</time></trkpt><trkpt lat="40.97316570127894" lon="14.214211959738842"><ele>42.0</ele><time>2026-04-24T11:55:20Z</time></trkpt><trkpt lat="40.97316462841051" lon="14.214123598141997"><ele>42.0</ele><time>2026-04-24T11:55:23Z</time></trkpt><trkpt lat="40.97316327763351" lon="14.214012348163985"><ele>42.0</ele><time>2026-04-24T11:55:26Z</time></trkpt><trkpt lat="40.97316223321114" lon="14.213926328839428"><ele>42.0</ele><time>2026-04-24T11:55:28Z</time></trkpt><trkpt lat="40.97315914490374" lon="14.21380182921044"><ele>42.0</ele><time>2026-04-24T11:55:30Z</time></trkpt><trkpt lat="40.973162885208176" lon="14.213706359514074"><ele>41.666666666666664</ele><time>2026-04-24T11:55:33Z</time></trkpt><trkpt lat="40.9731733577932" lon="14.213612112093424"><ele>41.333333333333336</ele><time>2026-04-24T11:56:41Z</time></trkpt><trkpt lat="40.97316448444503" lon="14.213502191210175"><ele>41.0</ele><time>2026-04-24T11:56:44Z</time></trkpt><trkpt lat="40.97305118982143" lon="14.213507048095508"><ele>40.66666666666667</ele><time>2026-04-24T11:56:45Z</time></trkpt><trkpt lat="40.97298746292207" lon="14.213492988444663"><ele>40.333333333333336</ele><time>2026-04-24T11:56:46Z</time></trkpt><trkpt lat="40.972918726746194" lon="14.213508981343496"><ele>40.0</ele><time>2026-04-24T11:56:47Z</time></trkpt><trkpt lat="40.9728285431756" lon="14.213492593817906"><ele>40.0</ele><time>2026-04-24T11:56:48Z</time></trkpt><trkpt lat="40.97271310732344" lon="14.2135019312734"><ele>40.0</ele><time>2026-04-24T11:56:49Z</time></trkpt><trkpt lat="40.97257873663436" lon="14.213495770022048"><ele>40.0</ele><time>2026-04-24T11:56:50Z</time></trkpt><trkpt lat="40.97246654746313" lon="14.213514819779661"><ele>40.0</ele><time>2026-04-24T11:56:51Z</time></trkpt><trkpt lat="40.972354981304996" lon="14.21348608203903"><ele>40.0</ele><time>2026-04-24T11:56:52Z</time></trkpt><trkpt lat="40.97224866108778" lon="14.213489228242885"><ele>40.0</ele><time>2026-04-24T11:56:53Z</time></trkpt><trkpt lat="40.972146946836766" lon="14.213489618836137"><ele>40.0</ele><time>2026-04-24T11:56:54Z</time></trkpt><trkpt lat="40.97205186108205" lon="14.213491711893402"><ele>40.0</ele><time>2026-04-24T11:56:55Z</time></trkpt><trkpt lat="40.97196041859397" lon="14.213494223506773"><ele>40.0</ele><time>2026-04-24T11:56:56Z</time></trkpt><trkpt lat="40.9718788384587" lon="14.213501632811807"><ele>40.0</ele><time>2026-04-24T11:56:57Z</time></trkpt><trkpt lat="40.97179869826792" lon="14.213510712454825"><ele>40.0</ele><time>2026-04-24T11:56:58Z</time></trkpt><trkpt lat="40.97170908811409" lon="14.213517480008626"><ele>40.0</ele><time>2026-04-24T11:56:59Z</time></trkpt><trkpt lat="40.97160984835353" lon="14.21352066089252"><ele>40.0</ele><time>2026-04-24T11:57:00Z</time></trkpt><trkpt lat="40.971496171309816" lon="14.213523920332076"><ele>40.0</ele><time>2026-04-24T11:57:01Z</time></trkpt><trkpt lat="40.97137727315113" lon="14.21352482869889"><ele>40.25</ele><time>2026-04-24T11:57:02Z</time></trkpt><trkpt lat="40.97125508209217" lon="14.213521826218823"><ele>40.5</ele><time>2026-04-24T11:57:03Z</time></trkpt><trkpt lat="40.97112849688328" lon="14.21351998206522"><ele>40.75</ele><time>2026-04-24T11:57:04Z</time></trkpt><trkpt lat="40.97100830248439" lon="14.21353161754303"><ele>41.0</ele><time>2026-04-24T11:57:05Z</time></trkpt><trkpt lat="40.97088568143747" lon="14.213534400279755"><ele>41.5</ele><time>2026-04-24T11:57:06Z</time></trkpt><trkpt lat="40.970766125119304" lon="14.21352216230524"><ele>42.0</ele><time>2026-04-24T11:57:07Z</time></trkpt><trkpt lat="40.97065049054223" lon="14.213503477578971"><ele>42.5</ele><time>2026-04-24T11:57:08Z</time></trkpt><trkpt lat="40.970534356059346" lon="14.213483381047116"><ele>43.0</ele><time>2026-04-24T11:57:09Z</time></trkpt><trkpt lat="40.970419851146495" lon="14.213460928557902"><ele>43.0</ele><time>2026-04-24T11:57:10.001Z</time></trkpt><trkpt lat="40.97030856720264" lon="14.213434678314378"><ele>43.0</ele><time>2026-04-24T11:57:11.001Z</time></trkpt><trkpt lat="40.970199679209685" lon="14.213405515134085"><ele>43.0</ele><time>2026-04-24T11:57:12.001Z</time></trkpt><trkpt lat="40.97009252167186" lon="14.213375913184558"><ele>43.0</ele><time>2026-04-24T11:57:13.001Z</time></trkpt><trkpt lat="40.96998701764652" lon="14.213344918530215"><ele>43.0</ele><time>2026-04-24T11:57:14.001Z</time></trkpt><trkpt lat="40.96988922833434" lon="14.213319228869466"><ele>43.0</ele><time>2026-04-24T11:57:15.001Z</time></trkpt><trkpt lat="40.96978382193503" lon="14.213289440195872"><ele>43.0</ele><time>2026-04-24T11:57:16.001Z</time></trkpt><trkpt lat="40.969685313196365" lon="14.213262300171401"><ele>43.0</ele><time>2026-04-24T11:57:17.001Z</time></trkpt><trkpt lat="40.96959928299708" lon="14.213240192509245"><ele>43.0</ele><time>2026-04-24T11:57:18.001Z</time></trkpt><trkpt lat="40.969527956973494" lon="14.213219571005864"><ele>43.0</ele><time>2026-04-24T11:57:19.001Z</time></trkpt><trkpt lat="40.96946246874125" lon="14.213204452249396"><ele>43.0</ele><time>2026-04-24T11:57:20.001Z</time></trkpt><trkpt lat="40.96934724757423" lon="14.213168389287475"><ele>43.0</ele><time>2026-04-24T11:57:22.001Z</time></trkpt><trkpt lat="40.969258388613014" lon="14.213135105098797"><ele>43.0</ele><time>2026-04-24T11:57:24.001Z</time></trkpt><trkpt lat="40.969183487706175" lon="14.213113022991578"><ele>43.0</ele><time>2026-04-24T11:57:26Z</time></trkpt><trkpt lat="40.9691100400327" lon="14.213088050106533"><ele>43.0</ele><time>2026-04-24T11:57:34Z</time></trkpt><trkpt lat="40.96903167976493" lon="14.213076938100674"><ele>43.0</ele><time>2026-04-24T11:57:36Z</time></trkpt><trkpt lat="40.96893020765174" lon="14.213046837755593"><ele>43.0</ele><time>2026-04-24T11:57:38Z</time></trkpt><trkpt lat="40.96879392059014" lon="14.213007908361295"><ele>43.0</ele><time>2026-04-24T11:57:40Z</time></trkpt><trkpt lat="40.9687121914111" lon="14.212984335416929"><ele>43.0</ele><time>2026-04-24T11:57:41Z</time></trkpt><trkpt lat="40.96862798561912" lon="14.212959132216211"><ele>43.0</ele><time>2026-04-24T11:57:42Z</time></trkpt><trkpt lat="40.96854585211936" lon="14.212936735229293"><ele>43.0</ele><time>2026-04-24T11:57:43Z</time></trkpt><trkpt lat="40.96847494866673" lon="14.212918123168416"><ele>43.0</ele><time>2026-04-24T11:57:44Z</time></trkpt><trkpt lat="40.96840976850975" lon="14.212898719065846"><ele>43.0</ele><time>2026-04-24T11:57:45Z</time></trkpt><trkpt lat="40.96829311950493" lon="14.212861936732525"><ele>43.00000000000001</ele><time>2026-04-24T11:57:47Z</time></trkpt><trkpt lat="40.968229878650895" lon="14.212838867029104"><ele>43.0</ele><time>2026-04-24T11:57:48Z</time></trkpt><trkpt lat="40.96815887317729" lon="14.212815045565156"><ele>43.0</ele><time>2026-04-24T11:57:49Z</time></trkpt><trkpt lat="40.968087781912494" lon="14.212794885801657"><ele>43.0</ele><time>2026-04-24T11:57:50Z</time></trkpt><trkpt lat="40.96801851625001" lon="14.212773813164961"><ele>43.0</ele><time>2026-04-24T11:57:51Z</time></trkpt><trkpt lat="40.96795204398291" lon="14.212755362705684"><ele>43.00000000000001</ele><time>2026-04-24T11:57:52Z</time></trkpt><trkpt lat="40.96788691828115" lon="14.212737857835304"><ele>43.0</ele><time>2026-04-24T11:57:53Z</time></trkpt><trkpt lat="40.96782457289722" lon="14.212719292429323"><ele>43.00000000000001</ele><time>2026-04-24T11:57:54Z</time></trkpt><trkpt lat="40.96776114040261" lon="14.212699391629432"><ele>43.0</ele><time>2026-04-24T11:57:55Z</time></trkpt><trkpt lat="40.96769742806436" lon="14.212680970415548"><ele>43.0</ele><time>2026-04-24T11:57:56Z</time></trkpt><trkpt lat="40.96763144342504" lon="14.21266230221951"><ele>43.0</ele><time>2026-04-24T11:57:57Z</time></trkpt><trkpt lat="40.96755820518341" lon="14.212641639660013"><ele>43.0</ele><time>2026-04-24T11:57:58Z</time></trkpt><trkpt lat="40.96747628364573" lon="14.212619279734072"><ele>43.00000000000001</ele><time>2026-04-24T11:57:59Z</time></trkpt><trkpt lat="40.96738974555148" lon="14.212594402077533"><ele>43.0</ele><time>2026-04-24T11:58:00Z</time></trkpt><trkpt lat="40.96730178115713" lon="14.212563216439372"><ele>43.16666666666667</ele><time>2026-04-24T11:58:01Z</time></trkpt><trkpt lat="40.96721534368382" lon="14.212537786079352"><ele>43.333333333333336</ele><time>2026-04-24T11:58:02Z</time></trkpt><trkpt lat="40.967130487178174" lon="14.212515122698601"><ele>43.5</ele><time>2026-04-24T11:58:03Z</time></trkpt><trkpt lat="40.96704760047214" lon="14.212493197376036"><ele>43.666666666666664</ele><time>2026-04-24T11:58:04Z</time></trkpt><trkpt lat="40.96696443922434" lon="14.212473554449172"><ele>43.83333333333333</ele><time>2026-04-24T11:58:05Z</time></trkpt><trkpt lat="40.96687916763835" lon="14.212449871451984"><ele>44.0</ele><time>2026-04-24T11:58:06Z</time></trkpt><trkpt lat="40.96679330740428" lon="14.212423788275162"><ele>44.0</ele><time>2026-04-24T11:58:07Z</time></trkpt><trkpt lat="40.96670807172543" lon="14.212397093573315"><ele>44.0</ele><time>2026-04-24T11:58:08Z</time></trkpt><trkpt lat="40.96662062705783" lon="14.212368213316413"><ele>44.0</ele><time>2026-04-24T11:58:09Z</time></trkpt><trkpt lat="40.9665321940606" lon="14.212340421468612"><ele>44.0</ele><time>2026-04-24T11:58:10Z</time></trkpt><trkpt lat="40.96644509102288" lon="14.212317430770092"><ele>44.0</ele><time>2026-04-24T11:58:11Z</time></trkpt><trkpt lat="40.96636923772887" lon="14.212302344827865"><ele>44.0</ele><time>2026-04-24T11:58:12Z</time></trkpt><trkpt lat="40.96630181864773" lon="14.212283916044166"><ele>44.400000000000006</ele><time>2026-04-24T11:58:13Z</time></trkpt><trkpt lat="40.9662374706227" lon="14.212263832133697"><ele>44.8</ele><time>2026-04-24T11:58:14Z</time></trkpt><trkpt lat="40.96611713810359" lon="14.212234939281345"><ele>45.2</ele><time>2026-04-24T11:58:16Z</time></trkpt><trkpt lat="40.96598912070031" lon="14.212203280537494"><ele>45.599999999999994</ele><time>2026-04-24T11:58:18Z</time></trkpt><trkpt lat="40.96592392073531" lon="14.212157636308643"><ele>46.0</ele><time>2026-04-24T11:58:19Z</time></trkpt><trkpt lat="40.96585805091297" lon="14.212155020267694"><ele>46.0</ele><time>2026-04-24T11:58:20Z</time></trkpt><trkpt lat="40.965767061046954" lon="14.212109365369924"><ele>46.0</ele><time>2026-04-24T11:58:22Z</time></trkpt><trkpt lat="40.96565610426561" lon="14.212067800668736"><ele>46.0</ele><time>2026-04-24T11:58:24Z</time></trkpt><trkpt lat="40.965539500538796" lon="14.212032776228133"><ele>46.0</ele><time>2026-04-24T11:58:26Z</time></trkpt><trkpt lat="40.96547102264972" lon="14.21201011691308"><ele>46.0</ele><time>2026-04-24T11:58:27Z</time></trkpt><trkpt lat="40.965385056392286" lon="14.211989304264991"><ele>46.0</ele><time>2026-04-24T11:58:28Z</time></trkpt><trkpt lat="40.96530824771399" lon="14.211965863866547"><ele>46.0</ele><time>2026-04-24T11:58:29Z</time></trkpt><trkpt lat="40.965234254330646" lon="14.211942396522327"><ele>46.0</ele><time>2026-04-24T11:58:30Z</time></trkpt><trkpt lat="40.96515156407051" lon="14.21191560178853"><ele>46.0</ele><time>2026-04-24T11:58:31Z</time></trkpt><trkpt lat="40.96507361565945" lon="14.21189294594216"><ele>46.0</ele><time>2026-04-24T11:58:32Z</time></trkpt><trkpt lat="40.96500244362588" lon="14.211870259257953"><ele>46.0</ele><time>2026-04-24T11:58:33Z</time></trkpt><trkpt lat="40.96493691990096" lon="14.211850090133545"><ele>46.333333333333336</ele><time>2026-04-24T11:58:34Z</time></trkpt><trkpt lat="40.96481693183741" lon="14.211824089148024"><ele>46.66666666666667</ele><time>2026-04-24T11:58:36Z</time></trkpt><trkpt lat="40.96475204182567" lon="14.211798757286134"><ele>47.0</ele><time>2026-04-24T11:58:37Z</time></trkpt><trkpt lat="40.964685527211756" lon="14.211781175022159"><ele>47.333333333333336</ele><time>2026-04-24T11:58:38Z</time></trkpt><trkpt lat="40.964587095862804" lon="14.2117501767084"><ele>47.666666666666664</ele><time>2026-04-24T11:58:40Z</time></trkpt><trkpt lat="40.96450077999544" lon="14.211727134093882"><ele>48.0</ele><time>2026-04-24T11:58:42Z</time></trkpt><trkpt lat="40.96441358513554" lon="14.211699178949495"><ele>48.0</ele><time>2026-04-24T11:58:44Z</time></trkpt><trkpt lat="40.964311927310646" lon="14.21167642433046"><ele>48.0</ele><time>2026-04-24T11:58:46Z</time></trkpt><trkpt lat="40.96419998125075" lon="14.211648924232865"><ele>48.0</ele><time>2026-04-24T11:58:48Z</time></trkpt><trkpt lat="40.96413817559209" lon="14.211629481519388"><ele>48.0</ele><time>2026-04-24T11:58:49Z</time></trkpt><trkpt lat="40.96406668748707" lon="14.211607614863583"><ele>48.0</ele><time>2026-04-24T11:58:50Z</time></trkpt><trkpt lat="40.96399675406287" lon="14.211583406672553"><ele>48.0</ele><time>2026-04-24T11:58:51Z</time></trkpt><trkpt lat="40.963929636808764" lon="14.211561775872237"><ele>48.0</ele><time>2026-04-24T11:58:52Z</time></trkpt><trkpt lat="40.963864823344835" lon="14.211543062069579"><ele>48.0</ele><time>2026-04-24T11:58:53Z</time></trkpt><trkpt lat="40.96374683488279" lon="14.211504340685114"><ele>48.0</ele><time>2026-04-24T11:58:55Z</time></trkpt><trkpt lat="40.96363774893688" lon="14.211469669699342"><ele>48.0</ele><time>2026-04-24T11:58:57Z</time></trkpt><trkpt lat="40.963554156073805" lon="14.211439017695733"><ele>48.0</ele><time>2026-04-24T11:58:59Z</time></trkpt><trkpt lat="40.96348682122775" lon="14.21141191861776"><ele>48.2</ele><time>2026-04-24T11:59:01Z</time></trkpt><trkpt lat="40.96341622042795" lon="14.211398157735525"><ele>48.4</ele><time>2026-04-24T11:59:03Z</time></trkpt><trkpt lat="40.963316437433875" lon="14.21138177201039"><ele>48.6</ele><time>2026-04-24T11:59:05Z</time></trkpt><trkpt lat="40.963210730943494" lon="14.211337118169078"><ele>48.800000000000004</ele><time>2026-04-24T11:59:07Z</time></trkpt><trkpt lat="40.96308462876282" lon="14.211298325925624"><ele>49.0</ele><time>2026-04-24T11:59:09Z</time></trkpt><trkpt lat="40.96300598067116" lon="14.211274146345101"><ele>49.49999999999999</ele><time>2026-04-24T11:59:10Z</time></trkpt><trkpt lat="40.96292274319953" lon="14.211248555768245"><ele>50.0</ele><time>2026-04-24T11:59:11Z</time></trkpt><trkpt lat="40.96284191665853" lon="14.21122370644072"><ele>50.5</ele><time>2026-04-24T11:59:12Z</time></trkpt><trkpt lat="40.962764792302906" lon="14.211199995316534"><ele>51.0</ele><time>2026-04-24T11:59:13Z</time></trkpt><trkpt lat="40.96267514165539" lon="14.211173425930701"><ele>51.49999999999999</ele><time>2026-04-24T11:59:14Z</time></trkpt><trkpt lat="40.96258931043847" lon="14.211148232204417"><ele>52.0</ele><time>2026-04-24T11:59:15Z</time></trkpt><trkpt lat="40.96250703767338" lon="14.211124082974626"><ele>52.14285714285714</ele><time>2026-04-24T11:59:16Z</time></trkpt><trkpt lat="40.96242684188192" lon="14.21110054342096"><ele>52.28571428571429</ele><time>2026-04-24T11:59:17Z</time></trkpt><trkpt lat="40.962359160302846" lon="14.211087123008497"><ele>52.42857142857143</ele><time>2026-04-24T11:59:18Z</time></trkpt><trkpt lat="40.96228825916245" lon="14.211080944829321"><ele>52.57142857142857</ele><time>2026-04-24T11:59:19Z</time></trkpt><trkpt lat="40.96221954182407" lon="14.211050485795678"><ele>52.71428571428571</ele><time>2026-04-24T11:59:20Z</time></trkpt><trkpt lat="40.96214507748852" lon="14.211025963955912"><ele>52.85714285714286</ele><time>2026-04-24T11:59:21Z</time></trkpt><trkpt lat="40.96207429379938" lon="14.211002654528134"><ele>53.0</ele><time>2026-04-24T11:59:22Z</time></trkpt><trkpt lat="40.962007344077875" lon="14.210982896320564"><ele>53.00000000000001</ele><time>2026-04-24T11:59:23Z</time></trkpt><trkpt lat="40.96194222538028" lon="14.210961328818868"><ele>53.0</ele><time>2026-04-24T11:59:24Z</time></trkpt><trkpt lat="40.961874713393605" lon="14.210939508931592"><ele>53.0</ele><time>2026-04-24T11:59:25Z</time></trkpt><trkpt lat="40.96180177291689" lon="14.210916160042053"><ele>53.0</ele><time>2026-04-24T11:59:26Z</time></trkpt><trkpt lat="40.96172088973408" lon="14.210902938441375"><ele>53.00000000000001</ele><time>2026-04-24T11:59:27Z</time></trkpt><trkpt lat="40.96163657341422" lon="14.21087061960581"><ele>53.0</ele><time>2026-04-24T11:59:28Z</time></trkpt><trkpt lat="40.961551498238634" lon="14.210847798939708"><ele>52.8</ele><time>2026-04-24T11:59:29Z</time></trkpt><trkpt lat="40.96146167301106" lon="14.21082168528192"><ele>52.599999999999994</ele><time>2026-04-24T11:59:30Z</time></trkpt><trkpt lat="40.96136907867862" lon="14.210783363984156"><ele>52.400000000000006</ele><time>2026-04-24T11:59:31Z</time></trkpt><trkpt lat="40.96127430127101" lon="14.210750916093243"><ele>52.2</ele><time>2026-04-24T11:59:32Z</time></trkpt><trkpt lat="40.96117297705691" lon="14.210723899906618"><ele>52.0</ele><time>2026-04-24T11:59:33Z</time></trkpt><trkpt lat="40.96107356749906" lon="14.210695657468253"><ele>52.0</ele><time>2026-04-24T11:59:34Z</time></trkpt><trkpt lat="40.96098306222922" lon="14.210668684028732"><ele>52.0</ele><time>2026-04-24T11:59:35Z</time></trkpt><trkpt lat="40.96090641201859" lon="14.210647032530014"><ele>52.0</ele><time>2026-04-24T11:59:36Z</time></trkpt><trkpt lat="40.9607681486526" lon="14.210609418219951"><ele>52.0</ele><time>2026-04-24T11:59:38Z</time></trkpt><trkpt lat="40.96069714866892" lon="14.210589846885224"><ele>52.0</ele><time>2026-04-24T11:59:39Z</time></trkpt><trkpt lat="40.960629894307445" lon="14.210565238196368"><ele>51.857142857142854</ele><time>2026-04-24T11:59:40Z</time></trkpt><trkpt lat="40.960560276956684" lon="14.210544103413227"><ele>51.714285714285715</ele><time>2026-04-24T11:59:41Z</time></trkpt><trkpt lat="40.96048143123882" lon="14.210524603415928"><ele>51.57142857142857</ele><time>2026-04-24T11:59:42Z</time></trkpt><trkpt lat="40.960413126326166" lon="14.210502380955676"><ele>51.42857142857143</ele><time>2026-04-24T11:59:43Z</time></trkpt><trkpt lat="40.9603411179133" lon="14.21048227998703"><ele>51.28571428571429</ele><time>2026-04-24T11:59:44Z</time></trkpt><trkpt lat="40.960269278579595" lon="14.210460727517905"><ele>51.142857142857146</ele><time>2026-04-24T11:59:45Z</time></trkpt><trkpt lat="40.96019472545363" lon="14.210442275077135"><ele>51.0</ele><time>2026-04-24T11:59:46Z</time></trkpt><trkpt lat="40.96012190110471" lon="14.210424481301061"><ele>51.0</ele><time>2026-04-24T11:59:47Z</time></trkpt><trkpt lat="40.960045487885175" lon="14.210404017391436"><ele>51.0</ele><time>2026-04-24T11:59:48Z</time></trkpt><trkpt lat="40.95997150848353" lon="14.210381821058276"><ele>51.0</ele><time>2026-04-24T11:59:49Z</time></trkpt><trkpt lat="40.95989994099462" lon="14.210353571430133"><ele>51.0</ele><time>2026-04-24T11:59:50Z</time></trkpt><trkpt lat="40.95982277445389" lon="14.210351596893592"><ele>51.0</ele><time>2026-04-24T11:59:51Z</time></trkpt><trkpt lat="40.95974181161949" lon="14.210309005242703"><ele>51.0</ele><time>2026-04-24T11:59:52Z</time></trkpt><trkpt lat="40.95962766228928" lon="14.210271574595753"><ele>51.0</ele><time>2026-04-24T11:59:54Z</time></trkpt><trkpt lat="40.95954138269632" lon="14.21024897857937"><ele>51.0</ele><time>2026-04-24T11:59:56Z</time></trkpt><trkpt lat="40.959473373693534" lon="14.210226903719038"><ele>51.0</ele><time>2026-04-24T11:59:58Z</time></trkpt><trkpt lat="40.95940689953356" lon="14.21020658325022"><ele>51.0</ele><time>2026-04-24T12:00:00Z</time></trkpt><trkpt lat="40.959320343061485" lon="14.210185951704114"><ele>51.0</ele><time>2026-04-24T12:00:02Z</time></trkpt><trkpt lat="40.95923783508274" lon="14.210158847465944"><ele>51.0</ele><time>2026-04-24T12:00:04Z</time></trkpt><trkpt lat="40.959156301004164" lon="14.210126947912752"><ele>51.166666666666664</ele><time>2026-04-24T12:00:06Z</time></trkpt><trkpt lat="40.95908985387856" lon="14.210108028497602"><ele>51.33333333333333</ele><time>2026-04-24T12:00:08Z</time></trkpt><trkpt lat="40.95903128084518" lon="14.210063427127304"><ele>51.5</ele><time>2026-04-24T12:00:11Z</time></trkpt><trkpt lat="40.95893860746571" lon="14.21003382388874"><ele>51.666666666666664</ele><time>2026-04-24T12:00:14Z</time></trkpt><trkpt lat="40.958852610953" lon="14.209989531319266"><ele>51.83333333333333</ele><time>2026-04-24T12:00:16Z</time></trkpt><trkpt lat="40.95877810613866" lon="14.209869213441246"><ele>52.0</ele><time>2026-04-24T12:00:18Z</time></trkpt><trkpt lat="40.95880869657664" lon="14.209769941040783"><ele>51.99999999999999</ele><time>2026-04-24T12:00:19Z</time></trkpt><trkpt lat="40.95884020412355" lon="14.20969579543898"><ele>52.0</ele><time>2026-04-24T12:00:20Z</time></trkpt><trkpt lat="40.958893175285674" lon="14.209643565562743"><ele>52.0</ele><time>2026-04-24T12:00:21Z</time></trkpt><trkpt lat="40.95895661739439" lon="14.209611810504235"><ele>52.0</ele><time>2026-04-24T12:00:22Z</time></trkpt><trkpt lat="40.95907184912915" lon="14.20955204202837"><ele>51.99999999999999</ele><time>2026-04-24T12:00:24Z</time></trkpt><trkpt lat="40.95914103524076" lon="14.209519438602083"><ele>52.0</ele><time>2026-04-24T12:00:25Z</time></trkpt><trkpt lat="40.959225505342864" lon="14.209463349568274"><ele>51.75</ele><time>2026-04-24T12:00:26Z</time></trkpt><trkpt lat="40.95933766956658" lon="14.209429235481101"><ele>51.5</ele><time>2026-04-24T12:00:27Z</time></trkpt><trkpt lat="40.95945698871345" lon="14.20937090063198"><ele>51.25</ele><time>2026-04-24T12:00:28Z</time></trkpt><trkpt lat="40.95958797471833" lon="14.209284636676056"><ele>51.0</ele><time>2026-04-24T12:00:29Z</time></trkpt><trkpt lat="40.959724234483886" lon="14.209227635216099"><ele>51.0</ele><time>2026-04-24T12:00:30Z</time></trkpt><trkpt lat="40.95984801086465" lon="14.209157787660288"><ele>51.0</ele><time>2026-04-24T12:00:31Z</time></trkpt><trkpt lat="40.95996370767286" lon="14.209098140470477"><ele>51.0</ele><time>2026-04-24T12:00:32Z</time></trkpt><trkpt lat="40.960072982944475" lon="14.2090400353404"><ele>51.0</ele><time>2026-04-24T12:00:33Z</time></trkpt><trkpt lat="40.960172533277394" lon="14.208985479219146"><ele>51.166666666666664</ele><time>2026-04-24T12:00:34Z</time></trkpt><trkpt lat="40.96027054177313" lon="14.20893515099918"><ele>51.33333333333333</ele><time>2026-04-24T12:00:35Z</time></trkpt><trkpt lat="40.960358215895376" lon="14.20889121724403"><ele>51.5</ele><time>2026-04-24T12:00:36Z</time></trkpt><trkpt lat="40.96042982120167" lon="14.208854550606853"><ele>51.666666666666664</ele><time>2026-04-24T12:00:37Z</time></trkpt><trkpt lat="40.96049238761161" lon="14.208819979807513"><ele>51.83333333333333</ele><time>2026-04-24T12:00:38Z</time></trkpt><trkpt lat="40.96059009824134" lon="14.208790181635846"><ele>52.0</ele><time>2026-04-24T12:00:40Z</time></trkpt><trkpt lat="40.960581569362105" lon="14.208535375432179"><ele>51.99999999999999</ele><time>2026-04-24T12:00:43Z</time></trkpt><trkpt lat="40.96055438892762" lon="14.20844987854491"><ele>52.0</ele><time>2026-04-24T12:00:44Z</time></trkpt><trkpt lat="40.960532044596206" lon="14.20834123701325"><ele>52.0</ele><time>2026-04-24T12:00:45Z</time></trkpt><trkpt lat="40.96051306942983" lon="14.20823735697531"><ele>52.0</ele><time>2026-04-24T12:00:46Z</time></trkpt><trkpt lat="40.96049665750016" lon="14.208128065987468"><ele>51.99999999999999</ele><time>2026-04-24T12:00:47Z</time></trkpt><trkpt lat="40.96047515850842" lon="14.208015929218826"><ele>52.0</ele><time>2026-04-24T12:00:48Z</time></trkpt><trkpt lat="40.96045909864784" lon="14.207916602899006"><ele>51.99999999999999</ele><time>2026-04-24T12:00:49Z</time></trkpt><trkpt lat="40.96044509433207" lon="14.207833368892894"><ele>52.0</ele><time>2026-04-24T12:00:50Z</time></trkpt><trkpt lat="40.96045630976016" lon="14.207701727449054"><ele>52.0</ele><time>2026-04-24T12:00:52Z</time></trkpt><trkpt lat="40.96045219793157" lon="14.207582936307801"><ele>52.0</ele><time>2026-04-24T12:00:54Z</time></trkpt><trkpt lat="40.9604495253653" lon="14.207462267661588"><ele>51.99999999999999</ele><time>2026-04-24T12:00:56Z</time></trkpt><trkpt lat="40.960447212494685" lon="14.207357114683091"><ele>52.0</ele><time>2026-04-24T12:00:59Z</time></trkpt><trkpt lat="40.960429875561324" lon="14.207250249031313"><ele>52.400000000000006</ele><time>2026-04-24T12:01:02Z</time></trkpt><trkpt lat="40.960442423675126" lon="14.207120996315526"><ele>52.800000000000004</ele><time>2026-04-24T12:01:04Z</time></trkpt><trkpt lat="40.96042479148576" lon="14.206945853014266"><ele>53.2</ele><time>2026-04-24T12:01:06Z</time></trkpt><trkpt lat="40.960425301020976" lon="14.206813548214384"><ele>53.6</ele><time>2026-04-24T12:01:07Z</time></trkpt><trkpt lat="40.96041982964493" lon="14.206671229454905"><ele>54.0</ele><time>2026-04-24T12:01:08Z</time></trkpt><trkpt lat="40.960407162152976" lon="14.206535608616623"><ele>53.800000000000004</ele><time>2026-04-24T12:01:09Z</time></trkpt><trkpt lat="40.96040614521142" lon="14.206438557775034"><ele>53.60000000000001</ele><time>2026-04-24T12:01:10Z</time></trkpt><trkpt lat="40.960405697595164" lon="14.206328936141267"><ele>53.4</ele><time>2026-04-24T12:01:11Z</time></trkpt><trkpt lat="40.96040537918511" lon="14.206084728632753"><ele>53.2</ele><time>2026-04-24T12:01:13Z</time></trkpt><trkpt lat="40.96040426124603" lon="14.205980415471245"><ele>53.0</ele><time>2026-04-24T12:01:14Z</time></trkpt><trkpt lat="40.96040239870853" lon="14.205867666526503"><ele>53.00000000000001</ele><time>2026-04-24T12:01:15Z</time></trkpt><trkpt lat="40.960401299159514" lon="14.205749749438887"><ele>53.0</ele><time>2026-04-24T12:01:16Z</time></trkpt><trkpt lat="40.96040154180501" lon="14.205632753492035"><ele>53.0</ele><time>2026-04-24T12:01:17Z</time></trkpt><trkpt lat="40.96039872697973" lon="14.205518224017341"><ele>53.0</ele><time>2026-04-24T12:01:18Z</time></trkpt><trkpt lat="40.96039841396073" lon="14.205403959098117"><ele>53.00000000000001</ele><time>2026-04-24T12:01:19Z</time></trkpt><trkpt lat="40.960395880786855" lon="14.20528613409171"><ele>53.0</ele><time>2026-04-24T12:01:20Z</time></trkpt><trkpt lat="40.96039005518587" lon="14.205169849244923"><ele>53.4</ele><time>2026-04-24T12:01:21Z</time></trkpt><trkpt lat="40.96038889670256" lon="14.205047014756486"><ele>53.8</ele><time>2026-04-24T12:01:22Z</time></trkpt><trkpt lat="40.96038417452676" lon="14.204932016843737"><ele>54.2</ele><time>2026-04-24T12:01:23Z</time></trkpt><trkpt lat="40.96038281944653" lon="14.204810248696015"><ele>54.6</ele><time>2026-04-24T12:01:24Z</time></trkpt><trkpt lat="40.96038092292818" lon="14.204687430257403"><ele>55.0</ele><time>2026-04-24T12:01:25Z</time></trkpt><trkpt lat="40.960378928046936" lon="14.204562035484974"><ele>55.2</ele><time>2026-04-24T12:01:26Z</time></trkpt><trkpt lat="40.960375017237666" lon="14.204433086933301"><ele>55.4</ele><time>2026-04-24T12:01:27Z</time></trkpt><trkpt lat="40.96037179276244" lon="14.204301597665646"><ele>55.599999999999994</ele><time>2026-04-24T12:01:28Z</time></trkpt><trkpt lat="40.96036810440592" lon="14.20416535781093"><ele>55.8</ele><time>2026-04-24T12:01:29Z</time></trkpt><trkpt lat="40.960364875638426" lon="14.204025792260117"><ele>56.0</ele><time>2026-04-24T12:01:30Z</time></trkpt><trkpt lat="40.960356275171335" lon="14.203885005453003"><ele>55.599999999999994</ele><time>2026-04-24T12:01:31Z</time></trkpt><trkpt lat="40.960351126708964" lon="14.203742521889897"><ele>55.199999999999996</ele><time>2026-04-24T12:01:32Z</time></trkpt><trkpt lat="40.960353956493655" lon="14.203601500504842"><ele>54.800000000000004</ele><time>2026-04-24T12:01:33Z</time></trkpt><trkpt lat="40.96034982825526" lon="14.203458048010422"><ele>54.400000000000006</ele><time>2026-04-24T12:01:34Z</time></trkpt><trkpt lat="40.960347030951304" lon="14.203328759505986"><ele>54.0</ele><time>2026-04-24T12:01:35Z</time></trkpt><trkpt lat="40.96034507916264" lon="14.203208902963897"><ele>54.166666666666664</ele><time>2026-04-24T12:01:36Z</time></trkpt><trkpt lat="40.96034236765368" lon="14.203096737391304"><ele>54.33333333333333</ele><time>2026-04-24T12:01:37Z</time></trkpt><trkpt lat="40.96033943251024" lon="14.20298128675657"><ele>54.5</ele><time>2026-04-24T12:01:38Z</time></trkpt><trkpt lat="40.960337313016396" lon="14.202866295732639"><ele>54.666666666666664</ele><time>2026-04-24T12:01:39Z</time></trkpt><trkpt lat="40.960335594419654" lon="14.202750022964857"><ele>54.83333333333333</ele><time>2026-04-24T12:01:40Z</time></trkpt><trkpt lat="40.96033257330689" lon="14.20264069512237"><ele>55.0</ele><time>2026-04-24T12:01:41Z</time></trkpt><trkpt lat="40.96032973285196" lon="14.202544099259883"><ele>55.0</ele><time>2026-04-24T12:01:42Z</time></trkpt><trkpt lat="40.9603268087494" lon="14.202395817857157"><ele>55.0</ele><time>2026-04-24T12:01:44Z</time></trkpt><trkpt lat="40.960340708123645" lon="14.202270985475174"><ele>55.0</ele><time>2026-04-24T12:01:46Z</time></trkpt><trkpt lat="40.960390566820166" lon="14.202139952339714"><ele>55.0</ele><time>2026-04-24T12:01:48Z</time></trkpt><trkpt lat="40.96039062484746" lon="14.202009339072537"><ele>55.0</ele><time>2026-04-24T12:01:50Z</time></trkpt><trkpt lat="40.960285025594764" lon="14.201923741796124"><ele>54.8</ele><time>2026-04-24T12:01:53Z</time></trkpt><trkpt lat="40.96030098895597" lon="14.201779216261146"><ele>54.6</ele><time>2026-04-24T12:01:54Z</time></trkpt><trkpt lat="40.96029737718016" lon="14.201623965169789"><ele>54.400000000000006</ele><time>2026-04-24T12:01:56Z</time></trkpt><trkpt lat="40.96029529683494" lon="14.201526692131749"><ele>54.2</ele><time>2026-04-24T12:01:57Z</time></trkpt><trkpt lat="40.96029244793908" lon="14.201413712990158"><ele>54.0</ele><time>2026-04-24T12:01:58Z</time></trkpt><trkpt lat="40.96028964437828" lon="14.201306449432284"><ele>54.0</ele><time>2026-04-24T12:01:59Z</time></trkpt><trkpt lat="40.9602862469364" lon="14.201197335246905"><ele>54.0</ele><time>2026-04-24T12:02:00Z</time></trkpt><trkpt lat="40.96028342478869" lon="14.201086690500565"><ele>54.0</ele><time>2026-04-24T12:02:01Z</time></trkpt><trkpt lat="40.96028272728197" lon="14.200980201619865"><ele>54.0</ele><time>2026-04-24T12:02:02Z</time></trkpt><trkpt lat="40.96027986303248" lon="14.200883069834239"><ele>54.0</ele><time>2026-04-24T12:02:03Z</time></trkpt><trkpt lat="40.96027725213367" lon="14.200794679253052"><ele>54.0</ele><time>2026-04-24T12:02:04Z</time></trkpt><trkpt lat="40.96027533753201" lon="14.200707665625421"><ele>54.0</ele><time>2026-04-24T12:02:05Z</time></trkpt><trkpt lat="40.96027556462579" lon="14.200618147271818"><ele>54.0</ele><time>2026-04-24T12:02:06Z</time></trkpt><trkpt lat="40.96027588451625" lon="14.200522440748333"><ele>54.0</ele><time>2026-04-24T12:02:07Z</time></trkpt><trkpt lat="40.96027902993023" lon="14.200423872849784"><ele>54.0</ele><time>2026-04-24T12:02:08Z</time></trkpt><trkpt lat="40.96027919049584" lon="14.200320883956019"><ele>54.0</ele><time>2026-04-24T12:02:09Z</time></trkpt><trkpt lat="40.96028337416976" lon="14.200216413354019"><ele>54.0</ele><time>2026-04-24T12:02:10Z</time></trkpt><trkpt lat="40.960286903220606" lon="14.200111627451788"><ele>54.0</ele><time>2026-04-24T12:02:11Z</time></trkpt><trkpt lat="40.96029302566294" lon="14.200022871821616"><ele>54.0</ele><time>2026-04-24T12:02:12Z</time></trkpt><trkpt lat="40.9602979629009" lon="14.199884030542346"><ele>54.0</ele><time>2026-04-24T12:02:14Z</time></trkpt><trkpt lat="40.96030403659225" lon="14.199774011817544"><ele>54.0</ele><time>2026-04-24T12:02:17Z</time></trkpt><trkpt lat="40.96031012962127" lon="14.199664761863078"><ele>54.0</ele><time>2026-04-24T12:02:20Z</time></trkpt><trkpt lat="40.96032122653236" lon="14.19953834905382"><ele>54.0</ele><time>2026-04-24T12:02:22Z</time></trkpt><trkpt lat="40.96032672261216" lon="14.199365814587418"><ele>54.6</ele><time>2026-04-24T12:02:24Z</time></trkpt><trkpt lat="40.960330396086434" lon="14.199249421701467"><ele>55.2</ele><time>2026-04-24T12:02:25Z</time></trkpt><trkpt lat="40.96033713773969" lon="14.199127263411349"><ele>55.800000000000004</ele><time>2026-04-24T12:02:26Z</time></trkpt><trkpt lat="40.96034654328827" lon="14.19899930226351"><ele>56.400000000000006</ele><time>2026-04-24T12:02:27Z</time></trkpt><trkpt lat="40.960353250335665" lon="14.198860633660304"><ele>57.0</ele><time>2026-04-24T12:02:28Z</time></trkpt><trkpt lat="40.96036006834719" lon="14.198729770530974"><ele>57.2</ele><time>2026-04-24T12:02:29Z</time></trkpt><trkpt lat="40.96036689252292" lon="14.198605895626137"><ele>57.400000000000006</ele><time>2026-04-24T12:02:30Z</time></trkpt><trkpt lat="40.96037678913026" lon="14.198484795966973"><ele>57.599999999999994</ele><time>2026-04-24T12:02:31Z</time></trkpt><trkpt lat="40.96038392890141" lon="14.198362031569529"><ele>57.8</ele><time>2026-04-24T12:02:32Z</time></trkpt><trkpt lat="40.96039108465661" lon="14.198237445646438"><ele>58.0</ele><time>2026-04-24T12:02:33Z</time></trkpt><trkpt lat="40.96039937069131" lon="14.198116162680861"><ele>57.666666666666664</ele><time>2026-04-24T12:02:34Z</time></trkpt><trkpt lat="40.96040686011315" lon="14.197993817155496"><ele>57.33333333333333</ele><time>2026-04-24T12:02:35Z</time></trkpt><trkpt lat="40.960410713421254" lon="14.197875062450976"><ele>57.0</ele><time>2026-04-24T12:02:36Z</time></trkpt><trkpt lat="40.96041237542852" lon="14.197756081398655"><ele>56.66666666666667</ele><time>2026-04-24T12:02:37Z</time></trkpt><trkpt lat="40.960415374998426" lon="14.197647590724774"><ele>56.333333333333336</ele><time>2026-04-24T12:02:38Z</time></trkpt><trkpt lat="40.96041968424271" lon="14.197552318486661"><ele>56.0</ele><time>2026-04-24T12:02:39Z</time></trkpt><trkpt lat="40.96043333308948" lon="14.197392335785965"><ele>56.333333333333336</ele><time>2026-04-24T12:02:41Z</time></trkpt><trkpt lat="40.960439555205355" lon="14.197300833655087"><ele>56.66666666666667</ele><time>2026-04-24T12:02:42Z</time></trkpt><trkpt lat="40.96044123204697" lon="14.197209476444174"><ele>57.0</ele><time>2026-04-24T12:02:43Z</time></trkpt><trkpt lat="40.96044174508152" lon="14.197110381585857"><ele>57.33333333333333</ele><time>2026-04-24T12:02:44Z</time></trkpt><trkpt lat="40.96044409023721" lon="14.197008682239154"><ele>57.666666666666664</ele><time>2026-04-24T12:02:45Z</time></trkpt><trkpt lat="40.96045098479081" lon="14.196892986460815"><ele>58.0</ele><time>2026-04-24T12:02:46Z</time></trkpt><trkpt lat="40.960449937163865" lon="14.196780870005416"><ele>57.99999999999999</ele><time>2026-04-24T12:02:47Z</time></trkpt><trkpt lat="40.9604422822775" lon="14.19666344465708"><ele>58.0</ele><time>2026-04-24T12:02:48Z</time></trkpt><trkpt lat="40.96043715270354" lon="14.196545351238905"><ele>58.0</ele><time>2026-04-24T12:02:49Z</time></trkpt><trkpt lat="40.96043446100462" lon="14.196433029346775"><ele>58.0</ele><time>2026-04-24T12:02:50Z</time></trkpt><trkpt lat="40.96042973034368" lon="14.196323273310343"><ele>57.99999999999999</ele><time>2026-04-24T12:02:51Z</time></trkpt><trkpt lat="40.960423029957205" lon="14.19620535286475"><ele>58.0</ele><time>2026-04-24T12:02:52Z</time></trkpt><trkpt lat="40.960421583494664" lon="14.196080041435831"><ele>58.2</ele><time>2026-04-24T12:02:53Z</time></trkpt><trkpt lat="40.9604263617731" lon="14.195956245895573"><ele>58.4</ele><time>2026-04-24T12:02:54Z</time></trkpt><trkpt lat="40.96042552206561" lon="14.195834902297085"><ele>58.60000000000001</ele><time>2026-04-24T12:02:55Z</time></trkpt><trkpt lat="40.96042239725211" lon="14.195714691667646"><ele>58.800000000000004</ele><time>2026-04-24T12:02:56Z</time></trkpt><trkpt lat="40.960409463786334" lon="14.195594740322733"><ele>59.0</ele><time>2026-04-24T12:02:57Z</time></trkpt><trkpt lat="40.96040645519927" lon="14.195475218366486"><ele>58.833333333333336</ele><time>2026-04-24T12:02:58Z</time></trkpt><trkpt lat="40.96040009595358" lon="14.195357309315419"><ele>58.66666666666667</ele><time>2026-04-24T12:02:59Z</time></trkpt><trkpt lat="40.96039406859182" lon="14.19524291270962"><ele>58.5</ele><time>2026-04-24T12:03:00Z</time></trkpt><trkpt lat="40.9603901025039" lon="14.195125214398063"><ele>58.33333333333333</ele><time>2026-04-24T12:03:01Z</time></trkpt><trkpt lat="40.96038590900676" lon="14.195010749548048"><ele>58.166666666666664</ele><time>2026-04-24T12:03:02Z</time></trkpt><trkpt lat="40.960379840224114" lon="14.194889679760493"><ele>58.0</ele><time>2026-04-24T12:03:03Z</time></trkpt><trkpt lat="40.96037292834438" lon="14.194761761391533"><ele>57.99999999999999</ele><time>2026-04-24T12:03:04Z</time></trkpt><trkpt lat="40.960367962583945" lon="14.194636532502194"><ele>58.0</ele><time>2026-04-24T12:03:05Z</time></trkpt><trkpt lat="40.960366198042045" lon="14.194522867308686"><ele>58.0</ele><time>2026-04-24T12:03:06Z</time></trkpt><trkpt lat="40.96036123668433" lon="14.1944201956011"><ele>58.0</ele><time>2026-04-24T12:03:07Z</time></trkpt><trkpt lat="40.96035640883009" lon="14.194323428780223"><ele>57.99999999999999</ele><time>2026-04-24T12:03:08Z</time></trkpt><trkpt lat="40.96034672867997" lon="14.194225947728118"><ele>58.0</ele><time>2026-04-24T12:03:09Z</time></trkpt><trkpt lat="40.960341504933446" lon="14.194128697501823"><ele>57.99999999999999</ele><time>2026-04-24T12:03:10Z</time></trkpt><trkpt lat="40.960342974804945" lon="14.194027794180242"><ele>58.0</ele><time>2026-04-24T12:03:11Z</time></trkpt><trkpt lat="40.96036609139181" lon="14.193921607682768"><ele>58.0</ele><time>2026-04-24T12:03:12Z</time></trkpt><trkpt lat="40.96035933648393" lon="14.193808879258253"><ele>58.0</ele><time>2026-04-24T12:03:13Z</time></trkpt><trkpt lat="40.96037232511675" lon="14.193695638694912"><ele>57.99999999999999</ele><time>2026-04-24T12:03:14Z</time></trkpt><trkpt lat="40.96038227900217" lon="14.193587699045397"><ele>58.0</ele><time>2026-04-24T12:03:15Z</time></trkpt><trkpt lat="40.960398344821435" lon="14.193499741848393"><ele>58.49999999999999</ele><time>2026-04-24T12:03:16Z</time></trkpt><trkpt lat="40.960412585225725" lon="14.1933741133305"><ele>59.0</ele><time>2026-04-24T12:03:18Z</time></trkpt><trkpt lat="40.96041005035103" lon="14.193288911785928"><ele>59.5</ele><time>2026-04-24T12:05:20Z</time></trkpt><trkpt lat="40.96041168444462" lon="14.193197184276647"><ele>60.0</ele><time>2026-04-24T12:05:22Z</time></trkpt><trkpt lat="40.960437696532225" lon="14.193025702032758"><ele>60.49999999999999</ele><time>2026-04-24T12:05:24Z</time></trkpt><trkpt lat="40.96043683083967" lon="14.192935778543992"><ele>61.0</ele><time>2026-04-24T12:05:25Z</time></trkpt><trkpt lat="40.96043824299742" lon="14.19282461110283"><ele>61.199999999999996</ele><time>2026-04-24T12:05:26Z</time></trkpt><trkpt lat="40.960446552076625" lon="14.192685162005473"><ele>61.39999999999999</ele><time>2026-04-24T12:05:27Z</time></trkpt><trkpt lat="40.96045791401528" lon="14.192549941487426"><ele>61.6</ele><time>2026-04-24T12:05:28Z</time></trkpt><trkpt lat="40.96046859473512" lon="14.19240606098451"><ele>61.8</ele><time>2026-04-24T12:05:29Z</time></trkpt><trkpt lat="40.960497009674455" lon="14.19224884655356"><ele>62.0</ele><time>2026-04-24T12:05:30Z</time></trkpt><trkpt lat="40.96050869344874" lon="14.192100898159003"><ele>61.6</ele><time>2026-04-24T12:05:31Z</time></trkpt><trkpt lat="40.96052059762011" lon="14.191948571721882"><ele>61.2</ele><time>2026-04-24T12:05:32Z</time></trkpt><trkpt lat="40.9605319027005" lon="14.191803911393007"><ele>60.8</ele><time>2026-04-24T12:05:33Z</time></trkpt><trkpt lat="40.960543326747135" lon="14.191657728565671"><ele>60.4</ele><time>2026-04-24T12:05:34.001Z</time></trkpt><trkpt lat="40.96055611616141" lon="14.19151298048322"><ele>60.0</ele><time>2026-04-24T12:05:35.001Z</time></trkpt><trkpt lat="40.960573016315415" lon="14.191376173440178"><ele>60.0</ele><time>2026-04-24T12:05:36.001Z</time></trkpt><trkpt lat="40.96058918831393" lon="14.191224211306386"><ele>60.0</ele><time>2026-04-24T12:05:37.001Z</time></trkpt><trkpt lat="40.96060186282838" lon="14.19106822679994"><ele>60.0</ele><time>2026-04-24T12:05:38.001Z</time></trkpt><trkpt lat="40.96061429213895" lon="14.190919228749959"><ele>60.0</ele><time>2026-04-24T12:05:39.001Z</time></trkpt><trkpt lat="40.96062585092239" lon="14.190780665960594"><ele>60.0</ele><time>2026-04-24T12:05:40.001Z</time></trkpt><trkpt lat="40.960622005088595" lon="14.190647976716425"><ele>60.0</ele><time>2026-04-24T12:05:41.001Z</time></trkpt><trkpt lat="40.9606361606755" lon="14.190521689417375"><ele>60.0</ele><time>2026-04-24T12:05:42.001Z</time></trkpt><trkpt lat="40.96064816020653" lon="14.190396897831937"><ele>60.0</ele><time>2026-04-24T12:05:43.001Z</time></trkpt><trkpt lat="40.96066115126227" lon="14.190271871169811"><ele>60.0</ele><time>2026-04-24T12:05:44.001Z</time></trkpt><trkpt lat="40.960676058199205" lon="14.190147711081586"><ele>60.0</ele><time>2026-04-24T12:05:45.001Z</time></trkpt><trkpt lat="40.96069429007079" lon="14.19002712169662"><ele>60.0</ele><time>2026-04-24T12:05:46.001Z</time></trkpt><trkpt lat="40.96071706420646" lon="14.189908445988682"><ele>60.0</ele><time>2026-04-24T12:05:47.001Z</time></trkpt><trkpt lat="40.960742362714385" lon="14.189789952487079"><ele>60.0</ele><time>2026-04-24T12:05:48.001Z</time></trkpt><trkpt lat="40.96076642462673" lon="14.189676330292327"><ele>60.0</ele><time>2026-04-24T12:05:49.001Z</time></trkpt><trkpt lat="40.96079115708628" lon="14.189563824786857"><ele>60.0</ele><time>2026-04-24T12:05:50.001Z</time></trkpt><trkpt lat="40.96081780039172" lon="14.189448067670474"><ele>60.0</ele><time>2026-04-24T12:05:51.001Z</time></trkpt><trkpt lat="40.96084532023168" lon="14.189335967539828"><ele>60.0</ele><time>2026-04-24T12:05:52.001Z</time></trkpt><trkpt lat="40.96087465718875" lon="14.189222377628692"><ele>60.0</ele><time>2026-04-24T12:05:53.001Z</time></trkpt><trkpt lat="40.9608965388337" lon="14.189110783219657"><ele>60.0</ele><time>2026-04-24T12:05:54.001Z</time></trkpt><trkpt lat="40.960923302463414" lon="14.188992228062112"><ele>59.8</ele><time>2026-04-24T12:05:55.001Z</time></trkpt><trkpt lat="40.96095061056368" lon="14.188864028270643"><ele>59.6</ele><time>2026-04-24T12:05:56Z</time></trkpt><trkpt lat="40.960980998758245" lon="14.188727831720348"><ele>59.400000000000006</ele><time>2026-04-24T12:05:57Z</time></trkpt><trkpt lat="40.96101208776739" lon="14.188585442873327"><ele>59.2</ele><time>2026-04-24T12:05:58Z</time></trkpt><trkpt lat="40.961045750320835" lon="14.18843843405633"><ele>59.0</ele><time>2026-04-24T12:05:59Z</time></trkpt><trkpt lat="40.9610816959294" lon="14.188289404469316"><ele>58.6</ele><time>2026-04-24T12:06:00Z</time></trkpt><trkpt lat="40.961118041767904" lon="14.188146410584572"><ele>58.2</ele><time>2026-04-24T12:06:01Z</time></trkpt><trkpt lat="40.96115228524666" lon="14.188008196630317"><ele>57.800000000000004</ele><time>2026-04-24T12:06:02Z</time></trkpt><trkpt lat="40.961184279045405" lon="14.187874060162795"><ele>57.400000000000006</ele><time>2026-04-24T12:06:03Z</time></trkpt><trkpt lat="40.96121537062385" lon="14.187743376975153"><ele>57.0</ele><time>2026-04-24T12:06:04Z</time></trkpt><trkpt lat="40.96124558114514" lon="14.187621002144274"><ele>57.0</ele><time>2026-04-24T12:06:05Z</time></trkpt><trkpt lat="40.961275253701956" lon="14.187498629137652"><ele>57.0</ele><time>2026-04-24T12:06:06Z</time></trkpt><trkpt lat="40.96130315773731" lon="14.187379493990898"><ele>57.0</ele><time>2026-04-24T12:06:07Z</time></trkpt><trkpt lat="40.96132724612963" lon="14.18726832919406"><ele>57.0</ele><time>2026-04-24T12:06:08Z</time></trkpt><trkpt lat="40.96134589695796" lon="14.187169599663651"><ele>57.0</ele><time>2026-04-24T12:06:09Z</time></trkpt><trkpt lat="40.96136952305978" lon="14.187050186992025"><ele>57.0</ele><time>2026-04-24T12:06:11Z</time></trkpt><trkpt lat="40.96138564744158" lon="14.186968155687316"><ele>57.0</ele><time>2026-04-24T12:06:14Z</time></trkpt><trkpt lat="40.9612032265403" lon="14.186903183034385"><ele>57.0</ele><time>2026-04-24T12:06:27Z</time></trkpt><trkpt lat="40.9610993358941" lon="14.186902566319048"><ele>57.0</ele><time>2026-04-24T12:06:29Z</time></trkpt><trkpt lat="40.961037542253855" lon="14.186885070537288"><ele>57.0</ele><time>2026-04-24T12:06:31Z</time></trkpt><trkpt lat="40.961016669158404" lon="14.186717202658052"><ele>57.0</ele><time>2026-04-24T12:06:35Z</time></trkpt><trkpt lat="40.96100173800852" lon="14.186579809476317"><ele>57.0</ele><time>2026-04-24T12:06:37Z</time></trkpt><trkpt lat="40.960982592034" lon="14.186432947968987"><ele>57.0</ele><time>2026-04-24T12:06:39Z</time></trkpt><trkpt lat="40.96092690193818" lon="14.186351195167154"><ele>57.0</ele><time>2026-04-24T12:06:40Z</time></trkpt><trkpt lat="40.960848310172565" lon="14.186248467619194"><ele>57.0</ele><time>2026-04-24T12:06:42Z</time></trkpt><trkpt lat="40.96080416775736" lon="14.186139179801247"><ele>57.57142857142857</ele><time>2026-04-24T12:06:44Z</time></trkpt><trkpt lat="40.960755392790254" lon="14.186076335701719"><ele>58.14285714285714</ele><time>2026-04-24T12:06:47Z</time></trkpt><trkpt lat="40.96069149364245" lon="14.186040094357416"><ele>58.71428571428571</ele><time>2026-04-24T12:06:51Z</time></trkpt><trkpt lat="40.96060919404879" lon="14.186070626462799"><ele>59.28571428571428</ele><time>2026-04-24T12:06:53Z</time></trkpt><trkpt lat="40.960537999008466" lon="14.186055359867087"><ele>59.857142857142854</ele><time>2026-04-24T12:06:55Z</time></trkpt><trkpt lat="40.96047160136179" lon="14.186031767476909"><ele>60.428571428571416</ele><time>2026-04-24T12:06:57Z</time></trkpt><trkpt lat="40.960393967561025" lon="14.186021096331118"><ele>60.99999999999999</ele><time>2026-04-24T12:06:59Z</time></trkpt><trkpt lat="40.96030881191821" lon="14.186015433952308"><ele>60.99999999999999</ele><time>2026-04-24T12:07:01Z</time></trkpt><trkpt lat="40.96023610062838" lon="14.185991022990859"><ele>61.0</ele><time>2026-04-24T12:07:03Z</time></trkpt><trkpt lat="40.960163980172034" lon="14.185973587251706"><ele>61.0</ele><time>2026-04-24T12:07:05Z</time></trkpt><trkpt lat="40.96008650636766" lon="14.185959301376858"><ele>61.0</ele><time>2026-04-24T12:07:07Z</time></trkpt><trkpt lat="40.96000940114186" lon="14.185939352769037"><ele>60.99999999999999</ele><time>2026-04-24T12:07:09Z</time></trkpt><trkpt lat="40.95993278832934" lon="14.185918758361757"><ele>61.0</ele><time>2026-04-24T12:07:11Z</time></trkpt><trkpt lat="40.95985404685154" lon="14.185883175936517"><ele>60.99999999999999</ele><time>2026-04-24T12:07:13Z</time></trkpt><trkpt lat="40.959783495264546" lon="14.185852873364247"><ele>61.0</ele><time>2026-04-24T12:07:15Z</time></trkpt><trkpt lat="40.95971945490147" lon="14.18581112297988"><ele>60.99999999999999</ele><time>2026-04-24T12:07:17Z</time></trkpt><trkpt lat="40.959652916300655" lon="14.185772982974735"><ele>60.99999999999999</ele><time>2026-04-24T12:07:19Z</time></trkpt><trkpt lat="40.95960480164547" lon="14.1856907614556"><ele>61.0</ele><time>2026-04-24T12:07:21Z</time></trkpt><trkpt lat="40.959552007236944" lon="14.185635399342775"><ele>60.99999999999999</ele><time>2026-04-24T12:07:23Z</time></trkpt><trkpt lat="40.95949797605536" lon="14.185577240068186"><ele>60.99999999999999</ele><time>2026-04-24T12:07:25Z</time></trkpt><trkpt lat="40.95944384263029" lon="14.185525466668967"><ele>60.99999999999999</ele><time>2026-04-24T12:07:45Z</time></trkpt><trkpt lat="40.95938611465897" lon="14.18547256349545"><ele>61.0</ele><time>2026-04-24T12:07:52Z</time></trkpt><trkpt lat="40.95931305179102" lon="14.185409784818399"><ele>61.0</ele><time>2026-04-24T12:07:55Z</time></trkpt><trkpt lat="40.959238559210625" lon="14.18537042817426"><ele>61.0</ele><time>2026-04-24T12:07:58Z</time></trkpt><trkpt lat="40.95918319362555" lon="14.18531083553308"><ele>60.99999999999999</ele><time>2026-04-24T12:08:01Z</time></trkpt><trkpt lat="40.95910489232129" lon="14.185247017228297"><ele>61.0</ele><time>2026-04-24T12:08:05Z</time></trkpt><trkpt lat="40.95903918419551" lon="14.185182444837887"><ele>61.199999999999996</ele><time>2026-04-24T12:08:08Z</time></trkpt><trkpt lat="40.95898620973814" lon="14.18510570542691"><ele>61.39999999999999</ele><time>2026-04-24T12:08:11Z</time></trkpt><trkpt lat="40.95894158909469" lon="14.18504004974408"><ele>61.6</ele><time>2026-04-24T12:08:13Z</time></trkpt><trkpt lat="40.95888663117238" lon="14.184955002109925"><ele>61.8</ele><time>2026-04-24T12:08:16Z</time></trkpt><trkpt lat="40.95884246015107" lon="14.18487649100319"><ele>62.0</ele><time>2026-04-24T12:08:19Z</time></trkpt><trkpt lat="40.95864348740558" lon="14.184630968670891"><ele>62.2</ele><time>2026-04-24T12:08:34.669Z</time></trkpt><trkpt lat="40.95871651548981" lon="14.184819124652245"><ele>62.400000000000006</ele><time>2026-04-24T12:08:39.051Z</time></trkpt><trkpt lat="40.958720329255755" lon="14.184704879312017"><ele>62.599999999999994</ele><time>2026-04-24T12:08:42.246Z</time></trkpt><trkpt lat="40.95872594513088" lon="14.184606056673625"><ele>62.8</ele><time>2026-04-24T12:08:44Z</time></trkpt><trkpt lat="40.958658889570806" lon="14.184555446496855"><ele>63.0</ele><time>2026-04-24T12:08:47.001Z</time></trkpt><trkpt lat="40.95861709852819" lon="14.184491763125877"><ele>63.0</ele><time>2026-04-24T12:08:49.001Z</time></trkpt><trkpt lat="40.95857343727748" lon="14.184425955942817"><ele>63.0</ele><time>2026-04-24T12:08:52.001Z</time></trkpt><trkpt lat="40.95852665812772" lon="14.184356618822033"><ele>63.0</ele><time>2026-04-24T12:08:54.001Z</time></trkpt><trkpt lat="40.958472236318975" lon="14.184269315807168"><ele>63.0</ele><time>2026-04-24T12:08:57.001Z</time></trkpt><trkpt lat="40.958431044588906" lon="14.184203237043826"><ele>63.0</ele><time>2026-04-24T12:08:59.001Z</time></trkpt><trkpt lat="40.95836730926775" lon="14.184132712883148"><ele>63.0</ele><time>2026-04-24T12:09:02.001Z</time></trkpt><trkpt lat="40.95832512240276" lon="14.18404460163895"><ele>63.0</ele><time>2026-04-24T12:09:05.001Z</time></trkpt><trkpt lat="40.958287457296436" lon="14.18397754911148"><ele>63.333333333333336</ele><time>2026-04-24T12:09:07.001Z</time></trkpt><trkpt lat="40.9582434422086" lon="14.183914599631914"><ele>63.66666666666667</ele><time>2026-04-24T12:09:09Z</time></trkpt><trkpt lat="40.95817908341545" lon="14.183791241412013"><ele>64.0</ele><time>2026-04-24T12:09:12Z</time></trkpt><trkpt lat="40.95813580767403" lon="14.183708760217902"><ele>64.33333333333334</ele><time>2026-04-24T12:09:14Z</time></trkpt><trkpt lat="40.95810231222648" lon="14.18363780689624"><ele>64.66666666666667</ele><time>2026-04-24T12:09:17Z</time></trkpt><trkpt lat="40.958047197188215" lon="14.183519733529463"><ele>65.0</ele><time>2026-04-24T12:09:19Z</time></trkpt><trkpt lat="40.958005992035666" lon="14.183431286224204"><ele>65.0</ele><time>2026-04-24T12:09:21Z</time></trkpt><trkpt lat="40.95793566530074" lon="14.183342264554675"><ele>65.0</ele><time>2026-04-24T12:09:24Z</time></trkpt><trkpt lat="40.95790109435091" lon="14.183264179837174"><ele>65.0</ele><time>2026-04-24T12:09:26Z</time></trkpt><trkpt lat="40.95784730134293" lon="14.183188872346632"><ele>65.0</ele><time>2026-04-24T12:09:36Z</time></trkpt><trkpt lat="40.95779791146446" lon="14.183134551876012"><ele>65.0</ele><time>2026-04-24T12:09:40Z</time></trkpt><trkpt lat="40.957755167782395" lon="14.183070673461275"><ele>65.0</ele><time>2026-04-24T12:09:43Z</time></trkpt><trkpt lat="40.9576957033604" lon="14.182978999898118"><ele>65.0</ele><time>2026-04-24T12:09:46Z</time></trkpt><trkpt lat="40.95766644699688" lon="14.182903490588652"><ele>65.0</ele><time>2026-04-24T12:09:49Z</time></trkpt><trkpt lat="40.95762320714701" lon="14.182811447559857"><ele>65.0</ele><time>2026-04-24T12:10:04Z</time></trkpt><trkpt lat="40.957575578325915" lon="14.182725380683438"><ele>65.0</ele><time>2026-04-24T12:10:07Z</time></trkpt><trkpt lat="40.957523020995" lon="14.182645581665346"><ele>65.0</ele><time>2026-04-24T12:10:10Z</time></trkpt><trkpt lat="40.95746281493163" lon="14.182572635874694"><ele>65.0</ele><time>2026-04-24T12:10:12Z</time></trkpt><trkpt lat="40.957389319123735" lon="14.182492368568253"><ele>65.0</ele><time>2026-04-24T12:10:15Z</time></trkpt><trkpt lat="40.95732189869138" lon="14.182429914212259"><ele>65.0</ele><time>2026-04-24T12:10:18Z</time></trkpt><trkpt lat="40.957261468731225" lon="14.182374648339241"><ele>65.0</ele><time>2026-04-24T12:10:23Z</time></trkpt><trkpt lat="40.957196898086806" lon="14.182303499315516"><ele>65.0</ele><time>2026-04-24T12:10:27Z</time></trkpt><trkpt lat="40.957142245806345" lon="14.182214008894213"><ele>65.0</ele><time>2026-04-24T12:10:30Z</time></trkpt><trkpt lat="40.95708302222949" lon="14.18212008909236"><ele>65.0</ele><time>2026-04-24T12:10:34Z</time></trkpt><trkpt lat="40.95702897925792" lon="14.182043906959432"><ele>65.28571428571429</ele><time>2026-04-24T12:10:37Z</time></trkpt><trkpt lat="40.95697274243308" lon="14.181964634162474"><ele>65.57142857142857</ele><time>2026-04-24T12:10:40Z</time></trkpt><trkpt lat="40.95691363114649" lon="14.181921504766239"><ele>65.85714285714286</ele><time>2026-04-24T12:10:42Z</time></trkpt><trkpt lat="40.95686147099551" lon="14.181872889487273"><ele>66.14285714285714</ele><time>2026-04-24T12:10:45Z</time></trkpt><trkpt lat="40.95678840270823" lon="14.181808884075087"><ele>66.42857142857143</ele><time>2026-04-24T12:10:48Z</time></trkpt><trkpt lat="40.95672066165972" lon="14.181761769942165"><ele>66.71428571428572</ele><time>2026-04-24T12:10:50.999Z</time></trkpt><trkpt lat="40.956663735574715" lon="14.181707616182088"><ele>67.0</ele><time>2026-04-24T12:10:53.999Z</time></trkpt><trkpt lat="40.95661036835739" lon="14.181659903915168"><ele>67.0</ele><time>2026-04-24T12:10:55.999Z</time></trkpt><trkpt lat="40.95655193865507" lon="14.181610500703385"><ele>67.0</ele><time>2026-04-24T12:10:57.999Z</time></trkpt><trkpt lat="40.95649563618406" lon="14.181569132243448"><ele>67.0</ele><time>2026-04-24T12:10:59.999Z</time></trkpt><trkpt lat="40.956433836718126" lon="14.18152778073303"><ele>67.0</ele><time>2026-04-24T12:11:02.999Z</time></trkpt><trkpt lat="40.95635471674087" lon="14.181469218524128"><ele>67.0</ele><time>2026-04-24T12:11:05.999Z</time></trkpt><trkpt lat="40.95628002531837" lon="14.181444344311135"><ele>67.0</ele><time>2026-04-24T12:11:08.999Z</time></trkpt><trkpt lat="40.95619746559309" lon="14.181397138524122"><ele>67.0</ele><time>2026-04-24T12:11:11.999Z</time></trkpt><trkpt lat="40.956099684639966" lon="14.181390740891041"><ele>67.0</ele><time>2026-04-24T12:11:14.999Z</time></trkpt><trkpt lat="40.9560189176011" lon="14.181335992272967"><ele>67.0</ele><time>2026-04-24T12:11:17.999Z</time></trkpt><trkpt lat="40.955944579983075" lon="14.181319004235062"><ele>67.0</ele><time>2026-04-24T12:11:19.999Z</time></trkpt><trkpt lat="40.95585443723538" lon="14.181274141987476"><ele>67.0</ele><time>2026-04-24T12:11:21.999Z</time></trkpt><trkpt lat="40.95577350023628" lon="14.18126056824093"><ele>67.0</ele><time>2026-04-24T12:11:23.999Z</time></trkpt><trkpt lat="40.95567046457554" lon="14.181233149488602"><ele>68.0</ele><time>2026-04-24T12:11:27.999Z</time></trkpt><trkpt lat="40.95559550548609" lon="14.181192720440992"><ele>69.0</ele><time>2026-04-24T12:11:33.019Z</time></trkpt><trkpt lat="40.95552378369437" lon="14.18116622028085"><ele>70.0</ele><time>2026-04-24T12:11:35.999Z</time></trkpt><trkpt lat="40.9554422665753" lon="14.181147669313122"><ele>71.0</ele><time>2026-04-24T12:11:37.999Z</time></trkpt><trkpt lat="40.95520980384457" lon="14.181094995629676"><ele>71.0</ele><time>2026-04-24T12:11:39.999Z</time></trkpt><trkpt lat="40.955123732589705" lon="14.181064019529028"><ele>71.0</ele><time>2026-04-24T12:11:41.999Z</time></trkpt><trkpt lat="40.955018969077535" lon="14.18106961985561"><ele>71.0</ele><time>2026-04-24T12:11:44.999Z</time></trkpt><trkpt lat="40.95494941012015" lon="14.181051032612375"><ele>71.0</ele><time>2026-04-24T12:11:46.999Z</time></trkpt><trkpt lat="40.95485980725885" lon="14.18101829246425"><ele>71.0</ele><time>2026-04-24T12:11:49.999Z</time></trkpt><trkpt lat="40.95478963334391" lon="14.180996017600563"><ele>71.0</ele><time>2026-04-24T12:11:51.999Z</time></trkpt><trkpt lat="40.95471598629481" lon="14.180978425293466"><ele>70.83333333333334</ele><time>2026-04-24T12:11:53.999Z</time></trkpt><trkpt lat="40.95464852609875" lon="14.180954304646017"><ele>70.66666666666667</ele><time>2026-04-24T12:11:55.999Z</time></trkpt><trkpt lat="40.95455753295848" lon="14.180909047121212"><ele>70.5</ele><time>2026-04-24T12:11:57.999Z</time></trkpt><trkpt lat="40.954472375222245" lon="14.180875664833001"><ele>70.33333333333333</ele><time>2026-04-24T12:11:59.999Z</time></trkpt><trkpt lat="40.954396862654036" lon="14.180849735114403"><ele>70.16666666666666</ele><time>2026-04-24T12:12:01.999Z</time></trkpt><trkpt lat="40.95430814178155" lon="14.180837081938167"><ele>70.0</ele><time>2026-04-24T12:12:03.999Z</time></trkpt><trkpt lat="40.95422589815888" lon="14.180805854849142"><ele>70.2</ele><time>2026-04-24T12:12:05.999Z</time></trkpt><trkpt lat="40.95413342821213" lon="14.180775920039162"><ele>70.4</ele><time>2026-04-24T12:12:07.999Z</time></trkpt><trkpt lat="40.9540466827717" lon="14.18074353546629"><ele>70.6</ele><time>2026-04-24T12:12:09.999Z</time></trkpt><trkpt lat="40.953955627213666" lon="14.180716720635617"><ele>70.8</ele><time>2026-04-24T12:12:11.999Z</time></trkpt><trkpt lat="40.95386169173627" lon="14.180675050722678"><ele>71.0</ele><time>2026-04-24T12:12:13.999Z</time></trkpt><trkpt lat="40.953765685095746" lon="14.18063902329279"><ele>71.0</ele><time>2026-04-24T12:12:16.999Z</time></trkpt><trkpt lat="40.95369080678031" lon="14.180604681479384"><ele>71.0</ele><time>2026-04-24T12:12:19.999Z</time></trkpt><trkpt lat="40.95361353055306" lon="14.180554963897752"><ele>71.0</ele><time>2026-04-24T12:12:22.999Z</time></trkpt><trkpt lat="40.953519838046375" lon="14.180546721976873"><ele>71.0</ele><time>2026-04-24T12:12:25.999Z</time></trkpt><trkpt lat="40.95349047998083" lon="14.18077376147249"><ele>71.0</ele><time>2026-04-24T12:12:58Z</time></trkpt><trkpt lat="40.95349180609274" lon="14.180868714358683"><ele>71.0</ele><time>2026-04-24T12:13:00Z</time></trkpt><trkpt lat="40.953476272731876" lon="14.180997418085566"><ele>71.0</ele><time>2026-04-24T12:13:02Z</time></trkpt><trkpt lat="40.953479891129255" lon="14.181144149285277"><ele>71.0</ele><time>2026-04-24T12:13:04Z</time></trkpt><trkpt lat="40.95347033725669" lon="14.181296983011409"><ele>71.0</ele><time>2026-04-24T12:13:06Z</time></trkpt><trkpt lat="40.95346134787132" lon="14.181445921979346"><ele>71.0</ele><time>2026-04-24T12:13:08Z</time></trkpt><trkpt lat="40.95345591610209" lon="14.181572948794493"><ele>71.0</ele><time>2026-04-24T12:13:10Z</time></trkpt><trkpt lat="40.95346166714109" lon="14.181671345113887"><ele>71.0</ele><time>2026-04-24T12:13:12Z</time></trkpt><trkpt lat="40.95345051547053" lon="14.181760155808835"><ele>71.0</ele><time>2026-04-24T12:13:14Z</time></trkpt><trkpt lat="40.95344961930278" lon="14.181846496903749"><ele>71.0</ele><time>2026-04-24T12:13:17Z</time></trkpt><trkpt lat="40.953447121083286" lon="14.181733175193019"><ele>71.0</ele><time>2026-04-24T12:13:37Z</time></trkpt><trkpt lat="40.95345286684126" lon="14.181622231576524"><ele>71.0</ele><time>2026-04-24T12:13:39Z</time></trkpt><trkpt lat="40.95345620055673" lon="14.18147035449845"><ele>71.0</ele><time>2026-04-24T12:13:41Z</time></trkpt><trkpt lat="40.95346137096604" lon="14.181385446585903"><ele>71.0</ele><time>2026-04-24T12:13:42Z</time></trkpt><trkpt lat="40.95346466928989" lon="14.18129354146151"><ele>71.0</ele><time>2026-04-24T12:13:43Z</time></trkpt><trkpt lat="40.95346826334646" lon="14.181201678904978"><ele>71.0</ele><time>2026-04-24T12:13:44Z</time></trkpt><trkpt lat="40.95347258315053" lon="14.181111935312043"><ele>71.0</ele><time>2026-04-24T12:13:45Z</time></trkpt><trkpt lat="40.95347849862386" lon="14.181021761522375"><ele>71.0</ele><time>2026-04-24T12:13:46Z</time></trkpt><trkpt lat="40.95348500522032" lon="14.180934421966505"><ele>71.0</ele><time>2026-04-24T12:13:47Z</time></trkpt><trkpt lat="40.95348610310966" lon="14.180782939440533"><ele>71.16666666666667</ele><time>2026-04-24T12:13:49Z</time></trkpt><trkpt lat="40.95349256228022" lon="14.180666859829735"><ele>71.33333333333334</ele><time>2026-04-24T12:13:51Z</time></trkpt><trkpt lat="40.9534812555816" lon="14.180578054161284"><ele>71.5</ele><time>2026-04-24T12:13:55Z</time></trkpt><trkpt lat="40.9534930176187" lon="14.18048628820627"><ele>71.66666666666667</ele><time>2026-04-24T12:14:07Z</time></trkpt><trkpt lat="40.953501653382276" lon="14.180377664948333"><ele>71.83333333333333</ele><time>2026-04-24T12:14:10Z</time></trkpt><trkpt lat="40.953499865332184" lon="14.180253427800396"><ele>72.0</ele><time>2026-04-24T12:14:12.999Z</time></trkpt><trkpt lat="40.95350531305859" lon="14.180164456187082"><ele>72.0</ele><time>2026-04-24T12:14:14.999Z</time></trkpt><trkpt lat="40.953459582526996" lon="14.180453966292372"><ele>72.0</ele><time>2026-04-24T12:14:15.999Z</time></trkpt><trkpt lat="40.953527293456844" lon="14.179871280500407"><ele>72.14285714285715</ele><time>2026-04-24T12:14:18.999Z</time></trkpt><trkpt lat="40.953533776144745" lon="14.179748270998054"><ele>72.28571428571429</ele><time>2026-04-24T12:14:20.999Z</time></trkpt><trkpt lat="40.95352228989412" lon="14.179653933030648"><ele>72.42857142857143</ele><time>2026-04-24T12:14:22.999Z</time></trkpt><trkpt lat="40.95354651382749" lon="14.179561876459166"><ele>72.57142857142858</ele><time>2026-04-24T12:14:26.999Z</time></trkpt><trkpt lat="40.9536116923289" lon="14.179530043855983"><ele>72.71428571428572</ele><time>2026-04-24T12:14:35.999Z</time></trkpt><trkpt lat="40.953677872736336" lon="14.17954593168243"><ele>72.85714285714286</ele><time>2026-04-24T12:14:37.999Z</time></trkpt><trkpt lat="40.953741342304525" lon="14.179559685097127"><ele>73.0</ele><time>2026-04-24T12:14:39.999Z</time></trkpt><trkpt lat="40.95382251689638" lon="14.179579031442218"><ele>73.0</ele><time>2026-04-24T12:14:41.999Z</time></trkpt><trkpt lat="40.95389350634077" lon="14.179531425033533"><ele>73.0</ele><time>2026-04-24T12:14:44.999Z</time></trkpt><trkpt lat="40.95391261135089" lon="14.179444958812303"><ele>73.0</ele><time>2026-04-24T12:14:46.999Z</time></trkpt><trkpt lat="40.953904055155924" lon="14.179327532995101"><ele>73.0</ele><time>2026-04-24T12:14:48.999Z</time></trkpt><trkpt lat="40.953912195435215" lon="14.179195962695355"><ele>73.0</ele><time>2026-04-24T12:14:50.999Z</time></trkpt><trkpt lat="40.9539261844192" lon="14.179044659487685"><ele>73.0</ele><time>2026-04-24T12:14:52.999Z</time></trkpt><trkpt lat="40.95392919420189" lon="14.178958898435027"><ele>73.0</ele><time>2026-04-24T12:14:53.999Z</time></trkpt><trkpt lat="40.95393337185602" lon="14.178850293361561"><ele>73.0</ele><time>2026-04-24T12:14:54.999Z</time></trkpt><trkpt lat="40.95393666626628" lon="14.17874384040181"><ele>73.0</ele><time>2026-04-24T12:14:55.999Z</time></trkpt><trkpt lat="40.95394215279248" lon="14.178639487412608"><ele>73.0</ele><time>2026-04-24T12:14:56.999Z</time></trkpt><trkpt lat="40.953949237595644" lon="14.178541247742142"><ele>73.0</ele><time>2026-04-24T12:14:57.999Z</time></trkpt><trkpt lat="40.95395646254802" lon="14.178437036222958"><ele>73.0</ele><time>2026-04-24T12:14:58.999Z</time></trkpt><trkpt lat="40.95396446103019" lon="14.178334762426312"><ele>73.0</ele><time>2026-04-24T12:14:59.999Z</time></trkpt><trkpt lat="40.953971755546846" lon="14.178231147200819"><ele>73.0</ele><time>2026-04-24T12:15:00.999Z</time></trkpt><trkpt lat="40.95397577893853" lon="14.178131436768176"><ele>73.0</ele><time>2026-04-24T12:15:01.999Z</time></trkpt><trkpt lat="40.95397889559269" lon="14.178043448485502"><ele>73.0</ele><time>2026-04-24T12:15:03Z</time></trkpt><trkpt lat="40.95398056351588" lon="14.177954463890277"><ele>73.0</ele><time>2026-04-24T12:15:04Z</time></trkpt><trkpt lat="40.95398488214897" lon="14.177864425235759"><ele>73.0</ele><time>2026-04-24T12:15:05Z</time></trkpt><trkpt lat="40.95399057900071" lon="14.177778256467866"><ele>72.83333333333333</ele><time>2026-04-24T12:15:06Z</time></trkpt><trkpt lat="40.95399372249343" lon="14.177687210244345"><ele>72.66666666666666</ele><time>2026-04-24T12:15:07Z</time></trkpt><trkpt lat="40.95399622861181" lon="14.177591169005934"><ele>72.5</ele><time>2026-04-24T12:15:08Z</time></trkpt><trkpt lat="40.953996274432605" lon="14.177499810135979"><ele>72.33333333333333</ele><time>2026-04-24T12:15:09Z</time></trkpt><trkpt lat="40.95400286415065" lon="14.17732903412339"><ele>72.16666666666667</ele><time>2026-04-24T12:15:11Z</time></trkpt><trkpt lat="40.954007172966854" lon="14.177244824056288"><ele>72.0</ele><time>2026-04-24T12:15:12Z</time></trkpt><trkpt lat="40.95401129016486" lon="14.177158497320443"><ele>72.0</ele><time>2026-04-24T12:15:13Z</time></trkpt><trkpt lat="40.954017645752806" lon="14.177064013826271"><ele>72.0</ele><time>2026-04-24T12:15:14Z</time></trkpt><trkpt lat="40.95402325218594" lon="14.176973919370681"><ele>72.0</ele><time>2026-04-24T12:15:15Z</time></trkpt><trkpt lat="40.95403751864929" lon="14.176835333538312"><ele>72.0</ele><time>2026-04-24T12:15:17Z</time></trkpt><trkpt lat="40.95403960875949" lon="14.176744176911852"><ele>72.0</ele><time>2026-04-24T12:15:20Z</time></trkpt><trkpt lat="40.95398293187772" lon="14.176690497448876"><ele>72.0</ele><time>2026-04-24T12:15:23Z</time></trkpt><trkpt lat="40.95390105653705" lon="14.176674181829384"><ele>72.0</ele><time>2026-04-24T12:15:25Z</time></trkpt><trkpt lat="40.953864531612446" lon="14.176605226094553"><ele>72.0</ele><time>2026-04-24T12:15:26Z</time></trkpt><trkpt lat="40.95379808736792" lon="14.17660522609461"><ele>72.0</ele><time>2026-04-24T12:15:28Z</time></trkpt><trkpt lat="40.953724934081315" lon="14.176605226095505"><ele>72.0</ele><time>2026-04-24T12:15:31Z</time></trkpt><trkpt lat="40.95375169465223" lon="14.176505249530855"><ele>72.0</ele><time>2026-04-24T12:15:34Z</time></trkpt><trkpt lat="40.953759106757424" lon="14.176380709465963"><ele>72.0</ele><time>2026-04-24T12:15:36Z</time></trkpt><trkpt lat="40.95376630316901" lon="14.176240152713957"><ele>72.0</ele><time>2026-04-24T12:15:38Z</time></trkpt><trkpt lat="40.953761400410905" lon="14.176077613140185"><ele>72.0</ele><time>2026-04-24T12:15:40Z</time></trkpt><trkpt lat="40.95377916444822" lon="14.175990767950053"><ele>72.0</ele><time>2026-04-24T12:15:41Z</time></trkpt><trkpt lat="40.953768397656184" lon="14.175905456208394"><ele>72.0</ele><time>2026-04-24T12:15:42Z</time></trkpt><trkpt lat="40.953772214748454" lon="14.175810757770678"><ele>72.0</ele><time>2026-04-24T12:15:43Z</time></trkpt><trkpt lat="40.95377787659722" lon="14.175716259657978"><ele>72.0</ele><time>2026-04-24T12:15:44Z</time></trkpt><trkpt lat="40.95378273044442" lon="14.175619184165459"><ele>71.66666666666667</ele><time>2026-04-24T12:15:45Z</time></trkpt><trkpt lat="40.95380229420247" lon="14.175535435551824"><ele>71.33333333333333</ele><time>2026-04-24T12:15:46Z</time></trkpt><trkpt lat="40.95379024088878" lon="14.17545024022981"><ele>71.0</ele><time>2026-04-24T12:15:47Z</time></trkpt><trkpt lat="40.95379766930696" lon="14.175356461492685"><ele>70.66666666666666</ele><time>2026-04-24T12:15:48Z</time></trkpt><trkpt lat="40.95380439501212" lon="14.17525973105716"><ele>70.33333333333333</ele><time>2026-04-24T12:15:49Z</time></trkpt><trkpt lat="40.95380693985555" lon="14.175166548731104"><ele>70.0</ele><time>2026-04-24T12:15:50Z</time></trkpt><trkpt lat="40.95381535856082" lon="14.175004886774026"><ele>70.0</ele><time>2026-04-24T12:15:52Z</time></trkpt><trkpt lat="40.95382270739902" lon="14.17484228580108"><ele>70.0</ele><time>2026-04-24T12:15:54Z</time></trkpt><trkpt lat="40.95382656591845" lon="14.174756520073348"><ele>70.0</ele><time>2026-04-24T12:15:55Z</time></trkpt><trkpt lat="40.95384769074903" lon="14.174673906155157"><ele>70.0</ele><time>2026-04-24T12:15:56Z</time></trkpt><trkpt lat="40.95386000111269" lon="14.174517492263606"><ele>70.0</ele><time>2026-04-24T12:15:58Z</time></trkpt><trkpt lat="40.953851107348534" lon="14.174368746310016"><ele>70.0</ele><time>2026-04-24T12:16:00Z</time></trkpt><trkpt lat="40.953856761530346" lon="14.174206020493623"><ele>70.0</ele><time>2026-04-24T12:16:02Z</time></trkpt><trkpt lat="40.95388039831164" lon="14.17406463299688"><ele>70.0</ele><time>2026-04-24T12:16:04Z</time></trkpt><trkpt lat="40.953873497154916" lon="14.173962181356892"><ele>70.0</ele><time>2026-04-24T12:16:05Z</time></trkpt><trkpt lat="40.953879478880175" lon="14.173874073148603"><ele>70.0</ele><time>2026-04-24T12:16:06Z</time></trkpt><trkpt lat="40.95388377912696" lon="14.173727446920553"><ele>69.83333333333333</ele><time>2026-04-24T12:16:08Z</time></trkpt><trkpt lat="40.953908257405196" lon="14.173562301055476"><ele>69.66666666666666</ele><time>2026-04-24T12:16:10Z</time></trkpt><trkpt lat="40.95391915069145" lon="14.17347696605969"><ele>69.5</ele><time>2026-04-24T12:16:11Z</time></trkpt><trkpt lat="40.95393266760271" lon="14.173384578281864"><ele>69.33333333333333</ele><time>2026-04-24T12:16:12Z</time></trkpt><trkpt lat="40.9539379146017" lon="14.173289304648758"><ele>69.16666666666667</ele><time>2026-04-24T12:16:13Z</time></trkpt><trkpt lat="40.95394671723938" lon="14.173191766617595"><ele>69.0</ele><time>2026-04-24T12:16:14Z</time></trkpt><trkpt lat="40.95394939346918" lon="14.173101882665417"><ele>69.33333333333333</ele><time>2026-04-24T12:16:15Z</time></trkpt><trkpt lat="40.953947666577825" lon="14.173003079039466"><ele>69.66666666666667</ele><time>2026-04-24T12:16:16Z</time></trkpt><trkpt lat="40.9539568902229" lon="14.172905197639466"><ele>70.0</ele><time>2026-04-24T12:16:17Z</time></trkpt><trkpt lat="40.953958192046976" lon="14.172806612535947"><ele>70.33333333333334</ele><time>2026-04-24T12:16:18Z</time></trkpt><trkpt lat="40.95396741496374" lon="14.17271614189899"><ele>70.66666666666667</ele><time>2026-04-24T12:16:19Z</time></trkpt><trkpt lat="40.9539721203209" lon="14.172561175507814"><ele>71.0</ele><time>2026-04-24T12:16:21Z</time></trkpt><trkpt lat="40.95397571864051" lon="14.172398828170966"><ele>71.0</ele><time>2026-04-24T12:16:23Z</time></trkpt><trkpt lat="40.95398753167847" lon="14.172261117302744"><ele>71.0</ele><time>2026-04-24T12:16:25Z</time></trkpt><trkpt lat="40.95399461147519" lon="14.17215137091209"><ele>71.0</ele><time>2026-04-24T12:16:27Z</time></trkpt><trkpt lat="40.95398776715251" lon="14.172062880714714"><ele>71.0</ele><time>2026-04-24T12:16:29Z</time></trkpt><trkpt lat="40.953975458182846" lon="14.171978399342263"><ele>71.0</ele><time>2026-04-24T12:16:37Z</time></trkpt><trkpt lat="40.95397866654499" lon="14.172090319650122"><ele>71.0</ele><time>2026-04-24T12:16:41Z</time></trkpt><trkpt lat="40.953663572708344" lon="14.1722484362495"><ele>71.0</ele><time>2026-04-24T12:16:43Z</time></trkpt><trkpt lat="40.95359136454067" lon="14.172329946679406"><ele>71.0</ele><time>2026-04-24T12:16:44Z</time></trkpt><trkpt lat="40.9535287910544" lon="14.172394835678725"><ele>71.0</ele><time>2026-04-24T12:16:45Z</time></trkpt><trkpt lat="40.953466919897814" lon="14.172454958708654"><ele>71.0</ele><time>2026-04-24T12:16:46Z</time></trkpt><trkpt lat="40.953413057247545" lon="14.17250153123963"><ele>71.0</ele><time>2026-04-24T12:16:47Z</time></trkpt><trkpt lat="40.95336036210981" lon="14.172551274037843"><ele>71.0</ele><time>2026-04-24T12:16:48Z</time></trkpt><trkpt lat="40.95330425570379" lon="14.17260180584544"><ele>71.0</ele><time>2026-04-24T12:16:49Z</time></trkpt><trkpt lat="40.95324858076315" lon="14.172645793625161"><ele>71.33333333333334</ele><time>2026-04-24T12:16:50Z</time></trkpt><trkpt lat="40.953191136361184" lon="14.172687029199148"><ele>71.66666666666667</ele><time>2026-04-24T12:16:51Z</time></trkpt><trkpt lat="40.953072617993485" lon="14.17273114114831"><ele>72.0</ele><time>2026-04-24T12:16:53Z</time></trkpt><trkpt lat="40.953005053748676" lon="14.172758215293149"><ele>72.33333333333333</ele><time>2026-04-24T12:16:54Z</time></trkpt><trkpt lat="40.95293386790047" lon="14.172781980982831"><ele>72.66666666666666</ele><time>2026-04-24T12:16:55Z</time></trkpt><trkpt lat="40.952860607057055" lon="14.172795920113565"><ele>73.0</ele><time>2026-04-24T12:16:56Z</time></trkpt><trkpt lat="40.95278453090301" lon="14.172824484937772"><ele>73.0</ele><time>2026-04-24T12:16:57Z</time></trkpt><trkpt lat="40.95270959462395" lon="14.172803706308235"><ele>73.0</ele><time>2026-04-24T12:16:58Z</time></trkpt><trkpt lat="40.95262457871603" lon="14.172799587753099"><ele>73.0</ele><time>2026-04-24T12:16:59Z</time></trkpt><trkpt lat="40.952532147146464" lon="14.17281378967678"><ele>73.0</ele><time>2026-04-24T12:17:00Z</time></trkpt><trkpt lat="40.95243079138368" lon="14.172810137681962"><ele>73.0</ele><time>2026-04-24T12:17:01Z</time></trkpt><trkpt lat="40.952326105794505" lon="14.17280393313587"><ele>73.16666666666666</ele><time>2026-04-24T12:17:02Z</time></trkpt><trkpt lat="40.952224719659455" lon="14.17280042339853"><ele>73.33333333333333</ele><time>2026-04-24T12:17:03Z</time></trkpt><trkpt lat="40.95214260703963" lon="14.172791937089517"><ele>73.5</ele><time>2026-04-24T12:17:04Z</time></trkpt><trkpt lat="40.95207872325203" lon="14.172795102623821"><ele>73.66666666666667</ele><time>2026-04-24T12:17:05Z</time></trkpt><trkpt lat="40.95200786275532" lon="14.172783267374488"><ele>73.83333333333334</ele><time>2026-04-24T12:17:06.999Z</time></trkpt><trkpt lat="40.95196048368958" lon="14.172726852809886"><ele>74.0</ele><time>2026-04-24T12:17:08.999Z</time></trkpt><trkpt lat="40.95204446900687" lon="14.17263737938135"><ele>74.0</ele><time>2026-04-24T12:17:16.999Z</time></trkpt><trkpt lat="40.95210983916582" lon="14.172624785247764"><ele>74.0</ele><time>2026-04-24T12:17:17.999Z</time></trkpt><trkpt lat="40.95217365035099" lon="14.172570923005852"><ele>74.0</ele><time>2026-04-24T12:17:18.999Z</time></trkpt><trkpt lat="40.95222985628531" lon="14.172510906616221"><ele>74.0</ele><time>2026-04-24T12:17:19.999Z</time></trkpt><trkpt lat="40.95228122639174" lon="14.17244969109417"><ele>74.0</ele><time>2026-04-24T12:17:20.999Z</time></trkpt><trkpt lat="40.95233922493231" lon="14.172390887089596"><ele>74.0</ele><time>2026-04-24T12:17:21.999Z</time></trkpt><trkpt lat="40.952389430491266" lon="14.172339859509496"><ele>74.0</ele><time>2026-04-24T12:17:22.999Z</time></trkpt><trkpt lat="40.95245787796851" lon="14.172270248860448"><ele>74.0</ele><time>2026-04-24T12:17:24.999Z</time></trkpt><trkpt lat="40.95252327764934" lon="14.17227331614261"><ele>74.0</ele><time>2026-04-24T12:17:29.999Z</time></trkpt><trkpt lat="40.952466200399094" lon="14.17222425407805"><ele>74.0</ele><time>2026-04-24T12:17:37.999Z</time></trkpt><trkpt lat="40.952129806283935" lon="14.172544027809908"><ele>74.0</ele><time>2026-04-24T12:17:45Z</time></trkpt><trkpt lat="40.95202250666232" lon="14.172588895734032"><ele>74.0</ele><time>2026-04-24T12:17:47Z</time></trkpt><trkpt lat="40.95190382055677" lon="14.172589532256644"><ele>74.0</ele><time>2026-04-24T12:17:49Z</time></trkpt><trkpt lat="40.95179510989347" lon="14.172618525794494"><ele>74.0</ele><time>2026-04-24T12:17:51Z</time></trkpt><trkpt lat="40.95174714768588" lon="14.172674432336189"><ele>74.0</ele><time>2026-04-24T12:17:53Z</time></trkpt><trkpt lat="40.95167289465229" lon="14.172565550178733"><ele>74.14285714285714</ele><time>2026-04-24T12:17:55Z</time></trkpt><trkpt lat="40.95164033323557" lon="14.172482938217552"><ele>74.28571428571428</ele><time>2026-04-24T12:17:57Z</time></trkpt><trkpt lat="40.951600606472525" lon="14.172397445385075"><ele>74.42857142857142</ele><time>2026-04-24T12:18:00Z</time></trkpt><trkpt lat="40.95163278987349" lon="14.1723168444614"><ele>74.57142857142857</ele><time>2026-04-24T12:18:27Z</time></trkpt><trkpt lat="40.95167782749003" lon="14.172258308997796"><ele>74.71428571428571</ele><time>2026-04-24T12:18:29Z</time></trkpt><trkpt lat="40.9517366090297" lon="14.172222516969496"><ele>74.85714285714285</ele><time>2026-04-24T12:18:31Z</time></trkpt><trkpt lat="40.95182371747729" lon="14.172150511974085"><ele>75.0</ele><time>2026-04-24T12:18:33Z</time></trkpt><trkpt lat="40.951876184782826" lon="14.17209804692389"><ele>75.0</ele><time>2026-04-24T12:18:34Z</time></trkpt><trkpt lat="40.95194042090927" lon="14.172033891107029"><ele>75.0</ele><time>2026-04-24T12:18:35Z</time></trkpt><trkpt lat="40.952005155069074" lon="14.171969237772647"><ele>75.0</ele><time>2026-04-24T12:18:36Z</time></trkpt><trkpt lat="40.952067040993285" lon="14.171889790570582"><ele>75.0</ele><time>2026-04-24T12:18:37Z</time></trkpt><trkpt lat="40.95213629291339" lon="14.17182050267376"><ele>75.0</ele><time>2026-04-24T12:18:38Z</time></trkpt><trkpt lat="40.95220435601362" lon="14.171745792460358"><ele>75.0</ele><time>2026-04-24T12:18:39Z</time></trkpt><trkpt lat="40.95227616681317" lon="14.17167609113613"><ele>75.0</ele><time>2026-04-24T12:18:40Z</time></trkpt><trkpt lat="40.9523454611833" lon="14.17160774679724"><ele>75.0</ele><time>2026-04-24T12:18:41Z</time></trkpt><trkpt lat="40.952414931088626" lon="14.171532923678676"><ele>75.0</ele><time>2026-04-24T12:18:42Z</time></trkpt><trkpt lat="40.95249242383493" lon="14.17147970974308"><ele>75.0</ele><time>2026-04-24T12:18:43Z</time></trkpt><trkpt lat="40.95256147468147" lon="14.171409991429375"><ele>75.0</ele><time>2026-04-24T12:18:44Z</time></trkpt><trkpt lat="40.95262391170925" lon="14.171332765133025"><ele>75.0</ele><time>2026-04-24T12:18:45Z</time></trkpt><trkpt lat="40.95269404808668" lon="14.171265860976892"><ele>74.83333333333333</ele><time>2026-04-24T12:18:46Z</time></trkpt><trkpt lat="40.952754778267646" lon="14.171201302658012"><ele>74.66666666666667</ele><time>2026-04-24T12:18:47Z</time></trkpt><trkpt lat="40.95281469892057" lon="14.171135432344958"><ele>74.5</ele><time>2026-04-24T12:18:48Z</time></trkpt><trkpt lat="40.95287697799357" lon="14.17106631110649"><ele>74.33333333333334</ele><time>2026-04-24T12:18:49Z</time></trkpt><trkpt lat="40.95293991411059" lon="14.171000668584348"><ele>74.16666666666667</ele><time>2026-04-24T12:18:50Z</time></trkpt><trkpt lat="40.95300867717983" lon="14.170929499267107"><ele>74.0</ele><time>2026-04-24T12:18:51Z</time></trkpt><trkpt lat="40.95308541767167" lon="14.170878523187204"><ele>74.0</ele><time>2026-04-24T12:18:52Z</time></trkpt><trkpt lat="40.95315014959181" lon="14.170812459858388"><ele>74.0</ele><time>2026-04-24T12:18:53Z</time></trkpt><trkpt lat="40.95320709459607" lon="14.17075434450144"><ele>74.0</ele><time>2026-04-24T12:18:54Z</time></trkpt><trkpt lat="40.95326532497996" lon="14.170695008301506"><ele>74.0</ele><time>2026-04-24T12:18:55Z</time></trkpt><trkpt lat="40.9533221413713" lon="14.170637074169829"><ele>74.0</ele><time>2026-04-24T12:18:56Z</time></trkpt><trkpt lat="40.953377492342206" lon="14.170580634223986"><ele>74.0</ele><time>2026-04-24T12:18:57Z</time></trkpt><trkpt lat="40.95343024724136" lon="14.170526841471093"><ele>74.0</ele><time>2026-04-24T12:18:58Z</time></trkpt><trkpt lat="40.95350433403514" lon="14.170451298018074"><ele>74.0</ele><time>2026-04-24T12:19:00Z</time></trkpt><trkpt lat="40.95347174485834" lon="14.170276440712756"><ele>74.0</ele><time>2026-04-24T12:19:03Z</time></trkpt><trkpt lat="40.9534253690733" lon="14.170215420037783"><ele>74.0</ele><time>2026-04-24T12:19:04Z</time></trkpt><trkpt lat="40.95337592341622" lon="14.170147696515942"><ele>74.0</ele><time>2026-04-24T12:19:05Z</time></trkpt><trkpt lat="40.95332931469129" lon="14.170054549800719"><ele>74.0</ele><time>2026-04-24T12:19:06Z</time></trkpt><trkpt lat="40.95328779656887" lon="14.169975698978453"><ele>74.0</ele><time>2026-04-24T12:19:07Z</time></trkpt><trkpt lat="40.95324268278722" lon="14.169916277641182"><ele>74.4</ele><time>2026-04-24T12:19:07.999Z</time></trkpt><trkpt lat="40.95317230141727" lon="14.169799280854596"><ele>74.80000000000001</ele><time>2026-04-24T12:19:09.999Z</time></trkpt><trkpt lat="40.95312334064215" lon="14.16969961566258"><ele>75.19999999999999</ele><time>2026-04-24T12:19:11.999Z</time></trkpt><trkpt lat="40.953121995783604" lon="14.16956415303573"><ele>75.6</ele><time>2026-04-24T12:19:13.999Z</time></trkpt><trkpt lat="40.95312357599623" lon="14.169453423995064"><ele>76.0</ele><time>2026-04-24T12:19:16Z</time></trkpt><trkpt lat="40.953129977572644" lon="14.169338345851203"><ele>76.0</ele><time>2026-04-24T12:19:18Z</time></trkpt><trkpt lat="40.953112334731465" lon="14.169204940528395"><ele>76.0</ele><time>2026-04-24T12:19:20Z</time></trkpt><trkpt lat="40.953120448418844" lon="14.169065231367084"><ele>76.0</ele><time>2026-04-24T12:19:22Z</time></trkpt><trkpt lat="40.95311286688188" lon="14.168898730367566"><ele>76.0</ele><time>2026-04-24T12:19:24Z</time></trkpt><trkpt lat="40.95311447464041" lon="14.168803502710047"><ele>76.0</ele><time>2026-04-24T12:19:25Z</time></trkpt><trkpt lat="40.95310672117559" lon="14.168698495054409"><ele>75.8</ele><time>2026-04-24T12:19:26Z</time></trkpt><trkpt lat="40.95310934046656" lon="14.168582189153671"><ele>75.6</ele><time>2026-04-24T12:19:27Z</time></trkpt><trkpt lat="40.95312349542264" lon="14.168481642013464"><ele>75.4</ele><time>2026-04-24T12:19:28Z</time></trkpt><trkpt lat="40.95310180351578" lon="14.16834955891825"><ele>75.2</ele><time>2026-04-24T12:19:30Z</time></trkpt><trkpt lat="40.95309877411461" lon="14.168253674807442"><ele>75.0</ele><time>2026-04-24T12:19:35Z</time></trkpt><trkpt lat="40.9529287595668" lon="14.168262327184213"><ele>75.0</ele><time>2026-04-24T12:19:38Z</time></trkpt><trkpt lat="40.9528212475443" lon="14.168274332701309"><ele>75.0</ele><time>2026-04-24T12:19:40Z</time></trkpt><trkpt lat="40.95271842959809" lon="14.168281298832316"><ele>75.0</ele><time>2026-04-24T12:19:42Z</time></trkpt><trkpt lat="40.95265003626835" lon="14.168277561522936"><ele>75.0</ele><time>2026-04-24T12:19:51Z</time></trkpt><trkpt lat="40.95266127582338" lon="14.16811669185201"><ele>75.0</ele><time>2026-04-24T12:19:54Z</time></trkpt><trkpt lat="40.952647596295286" lon="14.167999058634544"><ele>74.5</ele><time>2026-04-24T12:19:56Z</time></trkpt><trkpt lat="40.95264845851707" lon="14.167872140657064"><ele>74.0</ele><time>2026-04-24T12:19:58Z</time></trkpt><trkpt lat="40.95264159437965" lon="14.167763888225906"><ele>73.5</ele><time>2026-04-24T12:20:00Z</time></trkpt><trkpt lat="40.95266198382007" lon="14.167667089581442"><ele>73.0</ele><time>2026-04-24T12:20:03Z</time></trkpt><trkpt lat="40.95268470207275" lon="14.167587705969824"><ele>72.5</ele><time>2026-04-24T12:20:05Z</time></trkpt><trkpt lat="40.952687149276095" lon="14.167473875044665"><ele>72.0</ele><time>2026-04-24T12:20:07Z</time></trkpt><trkpt lat="40.95269378071241" lon="14.167332346363994"><ele>72.0</ele><time>2026-04-24T12:20:09Z</time></trkpt><trkpt lat="40.9526895543221" lon="14.16717148072191"><ele>72.0</ele><time>2026-04-24T12:20:11Z</time></trkpt><trkpt lat="40.95267918704593" lon="14.167010837955981"><ele>72.0</ele><time>2026-04-24T12:20:13Z</time></trkpt><trkpt lat="40.95266568473899" lon="14.166848217964054"><ele>72.0</ele><time>2026-04-24T12:20:15Z</time></trkpt><trkpt lat="40.95267377463047" lon="14.166762877469719"><ele>72.0</ele><time>2026-04-24T12:20:16Z</time></trkpt><trkpt lat="40.95266492985099" lon="14.16659457397385"><ele>72.16666666666667</ele><time>2026-04-24T12:20:18Z</time></trkpt><trkpt lat="40.952659846358834" lon="14.166502696330186"><ele>72.33333333333333</ele><time>2026-04-24T12:20:19Z</time></trkpt><trkpt lat="40.952651439165386" lon="14.166409033273101"><ele>72.5</ele><time>2026-04-24T12:20:20Z</time></trkpt><trkpt lat="40.95263990857143" lon="14.166324929004945"><ele>72.66666666666666</ele><time>2026-04-24T12:20:21Z</time></trkpt><trkpt lat="40.95263248590111" lon="14.16616597470237"><ele>72.83333333333333</ele><time>2026-04-24T12:20:23Z</time></trkpt><trkpt lat="40.95263996050766" lon="14.166080634318881"><ele>73.0</ele><time>2026-04-24T12:20:24Z</time></trkpt><trkpt lat="40.95264457158704" lon="14.165990037242597"><ele>73.0</ele><time>2026-04-24T12:20:25Z</time></trkpt><trkpt lat="40.95264855341641" lon="14.165890747322013"><ele>73.0</ele><time>2026-04-24T12:20:26Z</time></trkpt><trkpt lat="40.95264765243019" lon="14.165787731614012"><ele>73.0</ele><time>2026-04-24T12:20:27Z</time></trkpt><trkpt lat="40.95264578890498" lon="14.165677012402304"><ele>73.0</ele><time>2026-04-24T12:20:28Z</time></trkpt><trkpt lat="40.95264487903653" lon="14.165568883935729"><ele>73.0</ele><time>2026-04-24T12:20:29Z</time></trkpt><trkpt lat="40.95264379216848" lon="14.165469754414701"><ele>73.0</ele><time>2026-04-24T12:20:30Z</time></trkpt><trkpt lat="40.95265272498819" lon="14.165380367436839"><ele>73.0</ele><time>2026-04-24T12:20:31Z</time></trkpt><trkpt lat="40.952656862263325" lon="14.16528344395697"><ele>73.0</ele><time>2026-04-24T12:20:32Z</time></trkpt><trkpt lat="40.95267601027883" lon="14.165201249500825"><ele>73.0</ele><time>2026-04-24T12:20:33Z</time></trkpt><trkpt lat="40.952680072476234" lon="14.165043177212622"><ele>73.0</ele><time>2026-04-24T12:20:35Z</time></trkpt><trkpt lat="40.952680477433766" lon="14.164958986597004"><ele>73.0</ele><time>2026-04-24T12:20:36Z</time></trkpt><trkpt lat="40.95266495899575" lon="14.164862167377152"><ele>73.0</ele><time>2026-04-24T12:20:37Z</time></trkpt><trkpt lat="40.952668993299504" lon="14.164765214860289"><ele>73.0</ele><time>2026-04-24T12:20:38Z</time></trkpt><trkpt lat="40.95268237873726" lon="14.16465229828179"><ele>73.0</ele><time>2026-04-24T12:20:39Z</time></trkpt><trkpt lat="40.95268709787624" lon="14.164561817456722"><ele>73.0</ele><time>2026-04-24T12:20:40Z</time></trkpt><trkpt lat="40.952691079558114" lon="14.164432313458384"><ele>73.0</ele><time>2026-04-24T12:20:42Z</time></trkpt><trkpt lat="40.9526980741381" lon="14.164312370029768"><ele>73.0</ele><time>2026-04-24T12:20:44Z</time></trkpt><trkpt lat="40.95271932347877" lon="14.164215818216675"><ele>73.0</ele><time>2026-04-24T12:20:46Z</time></trkpt><trkpt lat="40.95272613002924" lon="14.164122441826992"><ele>73.0</ele><time>2026-04-24T12:20:55Z</time></trkpt><trkpt lat="40.952578207541826" lon="14.164106926207598"><ele>73.0</ele><time>2026-04-24T12:20:57Z</time></trkpt><trkpt lat="40.95246823484234" lon="14.164095434511829"><ele>73.0</ele><time>2026-04-24T12:20:59Z</time></trkpt><trkpt lat="40.95234453019252" lon="14.164088240060424"><ele>73.0</ele><time>2026-04-24T12:21:01Z</time></trkpt><trkpt lat="40.95228018730258" lon="14.164089131179667"><ele>73.0</ele><time>2026-04-24T12:21:02Z</time></trkpt><trkpt lat="40.95221709055974" lon="14.164090311326417"><ele>73.16666666666666</ele><time>2026-04-24T12:21:03Z</time></trkpt><trkpt lat="40.95215232906005" lon="14.164090360250418"><ele>73.33333333333333</ele><time>2026-04-24T12:21:04Z</time></trkpt><trkpt lat="40.95204635211757" lon="14.164083860106592"><ele>73.5</ele><time>2026-04-24T12:21:06Z</time></trkpt><trkpt lat="40.95195452220078" lon="14.164063444648944"><ele>73.66666666666667</ele><time>2026-04-24T12:21:08Z</time></trkpt><trkpt lat="40.951875090546395" lon="14.164018157774168"><ele>73.83333333333334</ele><time>2026-04-24T12:21:10Z</time></trkpt><trkpt lat="40.95180990686131" lon="14.163942886603703"><ele>74.0</ele><time>2026-04-24T12:21:12Z</time></trkpt><trkpt lat="40.95176019330952" lon="14.163836773248905"><ele>74.0</ele><time>2026-04-24T12:21:14Z</time></trkpt><trkpt lat="40.95170363049757" lon="14.163750839462406"><ele>74.0</ele><time>2026-04-24T12:21:16Z</time></trkpt><trkpt lat="40.951651053395224" lon="14.163668210154041"><ele>74.0</ele><time>2026-04-24T12:21:18Z</time></trkpt><trkpt lat="40.9515821445285" lon="14.163576134973916"><ele>74.0</ele><time>2026-04-24T12:21:20Z</time></trkpt><trkpt lat="40.95148085131809" lon="14.163519158945888"><ele>74.0</ele><time>2026-04-24T12:21:22Z</time></trkpt><trkpt lat="40.95137425964894" lon="14.163479741569484"><ele>74.0</ele><time>2026-04-24T12:21:24Z</time></trkpt><trkpt lat="40.951271012753395" lon="14.163438743036085"><ele>74.0</ele><time>2026-04-24T12:21:26Z</time></trkpt><trkpt lat="40.95119161178289" lon="14.163399960013864"><ele>74.0</ele><time>2026-04-24T12:21:28Z</time></trkpt><trkpt lat="40.95111531324332" lon="14.163377209431633"><ele>74.0</ele><time>2026-04-24T12:21:31Z</time></trkpt><trkpt lat="40.951148804601154" lon="14.163245272617313"><ele>74.0</ele><time>2026-04-24T12:21:32Z</time></trkpt><trkpt lat="40.951144319812315" lon="14.163161936771095"><ele>74.0</ele><time>2026-04-24T12:21:33Z</time></trkpt><trkpt lat="40.951142507538655" lon="14.163072427271613"><ele>74.0</ele><time>2026-04-24T12:21:34Z</time></trkpt><trkpt lat="40.951145615403185" lon="14.162957624479066"><ele>74.0</ele><time>2026-04-24T12:21:35Z</time></trkpt><trkpt lat="40.95115145284951" lon="14.16285096408967"><ele>74.0</ele><time>2026-04-24T12:21:36Z</time></trkpt><trkpt lat="40.95114193425357" lon="14.162734628049403"><ele>74.0</ele><time>2026-04-24T12:21:37Z</time></trkpt><trkpt lat="40.951153204652506" lon="14.162609203619906"><ele>74.0</ele><time>2026-04-24T12:21:38Z</time></trkpt><trkpt lat="40.95115137206122" lon="14.162475790437423"><ele>74.2</ele><time>2026-04-24T12:21:39Z</time></trkpt><trkpt lat="40.95115764187846" lon="14.162345426555452"><ele>74.4</ele><time>2026-04-24T12:21:40Z</time></trkpt><trkpt lat="40.95116149347211" lon="14.162214401615664"><ele>74.6</ele><time>2026-04-24T12:21:41Z</time></trkpt><trkpt lat="40.95116390601714" lon="14.162082533536633"><ele>74.8</ele><time>2026-04-24T12:21:42Z</time></trkpt><trkpt lat="40.95116414070751" lon="14.1619447636138"><ele>75.0</ele><time>2026-04-24T12:21:43Z</time></trkpt><trkpt lat="40.95116422957421" lon="14.161811245280147"><ele>75.0</ele><time>2026-04-24T12:21:44Z</time></trkpt><trkpt lat="40.95116816915444" lon="14.161681590975496"><ele>75.0</ele><time>2026-04-24T12:21:45Z</time></trkpt><trkpt lat="40.95117207322357" lon="14.161559152543063"><ele>75.0</ele><time>2026-04-24T12:21:46Z</time></trkpt><trkpt lat="40.95117727372236" lon="14.161446095999116"><ele>75.0</ele><time>2026-04-24T12:21:47Z</time></trkpt><trkpt lat="40.95120389973063" lon="14.16133356989561"><ele>75.0</ele><time>2026-04-24T12:21:48Z</time></trkpt><trkpt lat="40.95121266700535" lon="14.161215021642086"><ele>74.8</ele><time>2026-04-24T12:21:49Z</time></trkpt><trkpt lat="40.95123623322078" lon="14.161091989912578"><ele>74.6</ele><time>2026-04-24T12:21:50Z</time></trkpt><trkpt lat="40.951260546927514" lon="14.16095951656872"><ele>74.4</ele><time>2026-04-24T12:21:51Z</time></trkpt><trkpt lat="40.9512864739136" lon="14.160816986486761"><ele>74.2</ele><time>2026-04-24T12:21:52Z</time></trkpt><trkpt lat="40.95131022240378" lon="14.160674607829911"><ele>74.0</ele><time>2026-04-24T12:21:53Z</time></trkpt><trkpt lat="40.95134803204345" lon="14.160548010811402"><ele>73.8</ele><time>2026-04-24T12:21:54Z</time></trkpt><trkpt lat="40.9513700921548" lon="14.160424144534238"><ele>73.60000000000001</ele><time>2026-04-24T12:21:55Z</time></trkpt><trkpt lat="40.951391218580774" lon="14.160310000845849"><ele>73.4</ele><time>2026-04-24T12:21:56Z</time></trkpt><trkpt lat="40.951410187180656" lon="14.160211635482113"><ele>73.2</ele><time>2026-04-24T12:21:57Z</time></trkpt><trkpt lat="40.95143994032785" lon="14.160057065397664"><ele>73.0</ele><time>2026-04-24T12:21:59Z</time></trkpt><trkpt lat="40.95145017124564" lon="14.159916222559927"><ele>72.83333333333333</ele><time>2026-04-24T12:22:01Z</time></trkpt><trkpt lat="40.951452527977246" lon="14.159809111536688"><ele>72.66666666666666</ele><time>2026-04-24T12:22:03Z</time></trkpt><trkpt lat="40.95144227953786" lon="14.159706993945864"><ele>72.5</ele><time>2026-04-24T12:22:05Z</time></trkpt><trkpt lat="40.95138303030474" lon="14.159626994583292"><ele>72.33333333333333</ele><time>2026-04-24T12:22:07Z</time></trkpt><trkpt lat="40.95131460494249" lon="14.15953262418595"><ele>72.16666666666667</ele><time>2026-04-24T12:22:09Z</time></trkpt><trkpt lat="40.95125255554118" lon="14.159428055211453"><ele>72.0</ele><time>2026-04-24T12:22:11Z</time></trkpt><trkpt lat="40.951226959792145" lon="14.159350479313686"><ele>72.0</ele><time>2026-04-24T12:22:12Z</time></trkpt><trkpt lat="40.95121507643512" lon="14.159248889645973"><ele>72.0</ele><time>2026-04-24T12:22:13Z</time></trkpt><trkpt lat="40.95121590270026" lon="14.159141533274983"><ele>72.0</ele><time>2026-04-24T12:22:14Z</time></trkpt><trkpt lat="40.951217813965975" lon="14.159017485998852"><ele>72.0</ele><time>2026-04-24T12:22:15Z</time></trkpt><trkpt lat="40.951203831418" lon="14.158873122028622"><ele>72.0</ele><time>2026-04-24T12:22:16Z</time></trkpt><trkpt lat="40.951202987637956" lon="14.158728492151903"><ele>72.0</ele><time>2026-04-24T12:22:17Z</time></trkpt><trkpt lat="40.95120018347154" lon="14.158574172546464"><ele>72.0</ele><time>2026-04-24T12:22:18Z</time></trkpt><trkpt lat="40.95119713130059" lon="14.158400841350396"><ele>72.0</ele><time>2026-04-24T12:22:19Z</time></trkpt><trkpt lat="40.951187281908034" lon="14.158229311540383"><ele>72.0</ele><time>2026-04-24T12:22:20Z</time></trkpt><trkpt lat="40.9511857656424" lon="14.158049660357175"><ele>71.75</ele><time>2026-04-24T12:22:21Z</time></trkpt><trkpt lat="40.951181221664086" lon="14.157861567566515"><ele>71.5</ele><time>2026-04-24T12:22:22Z</time></trkpt><trkpt lat="40.95118064150385" lon="14.15766392318576"><ele>71.25</ele><time>2026-04-24T12:22:23Z</time></trkpt><trkpt lat="40.95117860030288" lon="14.15746096386254"><ele>71.0</ele><time>2026-04-24T12:22:24Z</time></trkpt><trkpt lat="40.95117441903587" lon="14.157253690437173"><ele>71.0</ele><time>2026-04-24T12:22:25Z</time></trkpt><trkpt lat="40.95117097526397" lon="14.157047256761425"><ele>71.0</ele><time>2026-04-24T12:22:26Z</time></trkpt><trkpt lat="40.95116636037417" lon="14.156851714514662"><ele>71.0</ele><time>2026-04-24T12:22:27Z</time></trkpt><trkpt lat="40.951161381557114" lon="14.15667143997094"><ele>71.0</ele><time>2026-04-24T12:22:28Z</time></trkpt><trkpt lat="40.951172572009554" lon="14.15651679501477"><ele>70.8</ele><time>2026-04-24T12:22:29Z</time></trkpt><trkpt lat="40.95116972535744" lon="14.156380619955991"><ele>70.6</ele><time>2026-04-24T12:22:30Z</time></trkpt><trkpt lat="40.95116699926672" lon="14.156250212190963"><ele>70.4</ele><time>2026-04-24T12:22:31Z</time></trkpt><trkpt lat="40.951164493628916" lon="14.15613035030066"><ele>70.2</ele><time>2026-04-24T12:22:32Z</time></trkpt><trkpt lat="40.95116219128317" lon="14.15602826675651"><ele>70.0</ele><time>2026-04-24T12:22:33Z</time></trkpt><trkpt lat="40.95114990601951" lon="14.155880256945428"><ele>70.0</ele><time>2026-04-24T12:22:35Z</time></trkpt><trkpt lat="40.95113392534535" lon="14.15579165312933"><ele>70.0</ele><time>2026-04-24T12:22:37Z</time></trkpt><trkpt lat="40.95111500060063" lon="14.155708928948679"><ele>70.0</ele><time>2026-04-24T12:22:39Z</time></trkpt><trkpt lat="40.95109243495433" lon="14.155622987074992"><ele>70.0</ele><time>2026-04-24T12:22:41Z</time></trkpt><trkpt lat="40.951080289194486" lon="14.15552089678875"><ele>70.0</ele><time>2026-04-24T12:22:44Z</time></trkpt><trkpt lat="40.951175459593365" lon="14.155543241596893"><ele>70.0</ele><time>2026-04-24T12:22:47Z</time></trkpt><trkpt lat="40.95126561939834" lon="14.15553966196661"><ele>69.8</ele><time>2026-04-24T12:22:49Z</time></trkpt><trkpt lat="40.951381678542894" lon="14.155534002678927"><ele>69.6</ele><time>2026-04-24T12:22:51Z</time></trkpt><trkpt lat="40.951458053049194" lon="14.155529697251282"><ele>69.4</ele><time>2026-04-24T12:22:52Z</time></trkpt><trkpt lat="40.95154330567811" lon="14.15552489134394"><ele>69.2</ele><time>2026-04-24T12:22:53Z</time></trkpt><trkpt lat="40.951619203733905" lon="14.155520692591695"><ele>69.0</ele><time>2026-04-24T12:22:54Z</time></trkpt><trkpt lat="40.95172887162019" lon="14.155500930337812"><ele>68.83333333333333</ele><time>2026-04-24T12:22:56Z</time></trkpt><trkpt lat="40.95179367042344" lon="14.1555117903807"><ele>68.66666666666667</ele><time>2026-04-24T12:22:58Z</time></trkpt><trkpt lat="40.95181702220241" lon="14.155365884377076"><ele>68.5</ele><time>2026-04-24T12:23:01Z</time></trkpt><trkpt lat="40.951833659584175" lon="14.15522792072714"><ele>68.33333333333334</ele><time>2026-04-24T12:23:03Z</time></trkpt><trkpt lat="40.95183487834557" lon="14.15514194546708"><ele>68.16666666666667</ele><time>2026-04-24T12:23:04Z</time></trkpt><trkpt lat="40.95183643507104" lon="14.155032129132517"><ele>68.0</ele><time>2026-04-24T12:23:05Z</time></trkpt><trkpt lat="40.95182719000333" lon="14.15490347453069"><ele>68.0</ele><time>2026-04-24T12:23:06Z</time></trkpt><trkpt lat="40.951832517154855" lon="14.154785113390743"><ele>68.0</ele><time>2026-04-24T12:23:07Z</time></trkpt><trkpt lat="40.95183298393036" lon="14.154645194358103"><ele>68.0</ele><time>2026-04-24T12:23:08Z</time></trkpt><trkpt lat="40.951849841488496" lon="14.15449218256765"><ele>68.0</ele><time>2026-04-24T12:23:09Z</time></trkpt><trkpt lat="40.95184059628813" lon="14.154341266242959"><ele>68.0</ele><time>2026-04-24T12:23:10Z</time></trkpt><trkpt lat="40.95185433055105" lon="14.15418263137312"><ele>67.75</ele><time>2026-04-24T12:23:11Z</time></trkpt><trkpt lat="40.951854618923896" lon="14.154018226354141"><ele>67.5</ele><time>2026-04-24T12:23:12Z</time></trkpt><trkpt lat="40.95185890925556" lon="14.153854965282635"><ele>67.25</ele><time>2026-04-24T12:23:13Z</time></trkpt><trkpt lat="40.951879551012524" lon="14.153695047566853"><ele>67.0</ele><time>2026-04-24T12:23:14Z</time></trkpt><trkpt lat="40.95187554038098" lon="14.153526880789896"><ele>67.0</ele><time>2026-04-24T12:23:15Z</time></trkpt><trkpt lat="40.95188079131625" lon="14.153365086671327"><ele>67.0</ele><time>2026-04-24T12:23:16Z</time></trkpt><trkpt lat="40.9518804619349" lon="14.15320127222938"><ele>67.0</ele><time>2026-04-24T12:23:17Z</time></trkpt><trkpt lat="40.95188958379358" lon="14.15303509351373"><ele>67.0</ele><time>2026-04-24T12:23:18Z</time></trkpt><trkpt lat="40.95189128186553" lon="14.152866456107533"><ele>67.0</ele><time>2026-04-24T12:23:19Z</time></trkpt><trkpt lat="40.95189230126399" lon="14.152707494310162"><ele>67.0</ele><time>2026-04-24T12:23:20Z</time></trkpt><trkpt lat="40.95189746007121" lon="14.152551945985538"><ele>67.0</ele><time>2026-04-24T12:23:21Z</time></trkpt><trkpt lat="40.951899394795355" lon="14.152399636599988"><ele>67.0</ele><time>2026-04-24T12:23:22Z</time></trkpt><trkpt lat="40.951907570099124" lon="14.152252075689786"><ele>67.2</ele><time>2026-04-24T12:23:23Z</time></trkpt><trkpt lat="40.9519056743554" lon="14.152102556320486"><ele>67.4</ele><time>2026-04-24T12:23:24Z</time></trkpt><trkpt lat="40.951906025227416" lon="14.151965154948016"><ele>67.6</ele><time>2026-04-24T12:23:25Z</time></trkpt><trkpt lat="40.95191273872096" lon="14.151829933984864"><ele>67.8</ele><time>2026-04-24T12:23:26Z</time></trkpt><trkpt lat="40.951915176510404" lon="14.151704548425704"><ele>68.0</ele><time>2026-04-24T12:23:27Z</time></trkpt><trkpt lat="40.95191726755169" lon="14.15158750943148"><ele>67.66666666666667</ele><time>2026-04-24T12:23:28Z</time></trkpt><trkpt lat="40.951919881824466" lon="14.151475245693453"><ele>67.33333333333334</ele><time>2026-04-24T12:23:29Z</time></trkpt><trkpt lat="40.95192126548699" lon="14.151364242982295"><ele>67.0</ele><time>2026-04-24T12:23:30Z</time></trkpt><trkpt lat="40.9519233815726" lon="14.151257083412977"><ele>66.66666666666667</ele><time>2026-04-24T12:23:31Z</time></trkpt><trkpt lat="40.95192373003306" lon="14.15115379133316"><ele>66.33333333333333</ele><time>2026-04-24T12:23:32Z</time></trkpt><trkpt lat="40.95192639311839" lon="14.15104905036114"><ele>66.0</ele><time>2026-04-24T12:23:33Z</time></trkpt><trkpt lat="40.95192885577546" lon="14.150944664988554"><ele>66.0</ele><time>2026-04-24T12:23:34Z</time></trkpt><trkpt lat="40.95192989718756" lon="14.150841471825766"><ele>66.0</ele><time>2026-04-24T12:23:35Z</time></trkpt><trkpt lat="40.95192981108369" lon="14.150741586622281"><ele>66.0</ele><time>2026-04-24T12:23:36Z</time></trkpt><trkpt lat="40.95193122048622" lon="14.150640714587158"><ele>66.0</ele><time>2026-04-24T12:23:37Z</time></trkpt><trkpt lat="40.95193209151962" lon="14.150539022166736"><ele>66.0</ele><time>2026-04-24T12:23:38Z</time></trkpt><trkpt lat="40.951932267156124" lon="14.150435114453225"><ele>66.0</ele><time>2026-04-24T12:23:39Z</time></trkpt><trkpt lat="40.951931296254" lon="14.150332180030313"><ele>65.83333333333333</ele><time>2026-04-24T12:23:40Z</time></trkpt><trkpt lat="40.95193450789853" lon="14.150224876608787"><ele>65.66666666666667</ele><time>2026-04-24T12:23:41Z</time></trkpt><trkpt lat="40.95193335087237" lon="14.150114768991637"><ele>65.5</ele><time>2026-04-24T12:23:42Z</time></trkpt><trkpt lat="40.95193386066008" lon="14.15000515346552"><ele>65.33333333333334</ele><time>2026-04-24T12:23:43Z</time></trkpt><trkpt lat="40.951935642278556" lon="14.149898272064066"><ele>65.16666666666667</ele><time>2026-04-24T12:23:44Z</time></trkpt><trkpt lat="40.95192996257849" lon="14.149798131151524"><ele>65.0</ele><time>2026-04-24T12:23:45Z</time></trkpt><trkpt lat="40.951945960107416" lon="14.14970204357948"><ele>65.0</ele><time>2026-04-24T12:23:46Z</time></trkpt><trkpt lat="40.9519454316951" lon="14.149612230962832"><ele>65.0</ele><time>2026-04-24T12:23:47Z</time></trkpt><trkpt lat="40.95193224363045" lon="14.14952692454045"><ele>65.0</ele><time>2026-04-24T12:23:48Z</time></trkpt><trkpt lat="40.951926823278356" lon="14.149366377240675"><ele>65.0</ele><time>2026-04-24T12:23:50Z</time></trkpt><trkpt lat="40.95191327455843" lon="14.149221536017947"><ele>65.0</ele><time>2026-04-24T12:23:52Z</time></trkpt><trkpt lat="40.95184227679782" lon="14.149100952815639"><ele>65.0</ele><time>2026-04-24T12:23:54Z</time></trkpt><trkpt lat="40.95176334341544" lon="14.149104535363788"><ele>65.0</ele><time>2026-04-24T12:23:55Z</time></trkpt><trkpt lat="40.951646897920924" lon="14.149077504720818"><ele>65.0</ele><time>2026-04-24T12:23:57Z</time></trkpt><trkpt lat="40.95155837960101" lon="14.149047384332048"><ele>65.0</ele><time>2026-04-24T12:23:59Z</time></trkpt><trkpt lat="40.95150769593876" lon="14.14896537046391"><ele>65.0</ele><time>2026-04-24T12:24:01Z</time></trkpt><trkpt lat="40.95150088524842" lon="14.148834125374435"><ele>65.4</ele><time>2026-04-24T12:24:03Z</time></trkpt><trkpt lat="40.951506702683595" lon="14.148745344711083"><ele>65.8</ele><time>2026-04-24T12:24:04Z</time></trkpt><trkpt lat="40.95150296215483" lon="14.148638006073577"><ele>66.2</ele><time>2026-04-24T12:24:05Z</time></trkpt><trkpt lat="40.95150860414744" lon="14.148520006925908"><ele>66.6</ele><time>2026-04-24T12:24:06Z</time></trkpt><trkpt lat="40.95150400459812" lon="14.148379729580439"><ele>67.0</ele><time>2026-04-24T12:24:07Z</time></trkpt><trkpt lat="40.9515004106958" lon="14.148234645887284"><ele>66.75</ele><time>2026-04-24T12:24:08Z</time></trkpt><trkpt lat="40.951492338534806" lon="14.148084359050412"><ele>66.5</ele><time>2026-04-24T12:24:09Z</time></trkpt><trkpt lat="40.95150231572298" lon="14.147916758272762"><ele>66.25</ele><time>2026-04-24T12:24:10Z</time></trkpt><trkpt lat="40.95150087530281" lon="14.147745320307672"><ele>66.0</ele><time>2026-04-24T12:24:11Z</time></trkpt><trkpt lat="40.95149938681958" lon="14.147570969294406"><ele>66.0</ele><time>2026-04-24T12:24:12Z</time></trkpt><trkpt lat="40.95149854644805" lon="14.147387673636826"><ele>66.0</ele><time>2026-04-24T12:24:13Z</time></trkpt><trkpt lat="40.95149818062227" lon="14.147198285421712"><ele>66.0</ele><time>2026-04-24T12:24:14Z</time></trkpt><trkpt lat="40.95149783154682" lon="14.147017569014084"><ele>66.0</ele><time>2026-04-24T12:24:15Z</time></trkpt><trkpt lat="40.95149775853852" lon="14.146835465013213"><ele>65.5</ele><time>2026-04-24T12:24:16Z</time></trkpt><trkpt lat="40.951497758539574" lon="14.146650694671035"><ele>65.0</ele><time>2026-04-24T12:24:17Z</time></trkpt><trkpt lat="40.95149832166443" lon="14.146464690865768"><ele>64.5</ele><time>2026-04-24T12:24:18Z</time></trkpt><trkpt lat="40.95149886657707" lon="14.146279331992032"><ele>64.0</ele><time>2026-04-24T12:24:19Z</time></trkpt><trkpt lat="40.95149926406771" lon="14.1460953727929"><ele>63.75</ele><time>2026-04-24T12:24:20Z</time></trkpt><trkpt lat="40.95149965384019" lon="14.14591498605424"><ele>63.5</ele><time>2026-04-24T12:24:21Z</time></trkpt><trkpt lat="40.95149939897497" lon="14.14573529077844"><ele>63.25</ele><time>2026-04-24T12:24:22Z</time></trkpt><trkpt lat="40.95149892253548" lon="14.145561485500599"><ele>63.0</ele><time>2026-04-24T12:24:23Z</time></trkpt><trkpt lat="40.951498151799186" lon="14.145390950716209"><ele>63.0</ele><time>2026-04-24T12:24:24Z</time></trkpt><trkpt lat="40.95149629874359" lon="14.145217981777025"><ele>63.0</ele><time>2026-04-24T12:24:25Z</time></trkpt><trkpt lat="40.95149382084507" lon="14.145046356870672"><ele>63.0</ele><time>2026-04-24T12:24:26Z</time></trkpt><trkpt lat="40.95149130414914" lon="14.144877147722356"><ele>63.0</ele><time>2026-04-24T12:24:27Z</time></trkpt><trkpt lat="40.951488198352564" lon="14.144707242250151"><ele>63.0</ele><time>2026-04-24T12:24:28Z</time></trkpt><trkpt lat="40.951483621253146" lon="14.144533919590028"><ele>63.0</ele><time>2026-04-24T12:24:29Z</time></trkpt><trkpt lat="40.95147638504786" lon="14.144362816176283"><ele>63.0</ele><time>2026-04-24T12:24:30Z</time></trkpt><trkpt lat="40.95145985383511" lon="14.144193033031815"><ele>63.0</ele><time>2026-04-24T12:24:31Z</time></trkpt><trkpt lat="40.95145450099648" lon="14.144028189687086"><ele>62.75</ele><time>2026-04-24T12:24:32Z</time></trkpt><trkpt lat="40.951442443770176" lon="14.143862321784153"><ele>62.5</ele><time>2026-04-24T12:24:33Z</time></trkpt><trkpt lat="40.95143000959961" lon="14.143703004853053"><ele>62.25</ele><time>2026-04-24T12:24:34Z</time></trkpt><trkpt lat="40.95143773129556" lon="14.143551295294763"><ele>62.0</ele><time>2026-04-24T12:24:35Z</time></trkpt><trkpt lat="40.951434250325285" lon="14.143407739266339"><ele>62.0</ele><time>2026-04-24T12:24:36Z</time></trkpt><trkpt lat="40.95143204819408" lon="14.14326176229084"><ele>62.0</ele><time>2026-04-24T12:24:37Z</time></trkpt><trkpt lat="40.95141937893164" lon="14.143115954270293"><ele>62.0</ele><time>2026-04-24T12:24:38Z</time></trkpt><trkpt lat="40.95141936050891" lon="14.142966650503295"><ele>62.0</ele><time>2026-04-24T12:24:39Z</time></trkpt><trkpt lat="40.9514248126641" lon="14.142821995147152"><ele>62.0</ele><time>2026-04-24T12:24:40Z</time></trkpt><trkpt lat="40.95143133307925" lon="14.142677065296521"><ele>61.5</ele><time>2026-04-24T12:24:41Z</time></trkpt><trkpt lat="40.951437504705105" lon="14.142520481208049"><ele>61.0</ele><time>2026-04-24T12:24:42Z</time></trkpt><trkpt lat="40.95144351004806" lon="14.14235848514051"><ele>60.5</ele><time>2026-04-24T12:24:43Z</time></trkpt><trkpt lat="40.95144790225718" lon="14.142186168100627"><ele>60.0</ele><time>2026-04-24T12:24:44Z</time></trkpt><trkpt lat="40.95145103878177" lon="14.141997003011952"><ele>60.0</ele><time>2026-04-24T12:24:45Z</time></trkpt><trkpt lat="40.95145779073196" lon="14.141807709951172"><ele>60.0</ele><time>2026-04-24T12:24:46Z</time></trkpt><trkpt lat="40.9514868233413" lon="14.141615293034972"><ele>60.0</ele><time>2026-04-24T12:24:47Z</time></trkpt><trkpt lat="40.95149454158025" lon="14.141415248408926"><ele>60.0</ele><time>2026-04-24T12:24:48Z</time></trkpt><trkpt lat="40.951498501071185" lon="14.141209953768765"><ele>59.5</ele><time>2026-04-24T12:24:49Z</time></trkpt><trkpt lat="40.95150098513536" lon="14.141012529644032"><ele>59.0</ele><time>2026-04-24T12:24:50Z</time></trkpt><trkpt lat="40.951503178755594" lon="14.140831405426246"><ele>58.5</ele><time>2026-04-24T12:24:51Z</time></trkpt><trkpt lat="40.95150576955208" lon="14.14065846021811"><ele>58.0</ele><time>2026-04-24T12:24:52Z</time></trkpt><trkpt lat="40.951508426117" lon="14.140495984676793"><ele>58.0</ele><time>2026-04-24T12:24:53Z</time></trkpt><trkpt lat="40.95149792589841" lon="14.140344293810152"><ele>58.0</ele><time>2026-04-24T12:24:54Z</time></trkpt><trkpt lat="40.95150954801219" lon="14.14020487140763"><ele>58.0</ele><time>2026-04-24T12:24:55Z</time></trkpt><trkpt lat="40.95151574519742" lon="14.140076510584706"><ele>58.0</ele><time>2026-04-24T12:24:56Z</time></trkpt><trkpt lat="40.951518939284746" lon="14.139952027714038"><ele>58.0</ele><time>2026-04-24T12:24:57Z</time></trkpt><trkpt lat="40.951519888092776" lon="14.139835043533152"><ele>58.0</ele><time>2026-04-24T12:24:58Z</time></trkpt><trkpt lat="40.951523520717956" lon="14.139731550533048"><ele>58.0</ele><time>2026-04-24T12:24:59Z</time></trkpt><trkpt lat="40.951528298563716" lon="14.13964575934161"><ele>58.0</ele><time>2026-04-24T12:25:00Z</time></trkpt><trkpt lat="40.95154482606765" lon="14.139524381480944"><ele>58.0</ele><time>2026-04-24T12:25:02Z</time></trkpt><trkpt lat="40.95161838732304" lon="14.139466745295097"><ele>58.0</ele><time>2026-04-24T12:25:04Z</time></trkpt><trkpt lat="40.95175211901473" lon="14.139445366105374"><ele>58.0</ele><time>2026-04-24T12:25:06Z</time></trkpt><trkpt lat="40.95183247096228" lon="14.139426642691852"><ele>58.0</ele><time>2026-04-24T12:25:07Z</time></trkpt><trkpt lat="40.95191828249772" lon="14.139407740600786"><ele>58.0</ele><time>2026-04-24T12:25:08Z</time></trkpt><trkpt lat="40.952012959970396" lon="14.139386928495082"><ele>58.0</ele><time>2026-04-24T12:25:09Z</time></trkpt><trkpt lat="40.952117933397155" lon="14.139363385133024"><ele>58.0</ele><time>2026-04-24T12:25:10Z</time></trkpt><trkpt lat="40.9522247852685" lon="14.139336323229669"><ele>58.0</ele><time>2026-04-24T12:25:11Z</time></trkpt><trkpt lat="40.95233747248009" lon="14.139306668247098"><ele>58.0</ele><time>2026-04-24T12:25:12Z</time></trkpt><trkpt lat="40.95244671951568" lon="14.139277314623518"><ele>58.0</ele><time>2026-04-24T12:25:13Z</time></trkpt><trkpt lat="40.952561544120115" lon="14.139244780336305"><ele>58.0</ele><time>2026-04-24T12:25:14Z</time></trkpt><trkpt lat="40.952683635487595" lon="14.139210187068693"><ele>57.75</ele><time>2026-04-24T12:25:15Z</time></trkpt><trkpt lat="40.95280858920919" lon="14.139173738552293"><ele>57.5</ele><time>2026-04-24T12:25:16Z</time></trkpt><trkpt lat="40.95292786490564" lon="14.139138635162626"><ele>57.25</ele><time>2026-04-24T12:25:17Z</time></trkpt><trkpt lat="40.95305428222284" lon="14.13910294967663"><ele>57.0</ele><time>2026-04-24T12:25:18Z</time></trkpt><trkpt lat="40.953178590836124" lon="14.139071782879942"><ele>56.75</ele><time>2026-04-24T12:25:19Z</time></trkpt><trkpt lat="40.95329436260805" lon="14.139046887448744"><ele>56.5</ele><time>2026-04-24T12:25:20Z</time></trkpt><trkpt lat="40.95340533133023" lon="14.13902479625669"><ele>56.25</ele><time>2026-04-24T12:25:21Z</time></trkpt><trkpt lat="40.953517640601696" lon="14.139002438250804"><ele>56.0</ele><time>2026-04-24T12:25:22Z</time></trkpt><trkpt lat="40.9536271267517" lon="14.138959971581384"><ele>55.75</ele><time>2026-04-24T12:25:23Z</time></trkpt><trkpt lat="40.95374058290034" lon="14.138941942158711"><ele>55.5</ele><time>2026-04-24T12:25:24Z</time></trkpt><trkpt lat="40.953857599569574" lon="14.138916572165144"><ele>55.25</ele><time>2026-04-24T12:25:25Z</time></trkpt><trkpt lat="40.9539805809296" lon="14.138884100188296"><ele>55.0</ele><time>2026-04-24T12:25:26Z</time></trkpt><trkpt lat="40.95410815950525" lon="14.138847277916263"><ele>54.75</ele><time>2026-04-24T12:25:27Z</time></trkpt><trkpt lat="40.95424255445783" lon="14.138809702782112"><ele>54.5</ele><time>2026-04-24T12:25:28Z</time></trkpt><trkpt lat="40.95438207826264" lon="14.138774250830496"><ele>54.25</ele><time>2026-04-24T12:25:29Z</time></trkpt><trkpt lat="40.95451655329655" lon="14.138740665557098"><ele>54.0</ele><time>2026-04-24T12:25:30Z</time></trkpt><trkpt lat="40.95463399313256" lon="14.13871344398925"><ele>54.0</ele><time>2026-04-24T12:25:31Z</time></trkpt><trkpt lat="40.95474287312618" lon="14.13869037973859"><ele>54.0</ele><time>2026-04-24T12:25:32Z</time></trkpt><trkpt lat="40.95483413664389" lon="14.138693630954643"><ele>54.0</ele><time>2026-04-24T12:25:33.001Z</time></trkpt><trkpt lat="40.954911988222435" lon="14.13868987239525"><ele>54.0</ele><time>2026-04-24T12:25:34.001Z</time></trkpt><trkpt lat="40.95498628062835" lon="14.138690905829096"><ele>54.0</ele><time>2026-04-24T12:25:35.001Z</time></trkpt><trkpt lat="40.955051386021154" lon="14.138692572395641"><ele>54.0</ele><time>2026-04-24T12:25:36.001Z</time></trkpt><trkpt lat="40.95516228479779" lon="14.138690278449243"><ele>54.0</ele><time>2026-04-24T12:25:39.001Z</time></trkpt><trkpt lat="40.955154588706336" lon="14.138507197672222"><ele>54.00000000000001</ele><time>2026-04-24T12:25:50.001Z</time></trkpt><trkpt lat="40.95512325231008" lon="14.138427476371689"><ele>54.00000000000001</ele><time>2026-04-24T12:25:51.001Z</time></trkpt><trkpt lat="40.955082446388666" lon="14.13833598639851"><ele>54.0</ele><time>2026-04-24T12:25:52.001Z</time></trkpt><trkpt lat="40.955035150548326" lon="14.138226526847575"><ele>54.0</ele><time>2026-04-24T12:25:53.001Z</time></trkpt><trkpt lat="40.954985330983924" lon="14.138117752072858"><ele>54.25</ele><time>2026-04-24T12:25:54.001Z</time></trkpt><trkpt lat="40.95492914993903" lon="14.137991675600482"><ele>54.5</ele><time>2026-04-24T12:25:55.001Z</time></trkpt><trkpt lat="40.95487494187678" lon="14.137868339547781"><ele>54.75</ele><time>2026-04-24T12:25:56.001Z</time></trkpt><trkpt lat="40.95481884952979" lon="14.137731391904845"><ele>55.0</ele><time>2026-04-24T12:25:57.001Z</time></trkpt><trkpt lat="40.95475461521469" lon="14.137582299981805"><ele>55.0</ele><time>2026-04-24T12:25:58.001Z</time></trkpt><trkpt lat="40.95469170322625" lon="14.137439129991737"><ele>55.0</ele><time>2026-04-24T12:25:59.001Z</time></trkpt><trkpt lat="40.95462793424257" lon="14.137289498226336"><ele>55.0</ele><time>2026-04-24T12:26:00.001Z</time></trkpt><trkpt lat="40.95456005564622" lon="14.137135792198453"><ele>55.0</ele><time>2026-04-24T12:26:01Z</time></trkpt><trkpt lat="40.954490297657166" lon="14.13697985776638"><ele>55.0</ele><time>2026-04-24T12:26:02Z</time></trkpt><trkpt lat="40.954415931364345" lon="14.136818675780402"><ele>55.0</ele><time>2026-04-24T12:26:03Z</time></trkpt><trkpt lat="40.954346018951576" lon="14.136659760873306"><ele>55.0</ele><time>2026-04-24T12:26:04Z</time></trkpt><trkpt lat="40.95427352614057" lon="14.1365014254324"><ele>55.0</ele><time>2026-04-24T12:26:05Z</time></trkpt><trkpt lat="40.95420203254984" lon="14.136339019569531"><ele>54.75</ele><time>2026-04-24T12:26:06Z</time></trkpt><trkpt lat="40.9541271172338" lon="14.136174192243201"><ele>54.5</ele><time>2026-04-24T12:26:07Z</time></trkpt><trkpt lat="40.95405516823492" lon="14.136010834461022"><ele>54.25</ele><time>2026-04-24T12:26:08Z</time></trkpt><trkpt lat="40.953985319930574" lon="14.135846912384668"><ele>54.0</ele><time>2026-04-24T12:26:09Z</time></trkpt><trkpt lat="40.95391531732325" lon="14.135680499185442"><ele>54.0</ele><time>2026-04-24T12:26:10Z</time></trkpt><trkpt lat="40.9538394908364" lon="14.135512873020325"><ele>54.0</ele><time>2026-04-24T12:26:11Z</time></trkpt><trkpt lat="40.95375715403503" lon="14.135353992818539"><ele>54.0</ele><time>2026-04-24T12:26:12Z</time></trkpt><trkpt lat="40.95366524337839" lon="14.135194494281988"><ele>54.0</ele><time>2026-04-24T12:26:13Z</time></trkpt><trkpt lat="40.953579016209304" lon="14.135034445548088"><ele>53.66666666666667</ele><time>2026-04-24T12:26:14Z</time></trkpt><trkpt lat="40.95348969154341" lon="14.134872201124358"><ele>53.333333333333336</ele><time>2026-04-24T12:26:15Z</time></trkpt><trkpt lat="40.95338617500599" lon="14.134702823077516"><ele>53.0</ele><time>2026-04-24T12:26:16Z</time></trkpt><trkpt lat="40.9532766546063" lon="14.134530226619582"><ele>52.66666666666667</ele><time>2026-04-24T12:26:17Z</time></trkpt><trkpt lat="40.95316398147968" lon="14.134366156111735"><ele>52.33333333333333</ele><time>2026-04-24T12:26:18Z</time></trkpt><trkpt lat="40.95304966935118" lon="14.134199948294398"><ele>52.0</ele><time>2026-04-24T12:26:19Z</time></trkpt><trkpt lat="40.95293686781266" lon="14.134029214915277"><ele>51.666666666666664</ele><time>2026-04-24T12:26:20Z</time></trkpt><trkpt lat="40.95282219228592" lon="14.133860749133252"><ele>51.33333333333333</ele><time>2026-04-24T12:26:21Z</time></trkpt><trkpt lat="40.95270852668573" lon="14.13369070019342"><ele>51.0</ele><time>2026-04-24T12:26:22Z</time></trkpt><trkpt lat="40.95259149014669" lon="14.133521824770098"><ele>52.33333333333333</ele><time>2026-04-24T12:26:23Z</time></trkpt><trkpt lat="40.95246997648215" lon="14.133357261873012"><ele>53.666666666666664</ele><time>2026-04-24T12:26:24Z</time></trkpt><trkpt lat="40.95234373307917" lon="14.133196425603629"><ele>55.0</ele><time>2026-04-24T12:26:25Z</time></trkpt><trkpt lat="40.95222331474904" lon="14.13303231164985"><ele>55.0</ele><time>2026-04-24T12:26:26Z</time></trkpt><trkpt lat="40.95210659863364" lon="14.132882849349112"><ele>55.0</ele><time>2026-04-24T12:26:27Z</time></trkpt><trkpt lat="40.9520021325035" lon="14.132734141058608"><ele>55.0</ele><time>2026-04-24T12:26:28Z</time></trkpt><trkpt lat="40.95190188958814" lon="14.132594902534937"><ele>55.0</ele><time>2026-04-24T12:26:29Z</time></trkpt><trkpt lat="40.951807935125544" lon="14.132465407909173"><ele>55.0</ele><time>2026-04-24T12:26:30Z</time></trkpt><trkpt lat="40.95172076950552" lon="14.132332206678324"><ele>55.0</ele><time>2026-04-24T12:26:31Z</time></trkpt><trkpt lat="40.95164185936304" lon="14.13219491405141"><ele>55.0</ele><time>2026-04-24T12:26:32Z</time></trkpt><trkpt lat="40.95157821820406" lon="14.13205217354528"><ele>54.75</ele><time>2026-04-24T12:26:33Z</time></trkpt><trkpt lat="40.951501182824714" lon="14.131901342676223"><ele>54.5</ele><time>2026-04-24T12:26:34Z</time></trkpt><trkpt lat="40.95143398604531" lon="14.131744747340441"><ele>54.25</ele><time>2026-04-24T12:26:35Z</time></trkpt><trkpt lat="40.95137886996641" lon="14.13157876796436"><ele>54.0</ele><time>2026-04-24T12:26:36Z</time></trkpt><trkpt lat="40.95133072212921" lon="14.131404501232145"><ele>54.0</ele><time>2026-04-24T12:26:37Z</time></trkpt><trkpt lat="40.95128226749991" lon="14.131219315353116"><ele>54.0</ele><time>2026-04-24T12:26:38Z</time></trkpt><trkpt lat="40.951233316892164" lon="14.13102827415778"><ele>54.0</ele><time>2026-04-24T12:26:39Z</time></trkpt><trkpt lat="40.95119635838391" lon="14.13083280984574"><ele>54.0</ele><time>2026-04-24T12:26:40Z</time></trkpt><trkpt lat="40.951149717357985" lon="14.1306459356069"><ele>54.0</ele><time>2026-04-24T12:26:41Z</time></trkpt><trkpt lat="40.95110032411811" lon="14.130445223745728"><ele>54.0</ele><time>2026-04-24T12:26:42Z</time></trkpt><trkpt lat="40.95105605766095" lon="14.130261291500542"><ele>54.0</ele><time>2026-04-24T12:26:43Z</time></trkpt><trkpt lat="40.951013147261705" lon="14.130080929853378"><ele>54.0</ele><time>2026-04-24T12:26:44Z</time></trkpt><trkpt lat="40.950967236347445" lon="14.12989447627454"><ele>54.0</ele><time>2026-04-24T12:26:45Z</time></trkpt><trkpt lat="40.950923536034075" lon="14.129722095461013"><ele>54.0</ele><time>2026-04-24T12:26:46Z</time></trkpt><trkpt lat="40.9508834606267" lon="14.12956272865526"><ele>54.0</ele><time>2026-04-24T12:26:47Z</time></trkpt><trkpt lat="40.950847730430986" lon="14.129417036577834"><ele>54.0</ele><time>2026-04-24T12:26:48Z</time></trkpt><trkpt lat="40.950813090882285" lon="14.129275791757664"><ele>54.0</ele><time>2026-04-24T12:26:49Z</time></trkpt><trkpt lat="40.95077348375127" lon="14.129114291172046"><ele>54.0</ele><time>2026-04-24T12:26:50Z</time></trkpt><trkpt lat="40.95073619085939" lon="14.128962227169014"><ele>53.800000000000004</ele><time>2026-04-24T12:26:51Z</time></trkpt><trkpt lat="40.95070016679054" lon="14.12881533679882"><ele>53.60000000000001</ele><time>2026-04-24T12:26:52Z</time></trkpt><trkpt lat="40.950663272878266" lon="14.12866489970297"><ele>53.4</ele><time>2026-04-24T12:26:53Z</time></trkpt><trkpt lat="40.95063042764673" lon="14.128524684319054"><ele>53.2</ele><time>2026-04-24T12:26:54Z</time></trkpt><trkpt lat="40.95060129878562" lon="14.12839828918933"><ele>53.0</ele><time>2026-04-24T12:26:55Z</time></trkpt><trkpt lat="40.950572979078075" lon="14.128281923967048"><ele>53.16666666666667</ele><time>2026-04-24T12:26:56Z</time></trkpt><trkpt lat="40.95053526365168" lon="14.128184266041169"><ele>53.333333333333336</ele><time>2026-04-24T12:26:57Z</time></trkpt><trkpt lat="40.950523355387624" lon="14.128082379844901"><ele>53.5</ele><time>2026-04-24T12:26:58Z</time></trkpt><trkpt lat="40.950509334173375" lon="14.127999384297535"><ele>53.66666666666667</ele><time>2026-04-24T12:26:59Z</time></trkpt><trkpt lat="40.95048547688884" lon="14.127885597089218"><ele>53.833333333333336</ele><time>2026-04-24T12:27:01Z</time></trkpt><trkpt lat="40.950448663503956" lon="14.127814015148395"><ele>54.0</ele><time>2026-04-24T12:27:07Z</time></trkpt><trkpt lat="40.950317790536765" lon="14.127852056921244"><ele>54.0</ele><time>2026-04-24T12:27:16Z</time></trkpt><trkpt lat="40.95020573144321" lon="14.12794007631747"><ele>54.0</ele><time>2026-04-24T12:27:18Z</time></trkpt><trkpt lat="40.950140571311806" lon="14.127994139430692"><ele>54.0</ele><time>2026-04-24T12:27:19Z</time></trkpt><trkpt lat="40.95007201834403" lon="14.128043803347282"><ele>54.0</ele><time>2026-04-24T12:27:20Z</time></trkpt><trkpt lat="40.95001944306919" lon="14.128096889729596"><ele>54.0</ele><time>2026-04-24T12:27:21Z</time></trkpt><trkpt lat="40.94993386782818" lon="14.12814590546206"><ele>54.0</ele><time>2026-04-24T12:27:23Z</time></trkpt><trkpt lat="40.94983386283693" lon="14.127986587648582"><ele>53.833333333333336</ele><time>2026-04-24T12:27:26Z</time></trkpt><trkpt lat="40.949816450152845" lon="14.127895167705491"><ele>53.66666666666667</ele><time>2026-04-24T12:27:27Z</time></trkpt><trkpt lat="40.949823055541664" lon="14.127776194009257"><ele>53.5</ele><time>2026-04-24T12:27:28Z</time></trkpt><trkpt lat="40.949809650553625" lon="14.127642394856505"><ele>53.333333333333336</ele><time>2026-04-24T12:27:29Z</time></trkpt><trkpt lat="40.949798848293945" lon="14.127523129758536"><ele>53.16666666666667</ele><time>2026-04-24T12:27:30Z</time></trkpt><trkpt lat="40.94978980677529" lon="14.127412328704805"><ele>53.0</ele><time>2026-04-24T12:27:31Z</time></trkpt><trkpt lat="40.949769541891015" lon="14.127297656322904"><ele>52.5</ele><time>2026-04-24T12:27:32Z</time></trkpt><trkpt lat="40.949760366137525" lon="14.127168556430583"><ele>52.0</ele><time>2026-04-24T12:27:33Z</time></trkpt><trkpt lat="40.94975896666962" lon="14.127026439161089"><ele>51.5</ele><time>2026-04-24T12:27:34Z</time></trkpt><trkpt lat="40.94975551057384" lon="14.126866447291942"><ele>51.0</ele><time>2026-04-24T12:27:35Z</time></trkpt><trkpt lat="40.949752776308735" lon="14.126697671624797"><ele>51.0</ele><time>2026-04-24T12:27:36Z</time></trkpt><trkpt lat="40.94974402365888" lon="14.12653212527741"><ele>51.0</ele><time>2026-04-24T12:27:37Z</time></trkpt><trkpt lat="40.949754750860784" lon="14.126361584522735"><ele>51.0</ele><time>2026-04-24T12:27:38Z</time></trkpt><trkpt lat="40.94975049282728" lon="14.12618383547977"><ele>51.0</ele><time>2026-04-24T12:27:39.001Z</time></trkpt><trkpt lat="40.949732879377756" lon="14.126004106219849"><ele>51.0</ele><time>2026-04-24T12:27:40.001Z</time></trkpt><trkpt lat="40.94973202309399" lon="14.125820659210126"><ele>51.0</ele><time>2026-04-24T12:27:41.001Z</time></trkpt><trkpt lat="40.94972514202402" lon="14.125634878518229"><ele>51.0</ele><time>2026-04-24T12:27:42.001Z</time></trkpt><trkpt lat="40.949721876136636" lon="14.125442411282277"><ele>51.0</ele><time>2026-04-24T12:27:43.001Z</time></trkpt><trkpt lat="40.9497206583313" lon="14.125243320254464"><ele>51.33333333333333</ele><time>2026-04-24T12:27:44.001Z</time></trkpt><trkpt lat="40.949716140118774" lon="14.125034843147079"><ele>51.666666666666664</ele><time>2026-04-24T12:27:45.001Z</time></trkpt><trkpt lat="40.94971106456276" lon="14.1248292383567"><ele>52.0</ele><time>2026-04-24T12:27:46.001Z</time></trkpt><trkpt lat="40.9497051993911" lon="14.124620860503688"><ele>52.33333333333333</ele><time>2026-04-24T12:27:47.001Z</time></trkpt><trkpt lat="40.94969596034047" lon="14.124410528552215"><ele>52.66666666666667</ele><time>2026-04-24T12:27:48.001Z</time></trkpt><trkpt lat="40.94968797725586" lon="14.124198594527353"><ele>53.0</ele><time>2026-04-24T12:27:49.001Z</time></trkpt><trkpt lat="40.94968050287622" lon="14.1239852101206"><ele>53.333333333333336</ele><time>2026-04-24T12:27:50.001Z</time></trkpt><trkpt lat="40.949673352192704" lon="14.123769464273233"><ele>53.66666666666667</ele><time>2026-04-24T12:27:51.001Z</time></trkpt><trkpt lat="40.94966828690794" lon="14.123555996963619"><ele>54.0</ele><time>2026-04-24T12:27:52.001Z</time></trkpt><trkpt lat="40.94966171485255" lon="14.123336647988582"><ele>54.0</ele><time>2026-04-24T12:27:53.001Z</time></trkpt><trkpt lat="40.94965589418488" lon="14.123117340471014"><ele>54.0</ele><time>2026-04-24T12:27:54.001Z</time></trkpt><trkpt lat="40.94964922290287" lon="14.122893024573093"><ele>54.0</ele><time>2026-04-24T12:27:55.001Z</time></trkpt><trkpt lat="40.949643080658056" lon="14.122667901473847"><ele>54.0</ele><time>2026-04-24T12:27:56.001Z</time></trkpt><trkpt lat="40.949640332620945" lon="14.122449827200015"><ele>54.0</ele><time>2026-04-24T12:27:57.001Z</time></trkpt><trkpt lat="40.94963574521802" lon="14.12223105379229"><ele>54.0</ele><time>2026-04-24T12:27:58.001Z</time></trkpt><trkpt lat="40.94964270595579" lon="14.122014569155047"><ele>54.0</ele><time>2026-04-24T12:27:59.001Z</time></trkpt><trkpt lat="40.94963904185225" lon="14.12178990934164"><ele>54.0</ele><time>2026-04-24T12:28:00.001Z</time></trkpt><trkpt lat="40.949634935846134" lon="14.121569090772617"><ele>54.0</ele><time>2026-04-24T12:28:01.001Z</time></trkpt><trkpt lat="40.94961494579468" lon="14.121353534566934"><ele>54.0</ele><time>2026-04-24T12:28:02.001Z</time></trkpt><trkpt lat="40.94961126687878" lon="14.121138965726265"><ele>54.0</ele><time>2026-04-24T12:28:03.001Z</time></trkpt><trkpt lat="40.94960345589081" lon="14.120920532022962"><ele>54.0</ele><time>2026-04-24T12:28:04Z</time></trkpt><trkpt lat="40.94959622154538" lon="14.12070580991621"><ele>53.66666666666667</ele><time>2026-04-24T12:28:05Z</time></trkpt><trkpt lat="40.94959122291838" lon="14.120480455256791"><ele>53.333333333333336</ele><time>2026-04-24T12:28:06Z</time></trkpt><trkpt lat="40.94958447571275" lon="14.120261662037418"><ele>53.0</ele><time>2026-04-24T12:28:07Z</time></trkpt><trkpt lat="40.94958050890215" lon="14.120039955774477"><ele>52.66666666666667</ele><time>2026-04-24T12:28:08Z</time></trkpt><trkpt lat="40.949574378545954" lon="14.119809252342009"><ele>52.33333333333333</ele><time>2026-04-24T12:28:09Z</time></trkpt><trkpt lat="40.94956808525425" lon="14.11958181629125"><ele>52.0</ele><time>2026-04-24T12:28:10Z</time></trkpt><trkpt lat="40.94956542437944" lon="14.11935589881181"><ele>52.0</ele><time>2026-04-24T12:28:11Z</time></trkpt><trkpt lat="40.9495590320862" lon="14.119120679522739"><ele>52.0</ele><time>2026-04-24T12:28:12Z</time></trkpt><trkpt lat="40.94955439772531" lon="14.11888661282604"><ele>52.0</ele><time>2026-04-24T12:28:13Z</time></trkpt><trkpt lat="40.949547837453515" lon="14.118650339096094"><ele>52.0</ele><time>2026-04-24T12:28:14Z</time></trkpt><trkpt lat="40.949543929807454" lon="14.118418466739152"><ele>52.0</ele><time>2026-04-24T12:28:15Z</time></trkpt><trkpt lat="40.94954006438154" lon="14.11818540253546"><ele>52.0</ele><time>2026-04-24T12:28:16Z</time></trkpt><trkpt lat="40.94953459377909" lon="14.117946974846422"><ele>51.666666666666664</ele><time>2026-04-24T12:28:17Z</time></trkpt><trkpt lat="40.94953031684624" lon="14.117709690980368"><ele>51.33333333333333</ele><time>2026-04-24T12:28:18Z</time></trkpt><trkpt lat="40.94952486973648" lon="14.117470690602023"><ele>51.0</ele><time>2026-04-24T12:28:19Z</time></trkpt><trkpt lat="40.949517071396016" lon="14.11722211606223"><ele>50.66666666666667</ele><time>2026-04-24T12:28:20Z</time></trkpt><trkpt lat="40.94951247968823" lon="14.116970461722017"><ele>50.333333333333336</ele><time>2026-04-24T12:28:21Z</time></trkpt><trkpt lat="40.94950645776596" lon="14.116720415324162"><ele>50.0</ele><time>2026-04-24T12:28:22Z</time></trkpt><trkpt lat="40.94949800765546" lon="14.116472742201479"><ele>49.333333333333336</ele><time>2026-04-24T12:28:23Z</time></trkpt><trkpt lat="40.949492745902056" lon="14.116221467133798"><ele>48.66666666666667</ele><time>2026-04-24T12:28:24Z</time></trkpt><trkpt lat="40.949487720544674" lon="14.115967960322457"><ele>48.0</ele><time>2026-04-24T12:28:25Z</time></trkpt><trkpt lat="40.949483606345396" lon="14.115716418631798"><ele>48.0</ele><time>2026-04-24T12:28:26Z</time></trkpt><trkpt lat="40.9494775505423" lon="14.115468209179646"><ele>48.0</ele><time>2026-04-24T12:28:27Z</time></trkpt><trkpt lat="40.94947357903828" lon="14.115225736707218"><ele>48.0</ele><time>2026-04-24T12:28:28Z</time></trkpt><trkpt lat="40.9494669804118" lon="14.114980738329288"><ele>48.0</ele><time>2026-04-24T12:28:29Z</time></trkpt><trkpt lat="40.949460783364145" lon="14.114735201371554"><ele>48.0</ele><time>2026-04-24T12:28:30Z</time></trkpt><trkpt lat="40.94945492711544" lon="14.11449282725474"><ele>48.0</ele><time>2026-04-24T12:28:31Z</time></trkpt><trkpt lat="40.94945038667668" lon="14.114250566428632"><ele>47.666666666666664</ele><time>2026-04-24T12:28:32Z</time></trkpt><trkpt lat="40.949443184526274" lon="14.114002013040547"><ele>47.33333333333333</ele><time>2026-04-24T12:28:33Z</time></trkpt><trkpt lat="40.94943164863416" lon="14.113758489203665"><ele>47.0</ele><time>2026-04-24T12:28:34Z</time></trkpt><trkpt lat="40.94944456696612" lon="14.113516241653674"><ele>47.0</ele><time>2026-04-24T12:28:35Z</time></trkpt><trkpt lat="40.94944063436069" lon="14.113275608168129"><ele>47.0</ele><time>2026-04-24T12:28:36Z</time></trkpt><trkpt lat="40.94943513792252" lon="14.113029540173976"><ele>47.0</ele><time>2026-04-24T12:28:37Z</time></trkpt><trkpt lat="40.94942922708147" lon="14.112784771786593"><ele>47.0</ele><time>2026-04-24T12:28:38Z</time></trkpt><trkpt lat="40.94942251559283" lon="14.112536548389105"><ele>47.0</ele><time>2026-04-24T12:28:39Z</time></trkpt><trkpt lat="40.94941605849939" lon="14.112290533752697"><ele>47.0</ele><time>2026-04-24T12:28:40Z</time></trkpt><trkpt lat="40.94940996503773" lon="14.112041960761774"><ele>47.33333333333333</ele><time>2026-04-24T12:28:41Z</time></trkpt><trkpt lat="40.94940423099748" lon="14.111793992975194"><ele>47.666666666666664</ele><time>2026-04-24T12:28:42Z</time></trkpt><trkpt lat="40.94939917051371" lon="14.111543659876917"><ele>48.0</ele><time>2026-04-24T12:28:43Z</time></trkpt><trkpt lat="40.94939400816145" lon="14.111288287531478"><ele>46.666666666666664</ele><time>2026-04-24T12:28:44Z</time></trkpt><trkpt lat="40.94938879443916" lon="14.111030374025516"><ele>45.33333333333333</ele><time>2026-04-24T12:28:45Z</time></trkpt><trkpt lat="40.94938323580935" lon="14.110775475032698"><ele>44.0</ele><time>2026-04-24T12:28:46Z</time></trkpt><trkpt lat="40.94937758359678" lon="14.110517214890962"><ele>44.0</ele><time>2026-04-24T12:28:47Z</time></trkpt><trkpt lat="40.94937184533088" lon="14.110255022806564"><ele>44.0</ele><time>2026-04-24T12:28:48Z</time></trkpt><trkpt lat="40.94936568763145" lon="14.109989473612814"><ele>44.0</ele><time>2026-04-24T12:28:49Z</time></trkpt><trkpt lat="40.94935948332212" lon="14.109723303993432"><ele>44.33333333333333</ele><time>2026-04-24T12:28:50Z</time></trkpt><trkpt lat="40.94935292378666" lon="14.109455086060654"><ele>44.666666666666664</ele><time>2026-04-24T12:28:51Z</time></trkpt><trkpt lat="40.9493467581476" lon="14.109186986292663"><ele>45.0</ele><time>2026-04-24T12:28:52Z</time></trkpt><trkpt lat="40.94934045535687" lon="14.10891957775573"><ele>45.0</ele><time>2026-04-24T12:28:53Z</time></trkpt><trkpt lat="40.949334187521906" lon="14.10866049791373"><ele>45.0</ele><time>2026-04-24T12:28:54Z</time></trkpt><trkpt lat="40.9493290200894" lon="14.108405556414457"><ele>45.0</ele><time>2026-04-24T12:28:55Z</time></trkpt><trkpt lat="40.94932410235168" lon="14.108151634921608"><ele>44.666666666666664</ele><time>2026-04-24T12:28:56Z</time></trkpt><trkpt lat="40.949319166494604" lon="14.10789677784392"><ele>44.33333333333333</ele><time>2026-04-24T12:28:57Z</time></trkpt><trkpt lat="40.94931424349503" lon="14.107642584652751"><ele>44.0</ele><time>2026-04-24T12:28:58Z</time></trkpt><trkpt lat="40.94930896905854" lon="14.107388895176939"><ele>43.666666666666664</ele><time>2026-04-24T12:28:59Z</time></trkpt><trkpt lat="40.94930253617593" lon="14.10713255225065"><ele>43.333333333333336</ele><time>2026-04-24T12:29:00Z</time></trkpt><trkpt lat="40.949296035253866" lon="14.10687349810366"><ele>43.0</ele><time>2026-04-24T12:29:01Z</time></trkpt><trkpt lat="40.94928948932768" lon="14.10661306774894"><ele>42.66666666666667</ele><time>2026-04-24T12:29:02Z</time></trkpt><trkpt lat="40.9492839721108" lon="14.106351059456681"><ele>42.333333333333336</ele><time>2026-04-24T12:29:03Z</time></trkpt><trkpt lat="40.949281908678365" lon="14.106088956840724"><ele>42.0</ele><time>2026-04-24T12:29:04Z</time></trkpt><trkpt lat="40.949283912250294" lon="14.105831947589564"><ele>42.0</ele><time>2026-04-24T12:29:05Z</time></trkpt><trkpt lat="40.949282427571134" lon="14.105572495832412"><ele>42.0</ele><time>2026-04-24T12:29:06Z</time></trkpt><trkpt lat="40.94927852937784" lon="14.105312102359166"><ele>42.0</ele><time>2026-04-24T12:29:07Z</time></trkpt><trkpt lat="40.949272608269006" lon="14.105052565957145"><ele>42.333333333333336</ele><time>2026-04-24T12:29:08Z</time></trkpt><trkpt lat="40.94926517931728" lon="14.104791959509663"><ele>42.66666666666667</ele><time>2026-04-24T12:29:09Z</time></trkpt><trkpt lat="40.94925755189618" lon="14.10453377289384"><ele>43.0</ele><time>2026-04-24T12:29:10Z</time></trkpt><trkpt lat="40.949249899606734" lon="14.104274744558518"><ele>42.66666666666667</ele><time>2026-04-24T12:29:11Z</time></trkpt><trkpt lat="40.94924431127084" lon="14.104018685316301"><ele>42.333333333333336</ele><time>2026-04-24T12:29:12Z</time></trkpt><trkpt lat="40.94923983989228" lon="14.103761427614842"><ele>42.0</ele><time>2026-04-24T12:29:13Z</time></trkpt><trkpt lat="40.94923421690443" lon="14.103506415892145"><ele>42.0</ele><time>2026-04-24T12:29:14Z</time></trkpt><trkpt lat="40.949228382352835" lon="14.103256136002425"><ele>42.0</ele><time>2026-04-24T12:29:15Z</time></trkpt><trkpt lat="40.94922061836748" lon="14.103006064722956"><ele>42.0</ele><time>2026-04-24T12:29:16Z</time></trkpt><trkpt lat="40.94921219708258" lon="14.102752584129757"><ele>43.0</ele><time>2026-04-24T12:29:17Z</time></trkpt><trkpt lat="40.949204429765835" lon="14.102504317724337"><ele>44.0</ele><time>2026-04-24T12:29:18Z</time></trkpt><trkpt lat="40.94920241075151" lon="14.102264151198936"><ele>45.0</ele><time>2026-04-24T12:29:19Z</time></trkpt><trkpt lat="40.94919921735071" lon="14.102029112945056"><ele>45.0</ele><time>2026-04-24T12:29:20Z</time></trkpt><trkpt lat="40.94919260714643" lon="14.101799617218663"><ele>45.0</ele><time>2026-04-24T12:29:21Z</time></trkpt><trkpt lat="40.949184610834315" lon="14.101578063456355"><ele>45.0</ele><time>2026-04-24T12:29:22Z</time></trkpt><trkpt lat="40.94917406621012" lon="14.10136185502496"><ele>44.666666666666664</ele><time>2026-04-24T12:29:23Z</time></trkpt><trkpt lat="40.94915838297461" lon="14.101143707587122"><ele>44.33333333333333</ele><time>2026-04-24T12:29:24Z</time></trkpt><trkpt lat="40.94913876074499" lon="14.100927783187776"><ele>44.0</ele><time>2026-04-24T12:29:25Z</time></trkpt><trkpt lat="40.94911877129206" lon="14.100712589511247"><ele>44.0</ele><time>2026-04-24T12:29:26Z</time></trkpt><trkpt lat="40.94908674464282" lon="14.100497304920047"><ele>44.0</ele><time>2026-04-24T12:29:27Z</time></trkpt><trkpt lat="40.94904950197264" lon="14.100283082058864"><ele>44.0</ele><time>2026-04-24T12:29:28Z</time></trkpt><trkpt lat="40.94900766297237" lon="14.10007147440152"><ele>43.666666666666664</ele><time>2026-04-24T12:29:29Z</time></trkpt><trkpt lat="40.948960890571975" lon="14.09986408367494"><ele>43.333333333333336</ele><time>2026-04-24T12:29:30Z</time></trkpt><trkpt lat="40.94890899607265" lon="14.099658544396508"><ele>43.0</ele><time>2026-04-24T12:29:31Z</time></trkpt><trkpt lat="40.94885287587014" lon="14.099454772307372"><ele>43.0</ele><time>2026-04-24T12:29:32Z</time></trkpt><trkpt lat="40.94877691650987" lon="14.099260508380361"><ele>43.0</ele><time>2026-04-24T12:29:33Z</time></trkpt><trkpt lat="40.94871955056666" lon="14.099056089286652"><ele>43.0</ele><time>2026-04-24T12:29:34Z</time></trkpt><trkpt lat="40.94865674348434" lon="14.098856708799211"><ele>43.0</ele><time>2026-04-24T12:29:35Z</time></trkpt><trkpt lat="40.948599952226026" lon="14.098668650264074"><ele>43.0</ele><time>2026-04-24T12:29:36Z</time></trkpt><trkpt lat="40.9485540526778" lon="14.098490393667726"><ele>43.0</ele><time>2026-04-24T12:29:37Z</time></trkpt><trkpt lat="40.94850370316213" lon="14.098324346032937"><ele>43.0</ele><time>2026-04-24T12:29:38Z</time></trkpt><trkpt lat="40.94845690505537" lon="14.098166094666913"><ele>43.0</ele><time>2026-04-24T12:29:39Z</time></trkpt><trkpt lat="40.948409932540876" lon="14.09801045001975"><ele>43.0</ele><time>2026-04-24T12:29:40Z</time></trkpt><trkpt lat="40.94836503433024" lon="14.097856467098092"><ele>43.0</ele><time>2026-04-24T12:29:41Z</time></trkpt><trkpt lat="40.94831997691934" lon="14.097712433138787"><ele>43.0</ele><time>2026-04-24T12:29:41.999Z</time></trkpt><trkpt lat="40.94827811026673" lon="14.097579085885842"><ele>43.0</ele><time>2026-04-24T12:29:42.999Z</time></trkpt><trkpt lat="40.94825925861199" lon="14.09745260047061"><ele>43.0</ele><time>2026-04-24T12:29:43.999Z</time></trkpt><trkpt lat="40.94821502764204" lon="14.09735086773408"><ele>43.0</ele><time>2026-04-24T12:29:45.001Z</time></trkpt><trkpt lat="40.94818293390355" lon="14.097252129186938"><ele>43.0</ele><time>2026-04-24T12:29:46.001Z</time></trkpt><trkpt lat="40.94815191124208" lon="14.097154921729675"><ele>43.0</ele><time>2026-04-24T12:29:47.001Z</time></trkpt><trkpt lat="40.94812213216802" lon="14.097060781451438"><ele>43.0</ele><time>2026-04-24T12:29:48.001Z</time></trkpt><trkpt lat="40.948095054249386" lon="14.096977085639313"><ele>42.833333333333336</ele><time>2026-04-24T12:29:49.001Z</time></trkpt><trkpt lat="40.94807130411071" lon="14.096893757792952"><ele>42.66666666666667</ele><time>2026-04-24T12:29:50.001Z</time></trkpt><trkpt lat="40.948049847799396" lon="14.09673228398565"><ele>42.5</ele><time>2026-04-24T12:29:52.001Z</time></trkpt><trkpt lat="40.948051436197474" lon="14.09663065342399"><ele>42.333333333333336</ele><time>2026-04-24T12:29:53.001Z</time></trkpt><trkpt lat="40.94803918139288" lon="14.09654098962911"><ele>42.166666666666664</ele><time>2026-04-24T12:29:54.001Z</time></trkpt><trkpt lat="40.94802163545968" lon="14.096453077592207"><ele>42.0</ele><time>2026-04-24T12:29:55.001Z</time></trkpt><trkpt lat="40.94799568923391" lon="14.096361532261035"><ele>41.714285714285715</ele><time>2026-04-24T12:29:56.001Z</time></trkpt><trkpt lat="40.947963517916385" lon="14.096281200923562"><ele>41.42857142857143</ele><time>2026-04-24T12:29:57.001Z</time></trkpt><trkpt lat="40.94792336903549" lon="14.096203985137917"><ele>41.14285714285714</ele><time>2026-04-24T12:29:58.001Z</time></trkpt><trkpt lat="40.94787486300271" lon="14.096139112551043"><ele>40.85714285714286</ele><time>2026-04-24T12:29:59.001Z</time></trkpt><trkpt lat="40.94784444919925" lon="14.096059837109392"><ele>40.57142857142857</ele><time>2026-04-24T12:30:00.001Z</time></trkpt><trkpt lat="40.94781119563953" lon="14.095977968289342"><ele>40.285714285714285</ele><time>2026-04-24T12:30:01.001Z</time></trkpt><trkpt lat="40.94778358415237" lon="14.0958987006414"><ele>40.0</ele><time>2026-04-24T12:30:02.001Z</time></trkpt><trkpt lat="40.94775764581204" lon="14.095819349762694"><ele>40.2</ele><time>2026-04-24T12:30:03.001Z</time></trkpt><trkpt lat="40.94773420166863" lon="14.095738568324315"><ele>40.4</ele><time>2026-04-24T12:30:04.001Z</time></trkpt><trkpt lat="40.94772553414138" lon="14.095591392467826"><ele>40.599999999999994</ele><time>2026-04-24T12:30:06.001Z</time></trkpt><trkpt lat="40.94771244494629" lon="14.095440032331307"><ele>40.8</ele><time>2026-04-24T12:30:08.001Z</time></trkpt><trkpt lat="40.94771207067418" lon="14.095275846615055"><ele>41.0</ele><time>2026-04-24T12:30:10.001Z</time></trkpt><trkpt lat="40.947718241547506" lon="14.095187072872642"><ele>40.99999999999999</ele><time>2026-04-24T12:30:11Z</time></trkpt><trkpt lat="40.94772375078741" lon="14.095101875344618"><ele>41.0</ele><time>2026-04-24T12:30:12Z</time></trkpt><trkpt lat="40.94772951128304" lon="14.095012792288445"><ele>41.0</ele><time>2026-04-24T12:30:13Z</time></trkpt><trkpt lat="40.94773323394284" lon="14.09492244321624"><ele>41.0</ele><time>2026-04-24T12:30:14Z</time></trkpt><trkpt lat="40.947736891071884" lon="14.094826070126661"><ele>41.0</ele><time>2026-04-24T12:30:15Z</time></trkpt><trkpt lat="40.94774061126614" lon="14.094728035169119"><ele>40.99999999999999</ele><time>2026-04-24T12:30:16Z</time></trkpt><trkpt lat="40.94774441819886" lon="14.094627714458133"><ele>41.0</ele><time>2026-04-24T12:30:17Z</time></trkpt><trkpt lat="40.94775209062951" lon="14.094527842619762"><ele>40.83333333333333</ele><time>2026-04-24T12:30:18Z</time></trkpt><trkpt lat="40.94776052381417" lon="14.094431771658506"><ele>40.666666666666664</ele><time>2026-04-24T12:30:19Z</time></trkpt><trkpt lat="40.94777559125971" lon="14.094265113814341"><ele>40.5</ele><time>2026-04-24T12:30:21Z</time></trkpt><trkpt lat="40.94778114084981" lon="14.094177768132964"><ele>40.333333333333336</ele><time>2026-04-24T12:30:22Z</time></trkpt><trkpt lat="40.94778505723475" lon="14.094091022688016"><ele>40.16666666666667</ele><time>2026-04-24T12:30:23Z</time></trkpt><trkpt lat="40.94778745749018" lon="14.093999573047904"><ele>40.0</ele><time>2026-04-24T12:30:24Z</time></trkpt><trkpt lat="40.947788958612485" lon="14.0939060443257"><ele>40.0</ele><time>2026-04-24T12:30:25Z</time></trkpt><trkpt lat="40.94778895861215" lon="14.09381568470222"><ele>40.0</ele><time>2026-04-24T12:30:26Z</time></trkpt><trkpt lat="40.947788958612975" lon="14.093724430793035"><ele>40.0</ele><time>2026-04-24T12:30:27Z</time></trkpt><trkpt lat="40.94778315780818" lon="14.093631409696073"><ele>40.0</ele><time>2026-04-24T12:30:28Z</time></trkpt><trkpt lat="40.94778473349926" lon="14.09353958691309"><ele>40.0</ele><time>2026-04-24T12:30:29Z</time></trkpt><trkpt lat="40.94778555480965" lon="14.093446980818564"><ele>40.0</ele><time>2026-04-24T12:30:30Z</time></trkpt><trkpt lat="40.94779022056843" lon="14.093349617354013"><ele>40.0</ele><time>2026-04-24T12:30:31Z</time></trkpt><trkpt lat="40.94781189869835" lon="14.093255582860703"><ele>40.0</ele><time>2026-04-24T12:30:32Z</time></trkpt><trkpt lat="40.94781881143558" lon="14.09315508806592"><ele>40.0</ele><time>2026-04-24T12:30:33Z</time></trkpt><trkpt lat="40.947824534768756" lon="14.093063843223964"><ele>40.0</ele><time>2026-04-24T12:30:34Z</time></trkpt><trkpt lat="40.947829842804204" lon="14.092979219176948"><ele>40.0</ele><time>2026-04-24T12:30:35Z</time></trkpt><trkpt lat="40.947834625833806" lon="14.092885433999514"><ele>40.0</ele><time>2026-04-24T12:30:36Z</time></trkpt><trkpt lat="40.94783926451904" lon="14.092791704679646"><ele>40.0</ele><time>2026-04-24T12:30:37Z</time></trkpt><trkpt lat="40.94784390608559" lon="14.092697917219299"><ele>40.0</ele><time>2026-04-24T12:30:38Z</time></trkpt><trkpt lat="40.94784894086619" lon="14.092596184369487"><ele>40.0</ele><time>2026-04-24T12:30:39Z</time></trkpt><trkpt lat="40.94785369601605" lon="14.092500474422021"><ele>40.0</ele><time>2026-04-24T12:30:40Z</time></trkpt><trkpt lat="40.947858139820944" lon="14.092398097282024"><ele>40.0</ele><time>2026-04-24T12:30:41Z</time></trkpt><trkpt lat="40.94786243064092" lon="14.092299244661637"><ele>40.0</ele><time>2026-04-24T12:30:42Z</time></trkpt><trkpt lat="40.94785060826003" lon="14.092202998804684"><ele>40.0</ele><time>2026-04-24T12:30:43Z</time></trkpt><trkpt lat="40.94787060163393" lon="14.092106357393225"><ele>40.0</ele><time>2026-04-24T12:30:44Z</time></trkpt><trkpt lat="40.94787416499469" lon="14.092019754968556"><ele>40.0</ele><time>2026-04-24T12:30:45Z</time></trkpt><trkpt lat="40.94787765791238" lon="14.09193486461637"><ele>39.857142857142854</ele><time>2026-04-24T12:30:46Z</time></trkpt><trkpt lat="40.947880924062574" lon="14.091839694523777"><ele>39.714285714285715</ele><time>2026-04-24T12:30:47Z</time></trkpt><trkpt lat="40.947867544844875" lon="14.091749864652014"><ele>39.57142857142857</ele><time>2026-04-24T12:30:48Z</time></trkpt><trkpt lat="40.94787098726734" lon="14.091657527751895"><ele>39.42857142857143</ele><time>2026-04-24T12:30:49Z</time></trkpt><trkpt lat="40.947878054666035" lon="14.091563747191717"><ele>39.285714285714285</ele><time>2026-04-24T12:30:50Z</time></trkpt><trkpt lat="40.94787831078378" lon="14.091470422064656"><ele>39.142857142857146</ele><time>2026-04-24T12:30:51Z</time></trkpt><trkpt lat="40.947885209387486" lon="14.09136598427107"><ele>39.0</ele><time>2026-04-24T12:30:52Z</time></trkpt><trkpt lat="40.94788387447637" lon="14.09127721388515"><ele>39.0</ele><time>2026-04-24T12:30:53Z</time></trkpt><trkpt lat="40.947893719309455" lon="14.091191810994975"><ele>39.0</ele><time>2026-04-24T12:30:54Z</time></trkpt><trkpt lat="40.947887532108226" lon="14.091096466974731"><ele>39.0</ele><time>2026-04-24T12:30:55Z</time></trkpt><trkpt lat="40.94789497453032" lon="14.091000617607543"><ele>39.0</ele><time>2026-04-24T12:30:56Z</time></trkpt><trkpt lat="40.947907145321565" lon="14.090903586045645"><ele>39.0</ele><time>2026-04-24T12:30:57Z</time></trkpt><trkpt lat="40.9478935883131" lon="14.090803002833788"><ele>39.0</ele><time>2026-04-24T12:30:58Z</time></trkpt><trkpt lat="40.94789737811641" lon="14.090707281546925"><ele>39.0</ele><time>2026-04-24T12:30:59Z</time></trkpt><trkpt lat="40.947908404236095" lon="14.09060891161355"><ele>39.142857142857146</ele><time>2026-04-24T12:31:00Z</time></trkpt><trkpt lat="40.947906347978076" lon="14.090515984466162"><ele>39.285714285714285</ele><time>2026-04-24T12:31:01Z</time></trkpt><trkpt lat="40.947908264436045" lon="14.090424905784252"><ele>39.42857142857143</ele><time>2026-04-24T12:31:02Z</time></trkpt><trkpt lat="40.947913983521055" lon="14.090338557198525"><ele>39.57142857142857</ele><time>2026-04-24T12:31:03Z</time></trkpt><trkpt lat="40.94791469677505" lon="14.090249134352963"><ele>39.714285714285715</ele><time>2026-04-24T12:31:04Z</time></trkpt><trkpt lat="40.94791541021311" lon="14.090156128401532"><ele>39.857142857142854</ele><time>2026-04-24T12:31:05Z</time></trkpt><trkpt lat="40.94792160900319" lon="14.090060186546085"><ele>40.0</ele><time>2026-04-24T12:31:06Z</time></trkpt><trkpt lat="40.94792759715555" lon="14.089969645094836"><ele>39.5</ele><time>2026-04-24T12:31:07Z</time></trkpt><trkpt lat="40.94793028792638" lon="14.089876940572234"><ele>39.0</ele><time>2026-04-24T12:31:08Z</time></trkpt><trkpt lat="40.947930866604274" lon="14.08978567655359"><ele>38.5</ele><time>2026-04-24T12:31:09Z</time></trkpt><trkpt lat="40.94793485158888" lon="14.089630203745639"><ele>38.0</ele><time>2026-04-24T12:31:11Z</time></trkpt><trkpt lat="40.94794030899903" lon="14.089540369700389"><ele>37.5</ele><time>2026-04-24T12:31:12Z</time></trkpt><trkpt lat="40.94795431453059" lon="14.0894584289706"><ele>37.0</ele><time>2026-04-24T12:31:13Z</time></trkpt><trkpt lat="40.94794226973728" lon="14.089369857026202"><ele>37.0</ele><time>2026-04-24T12:31:14Z</time></trkpt><trkpt lat="40.947949177620515" lon="14.089285511051775"><ele>37.0</ele><time>2026-04-24T12:31:15Z</time></trkpt><trkpt lat="40.94795838129537" lon="14.089199172746772"><ele>37.0</ele><time>2026-04-24T12:31:16Z</time></trkpt><trkpt lat="40.94796086744626" lon="14.089112505433247"><ele>37.0</ele><time>2026-04-24T12:31:17Z</time></trkpt><trkpt lat="40.94797642014547" lon="14.089018606288267"><ele>37.0</ele><time>2026-04-24T12:31:18Z</time></trkpt><trkpt lat="40.94798173606957" lon="14.08891660252348"><ele>37.0</ele><time>2026-04-24T12:31:19Z</time></trkpt><trkpt lat="40.947986615520115" lon="14.088819053654701"><ele>37.0</ele><time>2026-04-24T12:31:20Z</time></trkpt><trkpt lat="40.94799085360033" lon="14.088722488230433"><ele>37.0</ele><time>2026-04-24T12:31:21Z</time></trkpt><trkpt lat="40.947995630505865" lon="14.088613645578024"><ele>37.0</ele><time>2026-04-24T12:31:22Z</time></trkpt><trkpt lat="40.948000486806514" lon="14.088502993811533"><ele>37.0</ele><time>2026-04-24T12:31:23Z</time></trkpt><trkpt lat="40.948005828553036" lon="14.08838128111755"><ele>37.0</ele><time>2026-04-24T12:31:24Z</time></trkpt><trkpt lat="40.948011992416355" lon="14.088240836341773"><ele>37.0</ele><time>2026-04-24T12:31:24.999Z</time></trkpt><trkpt lat="40.94801852230343" lon="14.088092051738654"><ele>37.2</ele><time>2026-04-24T12:31:25.999Z</time></trkpt><trkpt lat="40.94802472952281" lon="14.087950619074034"><ele>37.400000000000006</ele><time>2026-04-24T12:31:26.999Z</time></trkpt><trkpt lat="40.94802914860933" lon="14.087812578982648"><ele>37.599999999999994</ele><time>2026-04-24T12:31:27.999Z</time></trkpt><trkpt lat="40.94803316206664" lon="14.087672903463396"><ele>37.8</ele><time>2026-04-24T12:31:28.999Z</time></trkpt><trkpt lat="40.94803727795664" lon="14.087527693485791"><ele>38.0</ele><time>2026-04-24T12:31:29.999Z</time></trkpt><trkpt lat="40.948040181482895" lon="14.087381834005221"><ele>37.6</ele><time>2026-04-24T12:31:30.999Z</time></trkpt><trkpt lat="40.948043346521835" lon="14.087236701859316"><ele>37.199999999999996</ele><time>2026-04-24T12:31:31.999Z</time></trkpt><trkpt lat="40.94803088061165" lon="14.087091402866086"><ele>36.8</ele><time>2026-04-24T12:31:32.999Z</time></trkpt><trkpt lat="40.94805105986935" lon="14.086950243033272"><ele>36.4</ele><time>2026-04-24T12:31:33.999Z</time></trkpt><trkpt lat="40.9480551075372" lon="14.086817492848084"><ele>36.0</ele><time>2026-04-24T12:31:34.999Z</time></trkpt><trkpt lat="40.94805920067502" lon="14.086683251426392"><ele>36.166666666666664</ele><time>2026-04-24T12:31:35.999Z</time></trkpt><trkpt lat="40.94806297204972" lon="14.086559562747189"><ele>36.333333333333336</ele><time>2026-04-24T12:31:36.999Z</time></trkpt><trkpt lat="40.94805029355054" lon="14.086446918528681"><ele>36.5</ele><time>2026-04-24T12:31:37.999Z</time></trkpt><trkpt lat="40.94806926305974" lon="14.086353268973259"><ele>36.66666666666667</ele><time>2026-04-24T12:31:38.999Z</time></trkpt><trkpt lat="40.948072094355055" lon="14.08626053244131"><ele>36.833333333333336</ele><time>2026-04-24T12:31:39.999Z</time></trkpt><trkpt lat="40.948065963243394" lon="14.086163839377967"><ele>37.0</ele><time>2026-04-24T12:31:40.999Z</time></trkpt><trkpt lat="40.94806584149217" lon="14.086065627809264"><ele>37.0</ele><time>2026-04-24T12:31:41.999Z</time></trkpt><trkpt lat="40.94806610914252" lon="14.085968146556038"><ele>37.0</ele><time>2026-04-24T12:31:42.999Z</time></trkpt><trkpt lat="40.94808381354035" lon="14.085866536192613"><ele>37.0</ele><time>2026-04-24T12:31:43.999Z</time></trkpt><trkpt lat="40.94808717969777" lon="14.08574866571174"><ele>37.0</ele><time>2026-04-24T12:31:44.999Z</time></trkpt><trkpt lat="40.94808957919557" lon="14.085639168587052"><ele>37.0</ele><time>2026-04-24T12:31:45.999Z</time></trkpt><trkpt lat="40.94809102719382" lon="14.085548475564128"><ele>37.0</ele><time>2026-04-24T12:31:46.999Z</time></trkpt><trkpt lat="40.94809249938438" lon="14.085450408743496"><ele>36.833333333333336</ele><time>2026-04-24T12:31:47.999Z</time></trkpt><trkpt lat="40.948093287840756" lon="14.08535564148891"><ele>36.66666666666667</ele><time>2026-04-24T12:31:48.999Z</time></trkpt><trkpt lat="40.948093754190666" lon="14.085264936430423"><ele>36.5</ele><time>2026-04-24T12:31:49.999Z</time></trkpt><trkpt lat="40.94808181543051" lon="14.085082290135215"><ele>36.333333333333336</ele><time>2026-04-24T12:31:52.001Z</time></trkpt><trkpt lat="40.948092356515545" lon="14.084971265404537"><ele>36.166666666666664</ele><time>2026-04-24T12:31:53.001Z</time></trkpt><trkpt lat="40.94809126210509" lon="14.084862289816575"><ele>36.0</ele><time>2026-04-24T12:31:54.001Z</time></trkpt><trkpt lat="40.948073175176006" lon="14.084758278761756"><ele>36.00000000000001</ele><time>2026-04-24T12:31:55.001Z</time></trkpt><trkpt lat="40.94807515838024" lon="14.084668860630764"><ele>36.0</ele><time>2026-04-24T12:31:56.001Z</time></trkpt><trkpt lat="40.94807332579194" lon="14.084566513455133"><ele>36.0</ele><time>2026-04-24T12:31:57.001Z</time></trkpt><trkpt lat="40.948079274997575" lon="14.084470291058912"><ele>36.0</ele><time>2026-04-24T12:31:58.001Z</time></trkpt><trkpt lat="40.94810412844649" lon="14.084375972735405"><ele>36.0</ele><time>2026-04-24T12:31:59.001Z</time></trkpt><trkpt lat="40.948120209393686" lon="14.084286669812498"><ele>36.00000000000001</ele><time>2026-04-24T12:32:00.001Z</time></trkpt><trkpt lat="40.94813355581413" lon="14.084202882576422"><ele>36.0</ele><time>2026-04-24T12:32:01.001Z</time></trkpt><trkpt lat="40.94814189826794" lon="14.084110719362037"><ele>35.833333333333336</ele><time>2026-04-24T12:32:02.001Z</time></trkpt><trkpt lat="40.94814668122144" lon="14.08401132185021"><ele>35.666666666666664</ele><time>2026-04-24T12:32:03.001Z</time></trkpt><trkpt lat="40.94814765862402" lon="14.08391107859484"><ele>35.5</ele><time>2026-04-24T12:32:04.001Z</time></trkpt><trkpt lat="40.948147658622666" lon="14.08381204548858"><ele>35.33333333333333</ele><time>2026-04-24T12:32:05.001Z</time></trkpt><trkpt lat="40.94814614543706" lon="14.083704359293437"><ele>35.166666666666664</ele><time>2026-04-24T12:32:06.001Z</time></trkpt><trkpt lat="40.94814411377579" lon="14.083607396045585"><ele>35.0</ele><time>2026-04-24T12:32:07.001Z</time></trkpt><trkpt lat="40.94814026753391" lon="14.08345842177858"><ele>35.0</ele><time>2026-04-24T12:32:09.001Z</time></trkpt><trkpt lat="40.94812270917325" lon="14.08333261126846"><ele>35.0</ele><time>2026-04-24T12:32:11.001Z</time></trkpt><trkpt lat="40.94812041807804" lon="14.083199190926894"><ele>35.0</ele><time>2026-04-24T12:32:13.001Z</time></trkpt><trkpt lat="40.94812035253504" lon="14.083052150869186"><ele>35.0</ele><time>2026-04-24T12:32:15Z</time></trkpt><trkpt lat="40.94811528801111" lon="14.082952821756967"><ele>35.0</ele><time>2026-04-24T12:32:16Z</time></trkpt><trkpt lat="40.94810406612724" lon="14.0828559639588"><ele>35.166666666666664</ele><time>2026-04-24T12:32:17Z</time></trkpt><trkpt lat="40.94810758175876" lon="14.082770335389997"><ele>35.33333333333333</ele><time>2026-04-24T12:32:18Z</time></trkpt><trkpt lat="40.948076467970466" lon="14.082588357268037"><ele>35.5</ele><time>2026-04-24T12:32:20Z</time></trkpt><trkpt lat="40.9480730506669" lon="14.082495002849198"><ele>35.666666666666664</ele><time>2026-04-24T12:32:21Z</time></trkpt><trkpt lat="40.948066627934296" lon="14.082404276461068"><ele>35.833333333333336</ele><time>2026-04-24T12:32:22Z</time></trkpt><trkpt lat="40.948062362642325" lon="14.08231273101027"><ele>36.0</ele><time>2026-04-24T12:32:23Z</time></trkpt><trkpt lat="40.94805861133331" lon="14.082216762130956"><ele>36.0</ele><time>2026-04-24T12:32:24Z</time></trkpt><trkpt lat="40.94806117613461" lon="14.082124720835374"><ele>36.0</ele><time>2026-04-24T12:32:25Z</time></trkpt><trkpt lat="40.94807767098267" lon="14.082028895584"><ele>36.0</ele><time>2026-04-24T12:32:26Z</time></trkpt><trkpt lat="40.948080050776824" lon="14.081932228964256"><ele>36.0</ele><time>2026-04-24T12:32:27Z</time></trkpt><trkpt lat="40.9480831045839" lon="14.081823726074443"><ele>36.0</ele><time>2026-04-24T12:32:28Z</time></trkpt><trkpt lat="40.948087183066114" lon="14.081703973800638"><ele>36.0</ele><time>2026-04-24T12:32:29Z</time></trkpt><trkpt lat="40.94809070707736" lon="14.081593319852983"><ele>36.0</ele><time>2026-04-24T12:32:30Z</time></trkpt><trkpt lat="40.94809434171934" lon="14.081483082021743"><ele>36.0</ele><time>2026-04-24T12:32:31Z</time></trkpt><trkpt lat="40.948098199418325" lon="14.08136795617882"><ele>36.0</ele><time>2026-04-24T12:32:32Z</time></trkpt><trkpt lat="40.94810167450185" lon="14.081264248813161"><ele>36.0</ele><time>2026-04-24T12:32:33Z</time></trkpt><trkpt lat="40.948104827492635" lon="14.08116071466622"><ele>36.0</ele><time>2026-04-24T12:32:34Z</time></trkpt><trkpt lat="40.948108025703974" lon="14.08105442459918"><ele>36.0</ele><time>2026-04-24T12:32:35Z</time></trkpt><trkpt lat="40.94811111940022" lon="14.08095160799202"><ele>36.00000000000001</ele><time>2026-04-24T12:32:36Z</time></trkpt><trkpt lat="40.94811398350215" lon="14.080850824000104"><ele>36.0</ele><time>2026-04-24T12:32:37Z</time></trkpt><trkpt lat="40.94810071335221" lon="14.080749002661918"><ele>36.0</ele><time>2026-04-24T12:32:38Z</time></trkpt><trkpt lat="40.94810830148331" lon="14.08064308721724"><ele>36.0</ele><time>2026-04-24T12:32:39Z</time></trkpt><trkpt lat="40.94811375080122" lon="14.080540127852567"><ele>36.0</ele><time>2026-04-24T12:32:40Z</time></trkpt><trkpt lat="40.948115322887304" lon="14.080447332636126"><ele>36.00000000000001</ele><time>2026-04-24T12:32:41Z</time></trkpt><trkpt lat="40.948114082869154" lon="14.080360379281835"><ele>36.0</ele><time>2026-04-24T12:32:42Z</time></trkpt><trkpt lat="40.94811490771632" lon="14.080227976125494"><ele>35.6</ele><time>2026-04-24T12:32:44Z</time></trkpt><trkpt lat="40.948116343774785" lon="14.080120255097535"><ele>35.2</ele><time>2026-04-24T12:32:47Z</time></trkpt><trkpt lat="40.94798658007583" lon="14.080052543368698"><ele>34.8</ele><time>2026-04-24T12:33:43.999Z</time></trkpt><trkpt lat="40.94787112769953" lon="14.080072193963977"><ele>34.4</ele><time>2026-04-24T12:33:45.999Z</time></trkpt><trkpt lat="40.94779694804785" lon="14.080078612595415"><ele>34.0</ele><time>2026-04-24T12:33:46.999Z</time></trkpt><trkpt lat="40.94770529210693" lon="14.080076890604023"><ele>34.0</ele><time>2026-04-24T12:33:47.999Z</time></trkpt><trkpt lat="40.94762230963948" lon="14.080071172339434"><ele>34.0</ele><time>2026-04-24T12:33:48.999Z</time></trkpt><trkpt lat="40.94754072290312" lon="14.08006953395928"><ele>34.0</ele><time>2026-04-24T12:33:49.999Z</time></trkpt><trkpt lat="40.94746711585063" lon="14.080065246306013"><ele>34.0</ele><time>2026-04-24T12:33:50.999Z</time></trkpt><trkpt lat="40.94736261424035" lon="14.080055233138129"><ele>34.0</ele><time>2026-04-24T12:33:52.999Z</time></trkpt><trkpt lat="40.947265358008714" lon="14.080075479260381"><ele>34.0</ele><time>2026-04-24T12:41:09.996Z</time></trkpt><trkpt lat="40.94716486972677" lon="14.080072521391076"><ele>34.333333333333336</ele><time>2026-04-24T12:41:11.996Z</time></trkpt><trkpt lat="40.947047322903" lon="14.08008503419477"><ele>34.66666666666667</ele><time>2026-04-24T12:41:13.997Z</time></trkpt><trkpt lat="40.946972983181944" lon="14.080047503738573"><ele>35.0</ele><time>2026-04-24T12:41:14.997Z</time></trkpt><trkpt lat="40.94689472561725" lon="14.080044788270575"><ele>35.333333333333336</ele><time>2026-04-24T12:41:15.997Z</time></trkpt><trkpt lat="40.946824752296244" lon="14.080041608555211"><ele>35.666666666666664</ele><time>2026-04-24T12:41:16.997Z</time></trkpt><trkpt lat="40.9467511061443" lon="14.080037363820955"><ele>36.0</ele><time>2026-04-24T12:41:17.997Z</time></trkpt><trkpt lat="40.94667671356768" lon="14.080054316905692"><ele>36.0</ele><time>2026-04-24T12:41:18.997Z</time></trkpt><trkpt lat="40.9465914332964" lon="14.08003156939837"><ele>36.0</ele><time>2026-04-24T12:41:19.997Z</time></trkpt><trkpt lat="40.94649967185003" lon="14.080051009231068"><ele>36.0</ele><time>2026-04-24T12:41:20.997Z</time></trkpt><trkpt lat="40.94640450778281" lon="14.080047710412956"><ele>36.0</ele><time>2026-04-24T12:41:21.997Z</time></trkpt><trkpt lat="40.94631169397106" lon="14.0800259423082"><ele>36.0</ele><time>2026-04-24T12:41:22.997Z</time></trkpt><trkpt lat="40.94622481913898" lon="14.080024194780925"><ele>36.0</ele><time>2026-04-24T12:41:23.997Z</time></trkpt><trkpt lat="40.9461340440721" lon="14.080022463170687"><ele>36.0</ele><time>2026-04-24T12:41:24.997Z</time></trkpt><trkpt lat="40.94603899875813" lon="14.080020787994702"><ele>36.0</ele><time>2026-04-24T12:41:25.997Z</time></trkpt><trkpt lat="40.94594000763805" lon="14.080019043273397"><ele>36.0</ele><time>2026-04-24T12:41:26.997Z</time></trkpt><trkpt lat="40.94583900006015" lon="14.080037919890765"><ele>36.0</ele><time>2026-04-24T12:41:27.997Z</time></trkpt><trkpt lat="40.94573520070083" lon="14.080029265463468"><ele>36.2</ele><time>2026-04-24T12:41:28.997Z</time></trkpt><trkpt lat="40.94563280691375" lon="14.080030256572194"><ele>36.400000000000006</ele><time>2026-04-24T12:41:29.997Z</time></trkpt><trkpt lat="40.945529929249595" lon="14.080026995507497"><ele>36.6</ele><time>2026-04-24T12:41:30.997Z</time></trkpt><trkpt lat="40.94543104022758" lon="14.080023628765097"><ele>36.800000000000004</ele><time>2026-04-24T12:41:31.997Z</time></trkpt><trkpt lat="40.945326538166775" lon="14.080017616274434"><ele>37.0</ele><time>2026-04-24T12:41:32.997Z</time></trkpt><trkpt lat="40.9452220002284" lon="14.080018154941099"><ele>37.0</ele><time>2026-04-24T12:41:33.997Z</time></trkpt><trkpt lat="40.94511853003233" lon="14.080014948855887"><ele>37.0</ele><time>2026-04-24T12:41:34.997Z</time></trkpt><trkpt lat="40.94501755176698" lon="14.080008118295215"><ele>37.0</ele><time>2026-04-24T12:41:35.997Z</time></trkpt><trkpt lat="40.94491388712165" lon="14.080007036848697"><ele>37.0</ele><time>2026-04-24T12:41:36.997Z</time></trkpt><trkpt lat="40.94481505501873" lon="14.080006237720475"><ele>37.0</ele><time>2026-04-24T12:41:37.997Z</time></trkpt><trkpt lat="40.94471584095675" lon="14.080007889121681"><ele>37.0</ele><time>2026-04-24T12:41:38.997Z</time></trkpt><trkpt lat="40.94462331051506" lon="14.080002012147958"><ele>37.0</ele><time>2026-04-24T12:41:39.997Z</time></trkpt><trkpt lat="40.944518815162326" lon="14.080002786376872"><ele>37.0</ele><time>2026-04-24T12:41:40.997Z</time></trkpt><trkpt lat="40.94441819988891" lon="14.079994155234745"><ele>37.0</ele><time>2026-04-24T12:41:41.997Z</time></trkpt><trkpt lat="40.94431768441373" lon="14.079987867538184"><ele>37.0</ele><time>2026-04-24T12:41:42.997Z</time></trkpt><trkpt lat="40.944211785147544" lon="14.079987814505044"><ele>36.800000000000004</ele><time>2026-04-24T12:41:43.997Z</time></trkpt><trkpt lat="40.944114349772974" lon="14.079972344496259"><ele>36.6</ele><time>2026-04-24T12:41:44.997Z</time></trkpt><trkpt lat="40.944008163666226" lon="14.079970414319096"><ele>36.400000000000006</ele><time>2026-04-24T12:41:45.997Z</time></trkpt><trkpt lat="40.94390173768437" lon="14.079966736413901"><ele>36.2</ele><time>2026-04-24T12:41:46.997Z</time></trkpt><trkpt lat="40.943794077466436" lon="14.079966620516785"><ele>36.0</ele><time>2026-04-24T12:41:47.997Z</time></trkpt><trkpt lat="40.94368884047435" lon="14.079968588502403"><ele>36.0</ele><time>2026-04-24T12:41:48.997Z</time></trkpt><trkpt lat="40.94358388855131" lon="14.079969062677614"><ele>36.0</ele><time>2026-04-24T12:41:49.997Z</time></trkpt><trkpt lat="40.94348769139031" lon="14.079973369990642"><ele>36.0</ele><time>2026-04-24T12:41:50.997Z</time></trkpt><trkpt lat="40.94339095560605" lon="14.079950015938493"><ele>36.0</ele><time>2026-04-24T12:41:51.997Z</time></trkpt><trkpt lat="40.94330216109151" lon="14.079970055500342"><ele>36.0</ele><time>2026-04-24T12:41:52.997Z</time></trkpt><trkpt lat="40.943218225246504" lon="14.079959829686075"><ele>36.4</ele><time>2026-04-24T12:41:53.997Z</time></trkpt><trkpt lat="40.943138138764304" lon="14.079958145266351"><ele>36.8</ele><time>2026-04-24T12:41:54.997Z</time></trkpt><trkpt lat="40.94306778628207" lon="14.079954293529225"><ele>37.199999999999996</ele><time>2026-04-24T12:41:55.997Z</time></trkpt><trkpt lat="40.94294650194152" lon="14.079957889654045"><ele>37.6</ele><time>2026-04-24T12:41:57.997Z</time></trkpt><trkpt lat="40.942827261399444" lon="14.079953359010997"><ele>38.0</ele><time>2026-04-24T12:41:59.997Z</time></trkpt><trkpt lat="40.9427623164769" lon="14.079949299358773"><ele>38.0</ele><time>2026-04-24T12:42:00.997Z</time></trkpt><trkpt lat="40.94269581183946" lon="14.079943038890885"><ele>38.0</ele><time>2026-04-24T12:42:01.997Z</time></trkpt><trkpt lat="40.942622605229786" lon="14.079940869814298"><ele>38.0</ele><time>2026-04-24T12:42:02.997Z</time></trkpt><trkpt lat="40.94254108437905" lon="14.079937785933751"><ele>38.0</ele><time>2026-04-24T12:42:03.997Z</time></trkpt><trkpt lat="40.94244377805747" lon="14.079945023200573"><ele>38.0</ele><time>2026-04-24T12:42:04.997Z</time></trkpt><trkpt lat="40.94231816026332" lon="14.07994586332943"><ele>38.0</ele><time>2026-04-24T12:42:05.998Z</time></trkpt><trkpt lat="40.94219240967278" lon="14.079922028608687"><ele>37.75</ele><time>2026-04-24T12:42:06.998Z</time></trkpt><trkpt lat="40.94207389452536" lon="14.079919362118304"><ele>37.5</ele><time>2026-04-24T12:42:07.998Z</time></trkpt><trkpt lat="40.94195660132672" lon="14.079916723117543"><ele>37.25</ele><time>2026-04-24T12:42:08.998Z</time></trkpt><trkpt lat="40.94183468994062" lon="14.079913980213961"><ele>37.0</ele><time>2026-04-24T12:42:09.998Z</time></trkpt><trkpt lat="40.941713919031095" lon="14.079911262970157"><ele>37.5</ele><time>2026-04-24T12:42:10.998Z</time></trkpt><trkpt lat="40.941594458769" lon="14.07990857521436"><ele>38.0</ele><time>2026-04-24T12:42:11.998Z</time></trkpt><trkpt lat="40.941474859320834" lon="14.079905884328522"><ele>38.5</ele><time>2026-04-24T12:42:12.998Z</time></trkpt><trkpt lat="40.94135709126325" lon="14.079903234644494"><ele>39.0</ele><time>2026-04-24T12:42:13.998Z</time></trkpt><trkpt lat="40.94123980082291" lon="14.079911138456296"><ele>39.0</ele><time>2026-04-24T12:42:14.998Z</time></trkpt><trkpt lat="40.941127458049465" lon="14.079897527965034"><ele>39.0</ele><time>2026-04-24T12:42:15.998Z</time></trkpt><trkpt lat="40.941013919862165" lon="14.079894145545902"><ele>39.0</ele><time>2026-04-24T12:42:16.998Z</time></trkpt><trkpt lat="40.94089913643691" lon="14.07991110873945"><ele>39.0</ele><time>2026-04-24T12:42:17.998Z</time></trkpt><trkpt lat="40.94078871235447" lon="14.0798858377769"><ele>38.5</ele><time>2026-04-24T12:42:18.998Z</time></trkpt><trkpt lat="40.94067589242419" lon="14.07988203111334"><ele>38.0</ele><time>2026-04-24T12:42:19.998Z</time></trkpt><trkpt lat="40.94056003091114" lon="14.079878218573398"><ele>37.5</ele><time>2026-04-24T12:42:20.997Z</time></trkpt><trkpt lat="40.9404487461879" lon="14.079896605639902"><ele>37.0</ele><time>2026-04-24T12:42:21.997Z</time></trkpt><trkpt lat="40.94033255645621" lon="14.079891949158565"><ele>37.0</ele><time>2026-04-24T12:42:22.997Z</time></trkpt><trkpt lat="40.94021128370399" lon="14.079884459385568"><ele>37.0</ele><time>2026-04-24T12:42:23.997Z</time></trkpt><trkpt lat="40.94008796639882" lon="14.07988555898923"><ele>37.0</ele><time>2026-04-24T12:42:24.997Z</time></trkpt><trkpt lat="40.93996445915256" lon="14.079882943952414"><ele>37.0</ele><time>2026-04-24T12:42:25.997Z</time></trkpt><trkpt lat="40.93984276903593" lon="14.079882098346479"><ele>37.25</ele><time>2026-04-24T12:42:26.997Z</time></trkpt><trkpt lat="40.939721921936936" lon="14.079886450636666"><ele>37.5</ele><time>2026-04-24T12:42:27.997Z</time></trkpt><trkpt lat="40.939600522887304" lon="14.079879828973377"><ele>37.75</ele><time>2026-04-24T12:42:28.997Z</time></trkpt><trkpt lat="40.93947800207373" lon="14.07987708507923"><ele>38.0</ele><time>2026-04-24T12:42:29.997Z</time></trkpt><trkpt lat="40.93935510133901" lon="14.079874811368558"><ele>38.0</ele><time>2026-04-24T12:42:30.997Z</time></trkpt><trkpt lat="40.93923131762185" lon="14.079872356293732"><ele>38.0</ele><time>2026-04-24T12:42:31.998Z</time></trkpt><trkpt lat="40.93910572620808" lon="14.079865627175895"><ele>38.0</ele><time>2026-04-24T12:42:32.998Z</time></trkpt><trkpt lat="40.938979671802116" lon="14.079843859632238"><ele>38.0</ele><time>2026-04-24T12:42:33.998Z</time></trkpt><trkpt lat="40.9388516619816" lon="14.079852662329662"><ele>38.0</ele><time>2026-04-24T12:42:34.998Z</time></trkpt><trkpt lat="40.938722599841206" lon="14.079853358530157"><ele>38.0</ele><time>2026-04-24T12:42:35.998Z</time></trkpt><trkpt lat="40.93859008489537" lon="14.079849643098383"><ele>38.0</ele><time>2026-04-24T12:42:36.998Z</time></trkpt><trkpt lat="40.93846223640201" lon="14.079858054641587"><ele>38.0</ele><time>2026-04-24T12:42:37.998Z</time></trkpt><trkpt lat="40.938326876444336" lon="14.079859626428892"><ele>38.666666666666664</ele><time>2026-04-24T12:42:38.998Z</time></trkpt><trkpt lat="40.93819099428117" lon="14.079857493589744"><ele>39.333333333333336</ele><time>2026-04-24T12:42:39.998Z</time></trkpt><trkpt lat="40.93792168921082" lon="14.079848839463901"><ele>40.0</ele><time>2026-04-24T12:42:41.998Z</time></trkpt><trkpt lat="40.93778579327033" lon="14.07986969589145"><ele>40.0</ele><time>2026-04-24T12:42:42.999Z</time></trkpt><trkpt lat="40.93765211059979" lon="14.079876305429094"><ele>40.0</ele><time>2026-04-24T12:42:43.999Z</time></trkpt><trkpt lat="40.93751609404442" lon="14.079887918976791"><ele>40.0</ele><time>2026-04-24T12:42:44.999Z</time></trkpt><trkpt lat="40.93737849644497" lon="14.07989180743713"><ele>40.0</ele><time>2026-04-24T12:42:45.999Z</time></trkpt><trkpt lat="40.93724144793971" lon="14.079892722979938"><ele>39.75</ele><time>2026-04-24T12:42:46.999Z</time></trkpt><trkpt lat="40.93710382622752" lon="14.079893941200352"><ele>39.5</ele><time>2026-04-24T12:42:47.999Z</time></trkpt><trkpt lat="40.936970426851644" lon="14.079891585032808"><ele>39.25</ele><time>2026-04-24T12:42:48.999Z</time></trkpt><trkpt lat="40.936840577623556" lon="14.079889904961963"><ele>39.0</ele><time>2026-04-24T12:42:49.999Z</time></trkpt><trkpt lat="40.936714974313404" lon="14.079882251234757"><ele>39.5</ele><time>2026-04-24T12:42:50.999Z</time></trkpt><trkpt lat="40.93659392206008" lon="14.079874990230687"><ele>40.0</ele><time>2026-04-24T12:42:51.999Z</time></trkpt><trkpt lat="40.936474766264325" lon="14.07987812854951"><ele>40.5</ele><time>2026-04-24T12:42:52.999Z</time></trkpt><trkpt lat="40.9363558190353" lon="14.079881262403287"><ele>41.0</ele><time>2026-04-24T12:42:53.999Z</time></trkpt><trkpt lat="40.93623996617873" lon="14.079883734091641"><ele>41.0</ele><time>2026-04-24T12:42:54.999Z</time></trkpt><trkpt lat="40.93612680366872" lon="14.079886664992353"><ele>41.0</ele><time>2026-04-24T12:42:55.999Z</time></trkpt><trkpt lat="40.93601550677506" lon="14.079888801119738"><ele>41.0</ele><time>2026-04-24T12:42:56.999Z</time></trkpt><trkpt lat="40.93590584881699" lon="14.07988985594711"><ele>41.0</ele><time>2026-04-24T12:42:57.999Z</time></trkpt><trkpt lat="40.935798266763946" lon="14.079891955614803"><ele>41.0</ele><time>2026-04-24T12:42:58.999Z</time></trkpt><trkpt lat="40.93568946398174" lon="14.079892150065527"><ele>41.0</ele><time>2026-04-24T12:42:59.999Z</time></trkpt><trkpt lat="40.93558153998685" lon="14.079895833648893"><ele>41.0</ele><time>2026-04-24T12:43:00.999Z</time></trkpt><trkpt lat="40.93547394730946" lon="14.07989556053294"><ele>41.0</ele><time>2026-04-24T12:43:01.999Z</time></trkpt><trkpt lat="40.935367367615434" lon="14.07989663415335"><ele>41.0</ele><time>2026-04-24T12:43:02.999Z</time></trkpt><trkpt lat="40.935262364456975" lon="14.079895896339298"><ele>41.0</ele><time>2026-04-24T12:43:04Z</time></trkpt><trkpt lat="40.935156904918834" lon="14.07989900282304"><ele>41.0</ele><time>2026-04-24T12:43:05Z</time></trkpt><trkpt lat="40.9350641833324" lon="14.07990202450441"><ele>41.0</ele><time>2026-04-24T12:43:06Z</time></trkpt><trkpt lat="40.93497037085858" lon="14.07990094677739"><ele>41.0</ele><time>2026-04-24T12:43:07Z</time></trkpt><trkpt lat="40.93487396145569" lon="14.079904169303765"><ele>41.0</ele><time>2026-04-24T12:43:08Z</time></trkpt><trkpt lat="40.934773087237716" lon="14.079907997943788"><ele>41.0</ele><time>2026-04-24T12:43:09Z</time></trkpt><trkpt lat="40.93468139720469" lon="14.079902597670094"><ele>40.666666666666664</ele><time>2026-04-24T12:43:10Z</time></trkpt><trkpt lat="40.934589945526554" lon="14.079894406655182"><ele>40.33333333333333</ele><time>2026-04-24T12:43:11Z</time></trkpt><trkpt lat="40.934505302980554" lon="14.079870967333315"><ele>40.0</ele><time>2026-04-24T12:43:12Z</time></trkpt><trkpt lat="40.93442466158775" lon="14.07983136710751"><ele>39.666666666666664</ele><time>2026-04-24T12:43:13Z</time></trkpt><trkpt lat="40.934361499375285" lon="14.079763584949168"><ele>39.333333333333336</ele><time>2026-04-24T12:43:14Z</time></trkpt><trkpt lat="40.9343124460122" lon="14.079669135797669"><ele>39.0</ele><time>2026-04-24T12:43:15Z</time></trkpt><trkpt lat="40.934271663241155" lon="14.07955207321607"><ele>39.0</ele><time>2026-04-24T12:43:16Z</time></trkpt><trkpt lat="40.934245387032256" lon="14.07941976277421"><ele>39.0</ele><time>2026-04-24T12:43:17Z</time></trkpt><trkpt lat="40.934232983811704" lon="14.079272836576715"><ele>39.0</ele><time>2026-04-24T12:43:18Z</time></trkpt><trkpt lat="40.93419374797849" lon="14.079131320670198"><ele>39.0</ele><time>2026-04-24T12:43:19Z</time></trkpt><trkpt lat="40.934114202672205" lon="14.079022676978333"><ele>39.0</ele><time>2026-04-24T12:43:20Z</time></trkpt><trkpt lat="40.934012759762595" lon="14.078958504121983"><ele>39.0</ele><time>2026-04-24T12:43:21Z</time></trkpt><trkpt lat="40.93392412291783" lon="14.078912306665616"><ele>39.0</ele><time>2026-04-24T12:43:22Z</time></trkpt><trkpt lat="40.93379153834622" lon="14.07892877517052"><ele>39.0</ele><time>2026-04-24T12:43:23Z</time></trkpt><trkpt lat="40.933673223348684" lon="14.078935960511805"><ele>39.0</ele><time>2026-04-24T12:43:24Z</time></trkpt><trkpt lat="40.93355520546552" lon="14.078938483308981"><ele>39.0</ele><time>2026-04-24T12:43:25Z</time></trkpt><trkpt lat="40.933436810693415" lon="14.078923540429953"><ele>39.0</ele><time>2026-04-24T12:43:26Z</time></trkpt><trkpt lat="40.93332726219895" lon="14.078921634761643"><ele>39.0</ele><time>2026-04-24T12:43:27Z</time></trkpt><trkpt lat="40.93322015093095" lon="14.078898033200476"><ele>39.0</ele><time>2026-04-24T12:43:28Z</time></trkpt><trkpt lat="40.93311856511401" lon="14.078875757885198"><ele>39.0</ele><time>2026-04-24T12:43:29Z</time></trkpt><trkpt lat="40.93301976181782" lon="14.07885013983243"><ele>39.2</ele><time>2026-04-24T12:43:30Z</time></trkpt><trkpt lat="40.932920655484615" lon="14.07882795874836"><ele>39.4</ele><time>2026-04-24T12:43:31Z</time></trkpt><trkpt lat="40.93281945689765" lon="14.078811717554514"><ele>39.6</ele><time>2026-04-24T12:43:32Z</time></trkpt><trkpt lat="40.93271422075215" lon="14.07879289918595"><ele>39.8</ele><time>2026-04-24T12:43:33Z</time></trkpt><trkpt lat="40.932609244225574" lon="14.078770518213624"><ele>40.0</ele><time>2026-04-24T12:43:34Z</time></trkpt><trkpt lat="40.93250182617668" lon="14.07874659733512"><ele>40.0</ele><time>2026-04-24T12:43:35Z</time></trkpt><trkpt lat="40.93238837513629" lon="14.078724177980936"><ele>40.0</ele><time>2026-04-24T12:43:36Z</time></trkpt><trkpt lat="40.932273001102395" lon="14.078704172807038"><ele>40.0</ele><time>2026-04-24T12:43:37Z</time></trkpt><trkpt lat="40.93215539410354" lon="14.078685143237673"><ele>40.0</ele><time>2026-04-24T12:43:38Z</time></trkpt><trkpt lat="40.93204034589169" lon="14.078658292892408"><ele>40.0</ele><time>2026-04-24T12:43:39Z</time></trkpt><trkpt lat="40.93194060141195" lon="14.07863920534247"><ele>40.0</ele><time>2026-04-24T12:43:40Z</time></trkpt><trkpt lat="40.93184978762487" lon="14.078633342839675"><ele>40.0</ele><time>2026-04-24T12:43:41.001Z</time></trkpt><trkpt lat="40.931756625730316" lon="14.078644495766456"><ele>40.0</ele><time>2026-04-24T12:43:42.001Z</time></trkpt><trkpt lat="40.931663799386335" lon="14.078684494432675"><ele>40.0</ele><time>2026-04-24T12:43:43.001Z</time></trkpt><trkpt lat="40.931574783390154" lon="14.078760549106553"><ele>40.0</ele><time>2026-04-24T12:43:44.001Z</time></trkpt><trkpt lat="40.931502131496586" lon="14.078864012822725"><ele>40.0</ele><time>2026-04-24T12:43:45.001Z</time></trkpt><trkpt lat="40.93144857367429" lon="14.078988237473155"><ele>40.0</ele><time>2026-04-24T12:43:46.001Z</time></trkpt><trkpt lat="40.9314047590849" lon="14.079109484864917"><ele>40.0</ele><time>2026-04-24T12:43:47.001Z</time></trkpt><trkpt lat="40.931397638891255" lon="14.079261066572386"><ele>40.0</ele><time>2026-04-24T12:43:48.001Z</time></trkpt><trkpt lat="40.93138220300583" lon="14.079381765875642"><ele>40.0</ele><time>2026-04-24T12:43:49.001Z</time></trkpt><trkpt lat="40.93130331659257" lon="14.079542008817548"><ele>40.0</ele><time>2026-04-24T12:43:51.001Z</time></trkpt><trkpt lat="40.93120314250545" lon="14.07964159767596"><ele>40.0</ele><time>2026-04-24T12:43:53.001Z</time></trkpt><trkpt lat="40.931138234419436" lon="14.079675001395366"><ele>40.0</ele><time>2026-04-24T12:43:54.001Z</time></trkpt><trkpt lat="40.93105981088971" lon="14.079686438551466"><ele>40.0</ele><time>2026-04-24T12:43:55.001Z</time></trkpt><trkpt lat="40.93097125567956" lon="14.07969539182833"><ele>40.4</ele><time>2026-04-24T12:43:56.001Z</time></trkpt><trkpt lat="40.93088010975831" lon="14.079703666427447"><ele>40.8</ele><time>2026-04-24T12:43:57.001Z</time></trkpt><trkpt lat="40.93078267229483" lon="14.079711632643003"><ele>41.2</ele><time>2026-04-24T12:43:58.001Z</time></trkpt><trkpt lat="40.930676845011654" lon="14.079704292833176"><ele>41.6</ele><time>2026-04-24T12:43:59.001Z</time></trkpt><trkpt lat="40.93055812854089" lon="14.079697484919647"><ele>42.0</ele><time>2026-04-24T12:44:00.001Z</time></trkpt><trkpt lat="40.93032055119062" lon="14.079683999150578"><ele>42.0</ele><time>2026-04-24T12:44:02.001Z</time></trkpt><trkpt lat="40.93019569191184" lon="14.079676714484062"><ele>42.0</ele><time>2026-04-24T12:44:03.001Z</time></trkpt><trkpt lat="40.930061422319135" lon="14.079667538893553"><ele>42.0</ele><time>2026-04-24T12:44:04.001Z</time></trkpt><trkpt lat="40.929926892979466" lon="14.079652897128181"><ele>42.0</ele><time>2026-04-24T12:44:05.001Z</time></trkpt><trkpt lat="40.92979512785656" lon="14.079638936083416"><ele>41.333333333333336</ele><time>2026-04-24T12:44:06.001Z</time></trkpt><trkpt lat="40.92965414233696" lon="14.079626047200955"><ele>40.66666666666667</ele><time>2026-04-24T12:44:07.001Z</time></trkpt><trkpt lat="40.92949989025581" lon="14.07961550580446"><ele>40.0</ele><time>2026-04-24T12:44:08.001Z</time></trkpt><trkpt lat="40.929340901139284" lon="14.079601002138347"><ele>40.0</ele><time>2026-04-24T12:44:09.001Z</time></trkpt><trkpt lat="40.929178509029214" lon="14.0795884190054"><ele>40.0</ele><time>2026-04-24T12:44:10.001Z</time></trkpt><trkpt lat="40.929012746440556" lon="14.079566620140671"><ele>40.0</ele><time>2026-04-24T12:44:11.001Z</time></trkpt><trkpt lat="40.92884702446654" lon="14.079553013968146"><ele>40.0</ele><time>2026-04-24T12:44:12.001Z</time></trkpt><trkpt lat="40.92868243878123" lon="14.079539005400962"><ele>40.0</ele><time>2026-04-24T12:44:13.001Z</time></trkpt><trkpt lat="40.92852866108747" lon="14.07952493009914"><ele>40.0</ele><time>2026-04-24T12:44:14.001Z</time></trkpt><trkpt lat="40.928391127363234" lon="14.079514076876054"><ele>40.0</ele><time>2026-04-24T12:44:15.001Z</time></trkpt><trkpt lat="40.928266599594565" lon="14.079500424899688"><ele>40.0</ele><time>2026-04-24T12:44:16.001Z</time></trkpt><trkpt lat="40.928173206402654" lon="14.079492763795175"><ele>40.0</ele><time>2026-04-24T12:44:17.001Z</time></trkpt><trkpt lat="40.92804268175357" lon="14.079483136909367"><ele>40.0</ele><time>2026-04-24T12:44:19.001Z</time></trkpt><trkpt lat="40.9279598974799" lon="14.079459292441301"><ele>40.0</ele><time>2026-04-24T12:44:21.001Z</time></trkpt><trkpt lat="40.92795131645705" lon="14.07931093643816"><ele>40.0</ele><time>2026-04-24T12:44:24.002Z</time></trkpt><trkpt lat="40.92793701804145" lon="14.079163723157688"><ele>40.0</ele><time>2026-04-24T12:44:26.002Z</time></trkpt><trkpt lat="40.92791242178785" lon="14.07907987933501"><ele>40.0</ele><time>2026-04-24T12:44:27.002Z</time></trkpt><trkpt lat="40.92790393913111" lon="14.078989273176035"><ele>40.0</ele><time>2026-04-24T12:44:28.002Z</time></trkpt><trkpt lat="40.92790777170007" lon="14.0788865698841"><ele>40.0</ele><time>2026-04-24T12:44:29.002Z</time></trkpt><trkpt lat="40.92788113855681" lon="14.0787860568424"><ele>40.0</ele><time>2026-04-24T12:44:30.002Z</time></trkpt><trkpt lat="40.92787349797495" lon="14.078673168822787"><ele>39.8</ele><time>2026-04-24T12:44:31.002Z</time></trkpt><trkpt lat="40.927860725296746" lon="14.078568705344276"><ele>39.6</ele><time>2026-04-24T12:44:32.002Z</time></trkpt><trkpt lat="40.927858400640865" lon="14.078394143343381"><ele>39.4</ele><time>2026-04-24T12:44:34.002Z</time></trkpt><trkpt lat="40.92783898424968" lon="14.078313696813044"><ele>39.2</ele><time>2026-04-24T12:44:35.002Z</time></trkpt><trkpt lat="40.927829064148725" lon="14.078147625001826"><ele>39.0</ele><time>2026-04-24T12:44:37.002Z</time></trkpt><trkpt lat="40.92782215755188" lon="14.078063986205409"><ele>39.0</ele><time>2026-04-24T12:44:38.002Z</time></trkpt><trkpt lat="40.92782925752538" lon="14.07797647392244"><ele>39.0</ele><time>2026-04-24T12:44:39.002Z</time></trkpt><trkpt lat="40.927823998678264" lon="14.077891470259512"><ele>39.0</ele><time>2026-04-24T12:44:40.002Z</time></trkpt><trkpt lat="40.92781413367051" lon="14.077732012866974"><ele>39.0</ele><time>2026-04-24T12:44:42.002Z</time></trkpt><trkpt lat="40.92780397582921" lon="14.077566758980927"><ele>39.0</ele><time>2026-04-24T12:44:44.002Z</time></trkpt><trkpt lat="40.92779858751687" lon="14.077476971278205"><ele>39.0</ele><time>2026-04-24T12:44:45.002Z</time></trkpt><trkpt lat="40.92778825316589" lon="14.077304766241491"><ele>38.833333333333336</ele><time>2026-04-24T12:44:47.001Z</time></trkpt><trkpt lat="40.92778256382775" lon="14.077216232697175"><ele>38.666666666666664</ele><time>2026-04-24T12:44:48.001Z</time></trkpt><trkpt lat="40.92777640024514" lon="14.07712510968812"><ele>38.5</ele><time>2026-04-24T12:44:49.001Z</time></trkpt><trkpt lat="40.92775239722302" lon="14.076965823680927"><ele>38.33333333333333</ele><time>2026-04-24T12:44:51.001Z</time></trkpt><trkpt lat="40.92774349648391" lon="14.076879440614185"><ele>38.166666666666664</ele><time>2026-04-24T12:44:52.001Z</time></trkpt><trkpt lat="40.92775291090153" lon="14.076783498319072"><ele>38.0</ele><time>2026-04-24T12:44:53.001Z</time></trkpt><trkpt lat="40.92774587474198" lon="14.076685526574627"><ele>38.0</ele><time>2026-04-24T12:44:54.001Z</time></trkpt><trkpt lat="40.927738516955266" lon="14.076583076294185"><ele>38.0</ele><time>2026-04-24T12:44:55.001Z</time></trkpt><trkpt lat="40.927715522700076" lon="14.076495085641056"><ele>38.0</ele><time>2026-04-24T12:44:56.001Z</time></trkpt><trkpt lat="40.927711278831936" lon="14.076400943056798"><ele>38.0</ele><time>2026-04-24T12:44:57.001Z</time></trkpt><trkpt lat="40.9277074977692" lon="14.076308240864122"><ele>38.0</ele><time>2026-04-24T12:44:58.001Z</time></trkpt><trkpt lat="40.92770283520487" lon="14.076209708604232"><ele>38.0</ele><time>2026-04-24T12:44:59.001Z</time></trkpt><trkpt lat="40.92769069998481" lon="14.07610113071912"><ele>38.0</ele><time>2026-04-24T12:45:00.001Z</time></trkpt><trkpt lat="40.92768137586588" lon="14.07599538164586"><ele>38.0</ele><time>2026-04-24T12:45:01.001Z</time></trkpt><trkpt lat="40.92768219487101" lon="14.075849870468934"><ele>38.0</ele><time>2026-04-24T12:45:03.001Z</time></trkpt><trkpt lat="40.92767543496957" lon="14.075753744024096"><ele>38.0</ele><time>2026-04-24T12:45:04.002Z</time></trkpt><trkpt lat="40.927662122936276" lon="14.075666441575736"><ele>38.0</ele><time>2026-04-24T12:45:05.002Z</time></trkpt><trkpt lat="40.92769833982506" lon="14.075574056636363"><ele>38.0</ele><time>2026-04-24T12:45:06.002Z</time></trkpt><trkpt lat="40.92768142475327" lon="14.075480697136705"><ele>38.0</ele><time>2026-04-24T12:45:07.002Z</time></trkpt><trkpt lat="40.9276347586404" lon="14.075323334958478"><ele>37.8</ele><time>2026-04-24T12:45:09.002Z</time></trkpt><trkpt lat="40.92764287464799" lon="14.075178617449723"><ele>37.599999999999994</ele><time>2026-04-24T12:45:11.002Z</time></trkpt><trkpt lat="40.92764220874451" lon="14.075061400526572"><ele>37.400000000000006</ele><time>2026-04-24T12:45:13.002Z</time></trkpt><trkpt lat="40.927625158783954" lon="14.074918899239108"><ele>37.2</ele><time>2026-04-24T12:45:15.002Z</time></trkpt><trkpt lat="40.92763608062624" lon="14.074829781971232"><ele>37.0</ele><time>2026-04-24T12:45:16.002Z</time></trkpt><trkpt lat="40.92762936307067" lon="14.074670631814834"><ele>36.833333333333336</ele><time>2026-04-24T12:45:18.002Z</time></trkpt><trkpt lat="40.927622999095945" lon="14.074574843396544"><ele>36.66666666666667</ele><time>2026-04-24T12:45:19.002Z</time></trkpt><trkpt lat="40.92759937820586" lon="14.074469817584387"><ele>36.5</ele><time>2026-04-24T12:45:20.002Z</time></trkpt><trkpt lat="40.92760908744636" lon="14.074365450160364"><ele>36.333333333333336</ele><time>2026-04-24T12:45:21.002Z</time></trkpt><trkpt lat="40.927585843747" lon="14.074260032010475"><ele>36.166666666666664</ele><time>2026-04-24T12:45:22.002Z</time></trkpt><trkpt lat="40.92758044206162" lon="14.074164189648775"><ele>36.0</ele><time>2026-04-24T12:45:23.002Z</time></trkpt><trkpt lat="40.927577655924225" lon="14.074060520719577"><ele>36.0</ele><time>2026-04-24T12:45:24.002Z</time></trkpt><trkpt lat="40.92756497351737" lon="14.073965931350017"><ele>36.0</ele><time>2026-04-24T12:45:25.002Z</time></trkpt><trkpt lat="40.92755729176133" lon="14.073810804793371"><ele>36.0</ele><time>2026-04-24T12:45:27.002Z</time></trkpt><trkpt lat="40.927548766007064" lon="14.07369414027082"><ele>36.0</ele><time>2026-04-24T12:45:29.002Z</time></trkpt><trkpt lat="40.927545766982504" lon="14.073595477486709"><ele>36.0</ele><time>2026-04-24T12:45:31.002Z</time></trkpt><trkpt lat="40.92752418091303" lon="14.073494057930391"><ele>36.0</ele><time>2026-04-24T12:45:38.002Z</time></trkpt><trkpt lat="40.927510944522766" lon="14.073405426396556"><ele>36.0</ele><time>2026-04-24T12:45:41.002Z</time></trkpt><trkpt lat="40.92748740938944" lon="14.07329842875944"><ele>36.0</ele><time>2026-04-24T12:45:44.002Z</time></trkpt><trkpt lat="40.927681056177526" lon="14.073146948026457"><ele>36.0</ele><time>2026-04-24T12:45:45.002Z</time></trkpt><trkpt lat="40.92772078233796" lon="14.073022054595736"><ele>36.0</ele><time>2026-04-24T12:45:47.002Z</time></trkpt><trkpt lat="40.927757360220355" lon="14.072882434951802"><ele>36.0</ele><time>2026-04-24T12:45:49.002Z</time></trkpt><trkpt lat="40.92779699319622" lon="14.072739443542535"><ele>36.0</ele><time>2026-04-24T12:45:51.002Z</time></trkpt><trkpt lat="40.92785110727595" lon="14.07260008413134"><ele>36.0</ele><time>2026-04-24T12:45:53.002Z</time></trkpt><trkpt lat="40.927884672168666" lon="14.07246820585741"><ele>36.0</ele><time>2026-04-24T12:45:55.002Z</time></trkpt><trkpt lat="40.92792558441663" lon="14.072329316751896"><ele>35.6</ele><time>2026-04-24T12:45:57.002Z</time></trkpt><trkpt lat="40.92797257157698" lon="14.072182005518021"><ele>35.2</ele><time>2026-04-24T12:45:59.002Z</time></trkpt><trkpt lat="40.92801959616313" lon="14.072033201745763"><ele>34.8</ele><time>2026-04-24T12:46:01.002Z</time></trkpt><trkpt lat="40.9280493384975" lon="14.0719523236425"><ele>34.4</ele><time>2026-04-24T12:46:02.002Z</time></trkpt><trkpt lat="40.92807811476048" lon="14.071867507280189"><ele>34.0</ele><time>2026-04-24T12:46:03.002Z</time></trkpt><trkpt lat="40.928105923840626" lon="14.071776071734028"><ele>34.0</ele><time>2026-04-24T12:46:04.002Z</time></trkpt><trkpt lat="40.92813526025917" lon="14.071685894738403"><ele>34.0</ele><time>2026-04-24T12:46:05.002Z</time></trkpt><trkpt lat="40.92817299838085" lon="14.071591438362491"><ele>34.0</ele><time>2026-04-24T12:46:06.003Z</time></trkpt><trkpt lat="40.92820825594772" lon="14.07149529699752"><ele>34.0</ele><time>2026-04-24T12:46:07.003Z</time></trkpt><trkpt lat="40.92823570272891" lon="14.071399268475314"><ele>34.0</ele><time>2026-04-24T12:46:08.003Z</time></trkpt><trkpt lat="40.92825943146337" lon="14.071280107626963"><ele>34.0</ele><time>2026-04-24T12:46:09.003Z</time></trkpt><trkpt lat="40.92830215071789" lon="14.07121259375586"><ele>34.0</ele><time>2026-04-24T12:46:10.003Z</time></trkpt><trkpt lat="40.928337571345125" lon="14.071129940650843"><ele>34.0</ele><time>2026-04-24T12:46:11.003Z</time></trkpt><trkpt lat="40.92836288475519" lon="14.071043224644006"><ele>34.0</ele><time>2026-04-24T12:46:12.003Z</time></trkpt><trkpt lat="40.92839836617325" lon="14.070901912318478"><ele>34.0</ele><time>2026-04-24T12:46:14.003Z</time></trkpt><trkpt lat="40.928431752081956" lon="14.070791161589932"><ele>34.0</ele><time>2026-04-24T12:46:16.003Z</time></trkpt><trkpt lat="40.92845683786957" lon="14.070685203811758"><ele>34.0</ele><time>2026-04-24T12:46:18.003Z</time></trkpt><trkpt lat="40.92846775989465" lon="14.070545593025441"><ele>34.0</ele><time>2026-04-24T12:46:20.003Z</time></trkpt><trkpt lat="40.92847821826937" lon="14.07040867279208"><ele>34.0</ele><time>2026-04-24T12:46:22.003Z</time></trkpt><trkpt lat="40.9284695479113" lon="14.070248269504578"><ele>34.0</ele><time>2026-04-24T12:46:24.003Z</time></trkpt><trkpt lat="40.928453484379105" lon="14.070073395713475"><ele>34.0</ele><time>2026-04-24T12:46:26.003Z</time></trkpt><trkpt lat="40.92844464591036" lon="14.069982977130653"><ele>34.0</ele><time>2026-04-24T12:46:27.003Z</time></trkpt><trkpt lat="40.92844146849205" lon="14.06988487610196"><ele>33.99999999999999</ele><time>2026-04-24T12:46:28.003Z</time></trkpt><trkpt lat="40.92843839603255" lon="14.06979227339758"><ele>34.0</ele><time>2026-04-24T12:46:29.003Z</time></trkpt><trkpt lat="40.9284357671617" lon="14.069704110645935"><ele>34.0</ele><time>2026-04-24T12:46:30.003Z</time></trkpt><trkpt lat="40.928431002577064" lon="14.069604215982658"><ele>34.0</ele><time>2026-04-24T12:46:31.003Z</time></trkpt><trkpt lat="40.92842519371393" lon="14.06950319732329"><ele>34.0</ele><time>2026-04-24T12:46:32.003Z</time></trkpt><trkpt lat="40.92841364057918" lon="14.069396942676699"><ele>33.99999999999999</ele><time>2026-04-24T12:46:33.003Z</time></trkpt><trkpt lat="40.928406780985775" lon="14.069294296760228"><ele>34.0</ele><time>2026-04-24T12:46:34.003Z</time></trkpt><trkpt lat="40.92839248041167" lon="14.069184704480817"><ele>33.833333333333336</ele><time>2026-04-24T12:46:35.003Z</time></trkpt><trkpt lat="40.92838155034043" lon="14.069075518203874"><ele>33.66666666666667</ele><time>2026-04-24T12:46:36.003Z</time></trkpt><trkpt lat="40.928368826230496" lon="14.068966791737985"><ele>33.5</ele><time>2026-04-24T12:46:37.003Z</time></trkpt><trkpt lat="40.928363187403335" lon="14.068870535517478"><ele>33.333333333333336</ele><time>2026-04-24T12:46:38.003Z</time></trkpt><trkpt lat="40.928353434157955" lon="14.068765615399473"><ele>33.166666666666664</ele><time>2026-04-24T12:46:39.003Z</time></trkpt><trkpt lat="40.92834767583251" lon="14.068655288288348"><ele>33.0</ele><time>2026-04-24T12:46:40.003Z</time></trkpt><trkpt lat="40.928344117849385" lon="14.068543495948012"><ele>33.0</ele><time>2026-04-24T12:46:41.003Z</time></trkpt><trkpt lat="40.928337231450605" lon="14.06843654544343"><ele>33.0</ele><time>2026-04-24T12:46:42.003Z</time></trkpt><trkpt lat="40.928324135059334" lon="14.068318912412558"><ele>33.0</ele><time>2026-04-24T12:46:43.003Z</time></trkpt><trkpt lat="40.92830008171572" lon="14.068207004042838"><ele>33.0</ele><time>2026-04-24T12:46:44.003Z</time></trkpt><trkpt lat="40.92828690516234" lon="14.068090733526118"><ele>33.0</ele><time>2026-04-24T12:46:45.003Z</time></trkpt><trkpt lat="40.92827210797403" lon="14.067977087794711"><ele>33.0</ele><time>2026-04-24T12:46:46.003Z</time></trkpt><trkpt lat="40.92827620666771" lon="14.067864433751257"><ele>33.0</ele><time>2026-04-24T12:46:47.003Z</time></trkpt><trkpt lat="40.92827729412317" lon="14.06772947219242"><ele>33.0</ele><time>2026-04-24T12:46:48.002Z</time></trkpt><trkpt lat="40.92827141231278" lon="14.067614771695487"><ele>33.0</ele><time>2026-04-24T12:46:49.002Z</time></trkpt><trkpt lat="40.92826498195726" lon="14.067518860647613"><ele>33.0</ele><time>2026-04-24T12:46:50.002Z</time></trkpt><trkpt lat="40.92825602094836" lon="14.06742783353582"><ele>33.0</ele><time>2026-04-24T12:46:51.002Z</time></trkpt><trkpt lat="40.9282437878499" lon="14.067344518327015"><ele>33.0</ele><time>2026-04-24T12:46:52.002Z</time></trkpt><trkpt lat="40.92822699803649" lon="14.06726389643704"><ele>33.0</ele><time>2026-04-24T12:46:53.002Z</time></trkpt><trkpt lat="40.92820950695506" lon="14.067181298768096"><ele>33.0</ele><time>2026-04-24T12:46:54.002Z</time></trkpt><trkpt lat="40.928198135001004" lon="14.067091959960266"><ele>33.0</ele><time>2026-04-24T12:46:55.002Z</time></trkpt><trkpt lat="40.92819119006105" lon="14.06699811404538"><ele>33.0</ele><time>2026-04-24T12:46:56.002Z</time></trkpt><trkpt lat="40.928189727552166" lon="14.0669130021531"><ele>33.0</ele><time>2026-04-24T12:46:57.002Z</time></trkpt><trkpt lat="40.92818546995684" lon="14.066827797936703"><ele>33.0</ele><time>2026-04-24T12:46:58.002Z</time></trkpt><trkpt lat="40.92817407322169" lon="14.066729183877252"><ele>33.0</ele><time>2026-04-24T12:46:59.002Z</time></trkpt><trkpt lat="40.928171446711474" lon="14.066634616307843"><ele>32.857142857142854</ele><time>2026-04-24T12:47:00.002Z</time></trkpt><trkpt lat="40.928168774822694" lon="14.066530098743304"><ele>32.714285714285715</ele><time>2026-04-24T12:47:01.002Z</time></trkpt><trkpt lat="40.92815791978605" lon="14.06643777506568"><ele>32.57142857142857</ele><time>2026-04-24T12:47:02.002Z</time></trkpt><trkpt lat="40.92814024986292" lon="14.066339480471267"><ele>32.42857142857143</ele><time>2026-04-24T12:47:03.002Z</time></trkpt><trkpt lat="40.928123283605515" lon="14.066242375627668"><ele>32.285714285714285</ele><time>2026-04-24T12:47:04.002Z</time></trkpt><trkpt lat="40.928118043246855" lon="14.06614847004429"><ele>32.14285714285714</ele><time>2026-04-24T12:47:05.002Z</time></trkpt><trkpt lat="40.92812388667017" lon="14.066055766790642"><ele>32.0</ele><time>2026-04-24T12:47:06.002Z</time></trkpt><trkpt lat="40.92812319675617" lon="14.065972371828554"><ele>32.0</ele><time>2026-04-24T12:47:07.002Z</time></trkpt><trkpt lat="40.9281142558131" lon="14.06587626740476"><ele>31.999999999999996</ele><time>2026-04-24T12:47:08.002Z</time></trkpt><trkpt lat="40.928115696964134" lon="14.065791918673819"><ele>32.0</ele><time>2026-04-24T12:47:09.002Z</time></trkpt><trkpt lat="40.928111792881495" lon="14.065708326802143"><ele>32.0</ele><time>2026-04-24T12:47:10.002Z</time></trkpt><trkpt lat="40.928126311979554" lon="14.065566123289425"><ele>31.999999999999996</ele><time>2026-04-24T12:47:12.002Z</time></trkpt><trkpt lat="40.92809859052146" lon="14.06549129375705"><ele>32.0</ele><time>2026-04-24T12:47:13.002Z</time></trkpt><trkpt lat="40.92808037488857" lon="14.065410353375032"><ele>32.0</ele><time>2026-04-24T12:47:14.002Z</time></trkpt><trkpt lat="40.928034328262015" lon="14.065286730091398"><ele>31.666666666666664</ele><time>2026-04-24T12:47:16.002Z</time></trkpt><trkpt lat="40.927988890851594" lon="14.065156534416381"><ele>31.333333333333332</ele><time>2026-04-24T12:47:18.002Z</time></trkpt><trkpt lat="40.92794043004384" lon="14.065002826756858"><ele>31.0</ele><time>2026-04-24T12:47:20.002Z</time></trkpt><trkpt lat="40.92791842054218" lon="14.064921114745983"><ele>30.666666666666664</ele><time>2026-04-24T12:47:21.002Z</time></trkpt><trkpt lat="40.92789146332074" lon="14.06483873410813"><ele>30.333333333333332</ele><time>2026-04-24T12:47:22.002Z</time></trkpt><trkpt lat="40.92786038212815" lon="14.064757066675005"><ele>30.0</ele><time>2026-04-24T12:47:23.002Z</time></trkpt><trkpt lat="40.92782967144103" lon="14.064675534566646"><ele>30.0</ele><time>2026-04-24T12:47:24.002Z</time></trkpt><trkpt lat="40.92780254866055" lon="14.064589570515983"><ele>30.0</ele><time>2026-04-24T12:47:25.002Z</time></trkpt><trkpt lat="40.927758845075545" lon="14.064458839406976"><ele>30.0</ele><time>2026-04-24T12:47:27.002Z</time></trkpt><trkpt lat="40.92770743356566" lon="14.064358331698678"><ele>30.0</ele><time>2026-04-24T12:47:29.002Z</time></trkpt><trkpt lat="40.92767973197027" lon="14.064223188130041"><ele>30.0</ele><time>2026-04-24T12:47:31.002Z</time></trkpt><trkpt lat="40.92767499956022" lon="14.064062790666524"><ele>30.0</ele><time>2026-04-24T12:47:33.002Z</time></trkpt><trkpt lat="40.92766214380517" lon="14.063969758076619"><ele>30.0</ele><time>2026-04-24T12:47:34.002Z</time></trkpt><trkpt lat="40.92764940425706" lon="14.063875183168827"><ele>30.0</ele><time>2026-04-24T12:47:35.002Z</time></trkpt><trkpt lat="40.92763628944655" lon="14.063769832917965"><ele>30.0</ele><time>2026-04-24T12:47:36.002Z</time></trkpt><trkpt lat="40.92763163709853" lon="14.063662143458735"><ele>30.0</ele><time>2026-04-24T12:47:37.002Z</time></trkpt><trkpt lat="40.92762344744427" lon="14.063563944635563"><ele>30.0</ele><time>2026-04-24T12:47:38.002Z</time></trkpt><trkpt lat="40.92761531301839" lon="14.063474008334287"><ele>30.0</ele><time>2026-04-24T12:47:39.002Z</time></trkpt><trkpt lat="40.927611735520735" lon="14.063375749396716"><ele>30.166666666666668</ele><time>2026-04-24T12:47:40.002Z</time></trkpt><trkpt lat="40.92760444287668" lon="14.063271114421491"><ele>30.333333333333336</ele><time>2026-04-24T12:47:41.002Z</time></trkpt><trkpt lat="40.927600041880844" lon="14.06317046961521"><ele>30.5</ele><time>2026-04-24T12:47:42.002Z</time></trkpt><trkpt lat="40.92759684283334" lon="14.063069100180924"><ele>30.666666666666668</ele><time>2026-04-24T12:47:43.002Z</time></trkpt><trkpt lat="40.92759119537319" lon="14.062966756055125"><ele>30.833333333333336</ele><time>2026-04-24T12:47:44.002Z</time></trkpt><trkpt lat="40.92758935093374" lon="14.062866888030275"><ele>31.0</ele><time>2026-04-24T12:47:45.002Z</time></trkpt><trkpt lat="40.92758543491017" lon="14.062771742544172"><ele>31.000000000000004</ele><time>2026-04-24T12:47:46.002Z</time></trkpt><trkpt lat="40.927582293661445" lon="14.062667711893923"><ele>31.0</ele><time>2026-04-24T12:47:47.002Z</time></trkpt><trkpt lat="40.9275733749805" lon="14.062566748435792"><ele>31.0</ele><time>2026-04-24T12:47:48.002Z</time></trkpt><trkpt lat="40.927562987741844" lon="14.062458241312918"><ele>31.0</ele><time>2026-04-24T12:47:49.002Z</time></trkpt><trkpt lat="40.92756416804827" lon="14.062353116647873"><ele>31.000000000000004</ele><time>2026-04-24T12:47:50.002Z</time></trkpt><trkpt lat="40.9275578430862" lon="14.062250014386034"><ele>31.0</ele><time>2026-04-24T12:47:51.002Z</time></trkpt><trkpt lat="40.9275501599305" lon="14.062145724299661"><ele>31.000000000000004</ele><time>2026-04-24T12:47:52.002Z</time></trkpt><trkpt lat="40.92756436717783" lon="14.062038379654046"><ele>31.0</ele><time>2026-04-24T12:47:53.002Z</time></trkpt><trkpt lat="40.92754843865985" lon="14.061946052412281"><ele>31.0</ele><time>2026-04-24T12:47:54.002Z</time></trkpt><trkpt lat="40.92753208832352" lon="14.061839923092732"><ele>31.0</ele><time>2026-04-24T12:47:55.002Z</time></trkpt><trkpt lat="40.92750205323754" lon="14.061730328158278"><ele>31.000000000000004</ele><time>2026-04-24T12:47:56.002Z</time></trkpt><trkpt lat="40.927497103565784" lon="14.061594531147007"><ele>31.0</ele><time>2026-04-24T12:47:57.002Z</time></trkpt><trkpt lat="40.927462064176005" lon="14.061467416884499"><ele>31.0</ele><time>2026-04-24T12:47:58.002Z</time></trkpt><trkpt lat="40.92744510878589" lon="14.061335025585302"><ele>31.0</ele><time>2026-04-24T12:47:59.002Z</time></trkpt><trkpt lat="40.92742632407521" lon="14.06120069849843"><ele>31.0</ele><time>2026-04-24T12:48:00.002Z</time></trkpt><trkpt lat="40.92742321554908" lon="14.061068656806484"><ele>31.0</ele><time>2026-04-24T12:48:01.002Z</time></trkpt><trkpt lat="40.92740537629106" lon="14.060932565669216"><ele>31.0</ele><time>2026-04-24T12:48:02.002Z</time></trkpt><trkpt lat="40.9273709130413" lon="14.060797211477105"><ele>30.8</ele><time>2026-04-24T12:48:03.002Z</time></trkpt><trkpt lat="40.92735167921677" lon="14.060656766401639"><ele>30.6</ele><time>2026-04-24T12:48:04.002Z</time></trkpt><trkpt lat="40.92735040817033" lon="14.060522961148259"><ele>30.4</ele><time>2026-04-24T12:48:05.002Z</time></trkpt><trkpt lat="40.92733263886152" lon="14.060388471250306"><ele>30.2</ele><time>2026-04-24T12:48:06.002Z</time></trkpt><trkpt lat="40.927316104903035" lon="14.060262935647971"><ele>30.0</ele><time>2026-04-24T12:48:07.002Z</time></trkpt><trkpt lat="40.92729878465372" lon="14.06013143003788"><ele>30.0</ele><time>2026-04-24T12:48:08.002Z</time></trkpt><trkpt lat="40.927282596633724" lon="14.059997814759344"><ele>30.0</ele><time>2026-04-24T12:48:09.002Z</time></trkpt><trkpt lat="40.92726808968688" lon="14.05986971440919"><ele>30.0</ele><time>2026-04-24T12:48:10.002Z</time></trkpt><trkpt lat="40.92725365869531" lon="14.059742284710921"><ele>30.0</ele><time>2026-04-24T12:48:11.002Z</time></trkpt><trkpt lat="40.92722167849311" lon="14.059609018860165"><ele>30.0</ele><time>2026-04-24T12:48:12.002Z</time></trkpt><trkpt lat="40.927206656063795" lon="14.059479835944108"><ele>30.0</ele><time>2026-04-24T12:48:13.002Z</time></trkpt><trkpt lat="40.92719586617611" lon="14.059350601412397"><ele>30.0</ele><time>2026-04-24T12:48:14.002Z</time></trkpt><trkpt lat="40.927186240432576" lon="14.059232407482673"><ele>30.0</ele><time>2026-04-24T12:48:15.002Z</time></trkpt><trkpt lat="40.92717277693279" lon="14.05911752465875"><ele>30.0</ele><time>2026-04-24T12:48:16.002Z</time></trkpt><trkpt lat="40.92715405543394" lon="14.058996258107234"><ele>30.0</ele><time>2026-04-24T12:48:17.002Z</time></trkpt><trkpt lat="40.92714043854309" lon="14.058883262251703"><ele>30.0</ele><time>2026-04-24T12:48:18.002Z</time></trkpt><trkpt lat="40.92711311148929" lon="14.058772153642133"><ele>30.0</ele><time>2026-04-24T12:48:19.002Z</time></trkpt><trkpt lat="40.927080412441626" lon="14.058661707472723"><ele>30.0</ele><time>2026-04-24T12:48:20.002Z</time></trkpt><trkpt lat="40.92704279480335" lon="14.058552956088826"><ele>30.0</ele><time>2026-04-24T12:48:21.002Z</time></trkpt><trkpt lat="40.926998279754585" lon="14.058434370351861"><ele>30.0</ele><time>2026-04-24T12:48:22.002Z</time></trkpt><trkpt lat="40.92693875775589" lon="14.05831699726751"><ele>29.6</ele><time>2026-04-24T12:48:23.002Z</time></trkpt><trkpt lat="40.92687601361952" lon="14.058203416920188"><ele>29.2</ele><time>2026-04-24T12:48:24.002Z</time></trkpt><trkpt lat="40.92681316062787" lon="14.058093326814623"><ele>28.799999999999997</ele><time>2026-04-24T12:48:25.002Z</time></trkpt><trkpt lat="40.926746359187945" lon="14.057966617062469"><ele>28.4</ele><time>2026-04-24T12:48:26.002Z</time></trkpt><trkpt lat="40.92669175599154" lon="14.057842713344987"><ele>28.0</ele><time>2026-04-24T12:48:27.002Z</time></trkpt><trkpt lat="40.926630774862915" lon="14.057733347438381"><ele>28.0</ele><time>2026-04-24T12:48:28.002Z</time></trkpt><trkpt lat="40.92656910954239" lon="14.057621781866299"><ele>27.999999999999996</ele><time>2026-04-24T12:48:29.002Z</time></trkpt><trkpt lat="40.92650712707354" lon="14.057509277623316"><ele>27.999999999999996</ele><time>2026-04-24T12:48:30.002Z</time></trkpt><trkpt lat="40.92643178028907" lon="14.057406513723587"><ele>28.0</ele><time>2026-04-24T12:48:31.002Z</time></trkpt><trkpt lat="40.92637161277527" lon="14.057303196409737"><ele>28.0</ele><time>2026-04-24T12:48:32.002Z</time></trkpt><trkpt lat="40.92631979798257" lon="14.057198118459432"><ele>28.0</ele><time>2026-04-24T12:48:33.002Z</time></trkpt><trkpt lat="40.92628411714432" lon="14.057087030597165"><ele>27.999999999999996</ele><time>2026-04-24T12:48:34.002Z</time></trkpt><trkpt lat="40.92624716529572" lon="14.056983342734538"><ele>27.999999999999996</ele><time>2026-04-24T12:48:35.002Z</time></trkpt><trkpt lat="40.92620997415309" lon="14.056862357716035"><ele>28.0</ele><time>2026-04-24T12:48:36.002Z</time></trkpt><trkpt lat="40.92616430605544" lon="14.05675175330668"><ele>28.0</ele><time>2026-04-24T12:48:37.002Z</time></trkpt><trkpt lat="40.92612666305241" lon="14.056627448733622"><ele>27.599999999999998</ele><time>2026-04-24T12:48:38.002Z</time></trkpt><trkpt lat="40.92610643357375" lon="14.056493562498849"><ele>27.199999999999996</ele><time>2026-04-24T12:48:39.003Z</time></trkpt><trkpt lat="40.92605425093996" lon="14.056372316450984"><ele>26.8</ele><time>2026-04-24T12:48:40.003Z</time></trkpt><trkpt lat="40.926016059821535" lon="14.05624362297287"><ele>26.4</ele><time>2026-04-24T12:48:41.003Z</time></trkpt><trkpt lat="40.92597250525598" lon="14.05611121168868"><ele>26.0</ele><time>2026-04-24T12:48:42.003Z</time></trkpt><trkpt lat="40.92594747551357" lon="14.055968027047697"><ele>26.0</ele><time>2026-04-24T12:48:43.003Z</time></trkpt><trkpt lat="40.925911075686166" lon="14.055846561617946"><ele>26.0</ele><time>2026-04-24T12:48:44.003Z</time></trkpt><trkpt lat="40.92587515508573" lon="14.055724118294957"><ele>26.0</ele><time>2026-04-24T12:48:45.003Z</time></trkpt><trkpt lat="40.92583727646075" lon="14.055593735730765"><ele>26.0</ele><time>2026-04-24T12:48:46.003Z</time></trkpt><trkpt lat="40.92580419305426" lon="14.055478161560412"><ele>26.0</ele><time>2026-04-24T12:48:47.003Z</time></trkpt><trkpt lat="40.925757128569835" lon="14.055358241832561"><ele>26.4</ele><time>2026-04-24T12:48:48.003Z</time></trkpt><trkpt lat="40.92573206181732" lon="14.055223059426506"><ele>26.8</ele><time>2026-04-24T12:48:49.003Z</time></trkpt><trkpt lat="40.92569850891723" lon="14.05509993311569"><ele>27.199999999999996</ele><time>2026-04-24T12:48:50.003Z</time></trkpt><trkpt lat="40.92566467679267" lon="14.054974731622153"><ele>27.599999999999998</ele><time>2026-04-24T12:48:51.003Z</time></trkpt><trkpt lat="40.925615585153224" lon="14.054860053932318"><ele>28.0</ele><time>2026-04-24T12:48:52.003Z</time></trkpt><trkpt lat="40.92559351785921" lon="14.05472782337975"><ele>28.0</ele><time>2026-04-24T12:48:53.003Z</time></trkpt><trkpt lat="40.92554416188297" lon="14.05461907246243"><ele>27.999999999999996</ele><time>2026-04-24T12:48:54.003Z</time></trkpt><trkpt lat="40.92550947141012" lon="14.05450165452055"><ele>27.999999999999996</ele><time>2026-04-24T12:48:55.002Z</time></trkpt><trkpt lat="40.92548135670085" lon="14.054392388236082"><ele>28.0</ele><time>2026-04-24T12:48:56.002Z</time></trkpt><trkpt lat="40.925442922611914" lon="14.054281316077825"><ele>28.0</ele><time>2026-04-24T12:48:57.002Z</time></trkpt><trkpt lat="40.925403551311675" lon="14.054165454178843"><ele>27.799999999999997</ele><time>2026-04-24T12:48:58.002Z</time></trkpt><trkpt lat="40.9253653477588" lon="14.054052713091524"><ele>27.599999999999998</ele><time>2026-04-24T12:48:59.002Z</time></trkpt><trkpt lat="40.92532195030238" lon="14.053939018958191"><ele>27.400000000000002</ele><time>2026-04-24T12:49:00.002Z</time></trkpt><trkpt lat="40.92527764792011" lon="14.053820945138643"><ele>27.200000000000003</ele><time>2026-04-24T12:49:01.002Z</time></trkpt><trkpt lat="40.92524893510187" lon="14.053710749289614"><ele>27.0</ele><time>2026-04-24T12:49:02.002Z</time></trkpt><trkpt lat="40.92520170143868" lon="14.053619988050976"><ele>27.0</ele><time>2026-04-24T12:49:03.002Z</time></trkpt><trkpt lat="40.92515915987679" lon="14.053523987491486"><ele>27.0</ele><time>2026-04-24T12:49:04.002Z</time></trkpt><trkpt lat="40.92512233221424" lon="14.053426169649226"><ele>27.0</ele><time>2026-04-24T12:49:05.002Z</time></trkpt><trkpt lat="40.92508342621581" lon="14.053330228715513"><ele>27.0</ele><time>2026-04-24T12:49:06.002Z</time></trkpt><trkpt lat="40.92504831448621" lon="14.053242113896673"><ele>27.0</ele><time>2026-04-24T12:49:07.002Z</time></trkpt><trkpt lat="40.92501054072446" lon="14.053167584127092"><ele>27.0</ele><time>2026-04-24T12:49:08.002Z</time></trkpt><trkpt lat="40.92495257806178" lon="14.053045145220581"><ele>27.0</ele><time>2026-04-24T12:49:10.002Z</time></trkpt><trkpt lat="40.92493019830079" lon="14.052956654611164"><ele>27.0</ele><time>2026-04-24T12:49:12.002Z</time></trkpt><trkpt lat="40.9249034957267" lon="14.052871729026402"><ele>27.0</ele><time>2026-04-24T12:50:48.003Z</time></trkpt><trkpt lat="40.92478149851308" lon="14.052914240351434"><ele>27.0</ele><time>2026-04-24T12:50:49.003Z</time></trkpt><trkpt lat="40.924714861724816" lon="14.0529409833322"><ele>27.0</ele><time>2026-04-24T12:50:50.003Z</time></trkpt><trkpt lat="40.92462819926267" lon="14.052975171365002"><ele>27.0</ele><time>2026-04-24T12:50:51.002Z</time></trkpt><trkpt lat="40.92452791170718" lon="14.05300365468536"><ele>27.0</ele><time>2026-04-24T12:50:52.002Z</time></trkpt><trkpt lat="40.92441894031058" lon="14.053039487504504"><ele>27.0</ele><time>2026-04-24T12:50:53.002Z</time></trkpt><trkpt lat="40.92429611125338" lon="14.05309604119338"><ele>27.0</ele><time>2026-04-24T12:50:54.002Z</time></trkpt><trkpt lat="40.92418064044315" lon="14.053175590584505"><ele>27.0</ele><time>2026-04-24T12:50:55.002Z</time></trkpt><trkpt lat="40.92405593057009" lon="14.053265090801213"><ele>27.666666666666664</ele><time>2026-04-24T12:50:56.002Z</time></trkpt><trkpt lat="40.923923174810454" lon="14.0533649658811"><ele>28.333333333333332</ele><time>2026-04-24T12:50:57.002Z</time></trkpt><trkpt lat="40.923795671537945" lon="14.053465194524179"><ele>29.0</ele><time>2026-04-24T12:50:58.002Z</time></trkpt><trkpt lat="40.923662217003034" lon="14.053571066897138"><ele>29.0</ele><time>2026-04-24T12:50:59.002Z</time></trkpt><trkpt lat="40.92352887377627" lon="14.053676561813269"><ele>29.0</ele><time>2026-04-24T12:51:00.002Z</time></trkpt><trkpt lat="40.923397677252844" lon="14.053792308774861"><ele>29.0</ele><time>2026-04-24T12:51:01.002Z</time></trkpt><trkpt lat="40.923259199913176" lon="14.053901500286994"><ele>29.0</ele><time>2026-04-24T12:51:02.002Z</time></trkpt><trkpt lat="40.92311134944745" lon="14.054017524470332"><ele>29.0</ele><time>2026-04-24T12:51:03.002Z</time></trkpt><trkpt lat="40.92296743521909" lon="14.054133368904722"><ele>29.0</ele><time>2026-04-24T12:51:04.002Z</time></trkpt><trkpt lat="40.92282407753953" lon="14.054248540668123"><ele>28.666666666666664</ele><time>2026-04-24T12:51:05.002Z</time></trkpt><trkpt lat="40.92267947154692" lon="14.054362193442335"><ele>28.333333333333336</ele><time>2026-04-24T12:51:06.002Z</time></trkpt><trkpt lat="40.922529242095514" lon="14.05447894864146"><ele>28.0</ele><time>2026-04-24T12:51:07.002Z</time></trkpt><trkpt lat="40.92237339203175" lon="14.054594812035514"><ele>27.666666666666668</ele><time>2026-04-24T12:51:08.002Z</time></trkpt><trkpt lat="40.922222670107416" lon="14.054718391394323"><ele>27.333333333333336</ele><time>2026-04-24T12:51:09.001Z</time></trkpt><trkpt lat="40.922072739213036" lon="14.054845291863874"><ele>27.0</ele><time>2026-04-24T12:51:10.001Z</time></trkpt><trkpt lat="40.92192152855689" lon="14.054972497267475"><ele>26.333333333333336</ele><time>2026-04-24T12:51:11.001Z</time></trkpt><trkpt lat="40.92177033906937" lon="14.055088906869264"><ele>25.666666666666668</ele><time>2026-04-24T12:51:12.001Z</time></trkpt><trkpt lat="40.92161820559332" lon="14.055208421504847"><ele>25.0</ele><time>2026-04-24T12:51:13.001Z</time></trkpt><trkpt lat="40.921467872870444" lon="14.055323723298145"><ele>24.333333333333336</ele><time>2026-04-24T12:51:14.001Z</time></trkpt><trkpt lat="40.92131891721788" lon="14.055445732532304"><ele>23.666666666666668</ele><time>2026-04-24T12:51:15.001Z</time></trkpt><trkpt lat="40.92117510314387" lon="14.055563759044015"><ele>23.0</ele><time>2026-04-24T12:51:16.001Z</time></trkpt><trkpt lat="40.92103402918361" lon="14.055677448290274"><ele>22.333333333333336</ele><time>2026-04-24T12:51:17.001Z</time></trkpt><trkpt lat="40.920892039168606" lon="14.055794686709442"><ele>21.666666666666668</ele><time>2026-04-24T12:51:18.001Z</time></trkpt><trkpt lat="40.92075553576959" lon="14.055901806992123"><ele>21.0</ele><time>2026-04-24T12:51:19.001Z</time></trkpt><trkpt lat="40.920623941818356" lon="14.056007731089068"><ele>21.0</ele><time>2026-04-24T12:51:20.001Z</time></trkpt><trkpt lat="40.92049700759125" lon="14.056111012721356"><ele>21.0</ele><time>2026-04-24T12:51:21.001Z</time></trkpt><trkpt lat="40.920373282045865" lon="14.05621195650376"><ele>21.0</ele><time>2026-04-24T12:51:22.001Z</time></trkpt><trkpt lat="40.92025361224817" lon="14.056309213350655"><ele>21.0</ele><time>2026-04-24T12:51:23.001Z</time></trkpt><trkpt lat="40.92013451712148" lon="14.05640517409948"><ele>20.75</ele><time>2026-04-24T12:51:24.001Z</time></trkpt><trkpt lat="40.92001983145315" lon="14.05649911384247"><ele>20.5</ele><time>2026-04-24T12:51:25.001Z</time></trkpt><trkpt lat="40.91990674435649" lon="14.056597327444262"><ele>20.25</ele><time>2026-04-24T12:51:26.001Z</time></trkpt><trkpt lat="40.91979706965652" lon="14.056694022885878"><ele>20.0</ele><time>2026-04-24T12:51:27.001Z</time></trkpt><trkpt lat="40.91968859220922" lon="14.056791771791024"><ele>20.5</ele><time>2026-04-24T12:51:28.001Z</time></trkpt><trkpt lat="40.91958260386252" lon="14.056891693115631"><ele>21.0</ele><time>2026-04-24T12:51:29.001Z</time></trkpt><trkpt lat="40.91947886279957" lon="14.056993026768652"><ele>21.5</ele><time>2026-04-24T12:51:30.001Z</time></trkpt><trkpt lat="40.91937427880596" lon="14.057090823998685"><ele>22.0</ele><time>2026-04-24T12:51:31.001Z</time></trkpt><trkpt lat="40.91926990623553" lon="14.057193247394405"><ele>21.5</ele><time>2026-04-24T12:51:32.001Z</time></trkpt><trkpt lat="40.91916619506766" lon="14.057295922288091"><ele>21.0</ele><time>2026-04-24T12:51:33.001Z</time></trkpt><trkpt lat="40.91906367846038" lon="14.057404682497305"><ele>20.5</ele><time>2026-04-24T12:51:34.001Z</time></trkpt><trkpt lat="40.91896572939929" lon="14.057520659399781"><ele>20.0</ele><time>2026-04-24T12:51:35.001Z</time></trkpt><trkpt lat="40.91887399024745" lon="14.05763861366382"><ele>20.0</ele><time>2026-04-24T12:51:36.001Z</time></trkpt><trkpt lat="40.918775204117395" lon="14.057750984215993"><ele>20.0</ele><time>2026-04-24T12:51:37.001Z</time></trkpt><trkpt lat="40.91867135156396" lon="14.05783471272029"><ele>20.0</ele><time>2026-04-24T12:51:38.001Z</time></trkpt><trkpt lat="40.91857371927763" lon="14.057935590854212"><ele>20.0</ele><time>2026-04-24T12:51:39.001Z</time></trkpt><trkpt lat="40.91844485736552" lon="14.05805481772198"><ele>20.0</ele><time>2026-04-24T12:51:40.001Z</time></trkpt><trkpt lat="40.918343443854795" lon="14.058161066411106"><ele>20.0</ele><time>2026-04-24T12:51:41.001Z</time></trkpt><trkpt lat="40.9182378355309" lon="14.058263483512109"><ele>20.0</ele><time>2026-04-24T12:51:42.001Z</time></trkpt><trkpt lat="40.91813602539874" lon="14.05836180735971"><ele>20.0</ele><time>2026-04-24T12:51:43.001Z</time></trkpt><trkpt lat="40.91804066236794" lon="14.058464116314909"><ele>20.0</ele><time>2026-04-24T12:51:44.001Z</time></trkpt><trkpt lat="40.91794203715243" lon="14.058563829584797"><ele>20.0</ele><time>2026-04-24T12:51:45.001Z</time></trkpt><trkpt lat="40.91784337447877" lon="14.058666636461547"><ele>20.0</ele><time>2026-04-24T12:51:46.001Z</time></trkpt><trkpt lat="40.917745020077014" lon="14.058771782135802"><ele>20.0</ele><time>2026-04-24T12:51:47.001Z</time></trkpt><trkpt lat="40.91765021954179" lon="14.058867324292018"><ele>19.8</ele><time>2026-04-24T12:51:48.001Z</time></trkpt><trkpt lat="40.91755562843477" lon="14.058956872637507"><ele>19.6</ele><time>2026-04-24T12:51:49.001Z</time></trkpt><trkpt lat="40.917467382630925" lon="14.05904863811783"><ele>19.4</ele><time>2026-04-24T12:51:50.001Z</time></trkpt><trkpt lat="40.917391532945025" lon="14.05913583183465"><ele>19.2</ele><time>2026-04-24T12:51:51.001Z</time></trkpt><trkpt lat="40.91731838257649" lon="14.059209255933316"><ele>19.0</ele><time>2026-04-24T12:51:52.001Z</time></trkpt><trkpt lat="40.917239261238635" lon="14.059298586523234"><ele>19.0</ele><time>2026-04-24T12:51:53.001Z</time></trkpt><trkpt lat="40.91714803270606" lon="14.059388336833889"><ele>19.0</ele><time>2026-04-24T12:51:54.001Z</time></trkpt><trkpt lat="40.91705670319858" lon="14.059483315359598"><ele>19.0</ele><time>2026-04-24T12:51:55.001Z</time></trkpt><trkpt lat="40.916967135548596" lon="14.059577472253826"><ele>19.0</ele><time>2026-04-24T12:51:56.001Z</time></trkpt><trkpt lat="40.91687046503496" lon="14.05967118142802"><ele>19.0</ele><time>2026-04-24T12:51:57.001Z</time></trkpt><trkpt lat="40.916768750595374" lon="14.05976027967953"><ele>19.0</ele><time>2026-04-24T12:51:58.001Z</time></trkpt><trkpt lat="40.91665315465396" lon="14.059812806232644"><ele>19.0</ele><time>2026-04-24T12:51:59.001Z</time></trkpt><trkpt lat="40.91653981855085" lon="14.059860715605124"><ele>19.0</ele><time>2026-04-24T12:52:00.001Z</time></trkpt><trkpt lat="40.916420251268306" lon="14.059905280656091"><ele>18.75</ele><time>2026-04-24T12:52:01.001Z</time></trkpt><trkpt lat="40.91629357293648" lon="14.059965304405065"><ele>18.5</ele><time>2026-04-24T12:52:02.001Z</time></trkpt><trkpt lat="40.91613541446474" lon="14.059976856763646"><ele>18.25</ele><time>2026-04-24T12:52:03.001Z</time></trkpt><trkpt lat="40.91598930763411" lon="14.06003963842158"><ele>18.0</ele><time>2026-04-24T12:52:04.001Z</time></trkpt><trkpt lat="40.91583914738479" lon="14.060097767217954"><ele>17.5</ele><time>2026-04-24T12:52:05.001Z</time></trkpt><trkpt lat="40.915684624650666" lon="14.060146649123114"><ele>17.0</ele><time>2026-04-24T12:52:06.001Z</time></trkpt><trkpt lat="40.91556171663227" lon="14.0601810634219"><ele>16.5</ele><time>2026-04-24T12:52:07.001Z</time></trkpt><trkpt lat="40.91543676556031" lon="14.060206479979374"><ele>16.0</ele><time>2026-04-24T12:52:08.001Z</time></trkpt><trkpt lat="40.9153196783285" lon="14.060236268722223"><ele>15.999999999999998</ele><time>2026-04-24T12:52:09.001Z</time></trkpt><trkpt lat="40.9152166618604" lon="14.060270788431113"><ele>16.0</ele><time>2026-04-24T12:52:10.001Z</time></trkpt><trkpt lat="40.9151268410688" lon="14.060296998567459"><ele>16.0</ele><time>2026-04-24T12:52:11.001Z</time></trkpt><trkpt lat="40.915056415065436" lon="14.060312257941503"><ele>16.0</ele><time>2026-04-24T12:52:12.001Z</time></trkpt><trkpt lat="40.91499469145552" lon="14.060336197633166"><ele>15.999999999999998</ele><time>2026-04-24T12:52:13.001Z</time></trkpt><trkpt lat="40.91488432894322" lon="14.060369878187952"><ele>16.0</ele><time>2026-04-24T12:52:15.001Z</time></trkpt><trkpt lat="40.91480762757932" lon="14.060339912802874"><ele>16.2</ele><time>2026-04-24T12:52:17.001Z</time></trkpt><trkpt lat="40.91482885705933" lon="14.060158045017703"><ele>16.400000000000002</ele><time>2026-04-24T12:52:19.001Z</time></trkpt><trkpt lat="40.91483396819428" lon="14.060067895214402"><ele>16.6</ele><time>2026-04-24T12:52:20.001Z</time></trkpt><trkpt lat="40.91484509649475" lon="14.059947673813102"><ele>16.8</ele><time>2026-04-24T12:52:21.001Z</time></trkpt><trkpt lat="40.91486357473449" lon="14.059804338742174"><ele>17.0</ele><time>2026-04-24T12:52:22.001Z</time></trkpt><trkpt lat="40.914887232281366" lon="14.059678609526314"><ele>17.0</ele><time>2026-04-24T12:52:23.001Z</time></trkpt><trkpt lat="40.91490305449939" lon="14.059553502429917"><ele>17.0</ele><time>2026-04-24T12:52:24.001Z</time></trkpt><trkpt lat="40.91493872547325" lon="14.059404203820531"><ele>17.0</ele><time>2026-04-24T12:52:25.001Z</time></trkpt><trkpt lat="40.914972791976254" lon="14.059258473601089"><ele>17.0</ele><time>2026-04-24T12:52:26.001Z</time></trkpt><trkpt lat="40.91500349579075" lon="14.05911398265745"><ele>17.0</ele><time>2026-04-24T12:52:27.001Z</time></trkpt><trkpt lat="40.91502098280998" lon="14.058962761969015"><ele>16.75</ele><time>2026-04-24T12:52:28.001Z</time></trkpt><trkpt lat="40.91503125314904" lon="14.058811671264628"><ele>16.5</ele><time>2026-04-24T12:52:29.001Z</time></trkpt><trkpt lat="40.915058844463026" lon="14.05865976663702"><ele>16.25</ele><time>2026-04-24T12:52:30.001Z</time></trkpt><trkpt lat="40.91507737978042" lon="14.058500137634116"><ele>16.0</ele><time>2026-04-24T12:52:31.001Z</time></trkpt><trkpt lat="40.915093113648894" lon="14.058340122395705"><ele>16.0</ele><time>2026-04-24T12:52:32.001Z</time></trkpt><trkpt lat="40.91509646810969" lon="14.058175337431177"><ele>16.0</ele><time>2026-04-24T12:52:33.001Z</time></trkpt><trkpt lat="40.91511264864489" lon="14.05801466053607"><ele>16.0</ele><time>2026-04-24T12:52:34.001Z</time></trkpt><trkpt lat="40.91512824273891" lon="14.057853883068374"><ele>16.0</ele><time>2026-04-24T12:52:35.001Z</time></trkpt><trkpt lat="40.915140824104526" lon="14.057706860414704"><ele>16.0</ele><time>2026-04-24T12:52:36.001Z</time></trkpt><trkpt lat="40.91515226231227" lon="14.057565718494013"><ele>16.0</ele><time>2026-04-24T12:52:37.001Z</time></trkpt><trkpt lat="40.915163823961805" lon="14.057431922506485"><ele>16.0</ele><time>2026-04-24T12:52:38.001Z</time></trkpt><trkpt lat="40.91517459511268" lon="14.057304261611865"><ele>16.0</ele><time>2026-04-24T12:52:39.001Z</time></trkpt><trkpt lat="40.91520526470299" lon="14.05707045893585"><ele>15.833333333333332</ele><time>2026-04-24T12:52:41Z</time></trkpt><trkpt lat="40.91521410048836" lon="14.056951472598824"><ele>15.666666666666666</ele><time>2026-04-24T12:52:42Z</time></trkpt><trkpt lat="40.915225200037824" lon="14.056832786105216"><ele>15.5</ele><time>2026-04-24T12:52:43Z</time></trkpt><trkpt lat="40.915235276210225" lon="14.05671201729234"><ele>15.333333333333332</ele><time>2026-04-24T12:52:44Z</time></trkpt><trkpt lat="40.91524660800469" lon="14.05659585280953"><ele>15.166666666666666</ele><time>2026-04-24T12:52:45Z</time></trkpt><trkpt lat="40.915253857527915" lon="14.056480914674532"><ele>15.0</ele><time>2026-04-24T12:52:46Z</time></trkpt><trkpt lat="40.9152816019073" lon="14.056356579367389"><ele>15.0</ele><time>2026-04-24T12:52:47Z</time></trkpt><trkpt lat="40.915281293305576" lon="14.056224457854041"><ele>15.0</ele><time>2026-04-24T12:52:48Z</time></trkpt><trkpt lat="40.91529649990854" lon="14.056065131672772"><ele>15.0</ele><time>2026-04-24T12:52:49Z</time></trkpt><trkpt lat="40.915328066153236" lon="14.05586784880425"><ele>15.0</ele><time>2026-04-24T12:52:50Z</time></trkpt><trkpt lat="40.91534862504701" lon="14.05564929896738"><ele>14.25</ele><time>2026-04-24T12:52:51.002Z</time></trkpt><trkpt lat="40.91536424671433" lon="14.055481125236048"><ele>13.5</ele><time>2026-04-24T12:52:52.002Z</time></trkpt><trkpt lat="40.91537524812604" lon="14.055265069261921"><ele>12.75</ele><time>2026-04-24T12:52:53.002Z</time></trkpt><trkpt lat="40.91541515429622" lon="14.055064820512106"><ele>12.0</ele><time>2026-04-24T12:52:54.002Z</time></trkpt><trkpt lat="40.915421878168374" lon="14.0548481181635"><ele>11.333333333333334</ele><time>2026-04-24T12:52:55.002Z</time></trkpt><trkpt lat="40.91543691646227" lon="14.05463956678962"><ele>10.666666666666668</ele><time>2026-04-24T12:52:56.002Z</time></trkpt><trkpt lat="40.915448383016304" lon="14.05442562394759"><ele>10.0</ele><time>2026-04-24T12:52:57.002Z</time></trkpt><trkpt lat="40.91546457237474" lon="14.054215681381903"><ele>10.333333333333334</ele><time>2026-04-24T12:52:58.002Z</time></trkpt><trkpt lat="40.91547928414975" lon="14.054000658468505"><ele>10.666666666666666</ele><time>2026-04-24T12:52:59.002Z</time></trkpt><trkpt lat="40.91549466517675" lon="14.05378088977933"><ele>11.0</ele><time>2026-04-24T12:53:00.002Z</time></trkpt><trkpt lat="40.91552649425554" lon="14.05355989214591"><ele>11.0</ele><time>2026-04-24T12:53:01.002Z</time></trkpt><trkpt lat="40.91554718614178" lon="14.053341214617035"><ele>11.0</ele><time>2026-04-24T12:53:02.002Z</time></trkpt><trkpt lat="40.91556389275195" lon="14.05311632790318"><ele>11.0</ele><time>2026-04-24T12:53:03.002Z</time></trkpt><trkpt lat="40.9155769852989" lon="14.052884004342985"><ele>9.666666666666666</ele><time>2026-04-24T12:53:04.002Z</time></trkpt><trkpt lat="40.91559880208826" lon="14.052659641020645"><ele>8.333333333333334</ele><time>2026-04-24T12:53:05.002Z</time></trkpt><trkpt lat="40.91564051059198" lon="14.052444189021696"><ele>7.0</ele><time>2026-04-24T12:53:06.002Z</time></trkpt><trkpt lat="40.9156787356262" lon="14.052226590752529"><ele>6.666666666666667</ele><time>2026-04-24T12:53:07.002Z</time></trkpt><trkpt lat="40.915703531347184" lon="14.052006840726424"><ele>6.333333333333334</ele><time>2026-04-24T12:53:08.002Z</time></trkpt><trkpt lat="40.915744026063166" lon="14.051790579910715"><ele>6.0</ele><time>2026-04-24T12:53:09.002Z</time></trkpt><trkpt lat="40.915777019633445" lon="14.05157067709028"><ele>6.0</ele><time>2026-04-24T12:53:10.001Z</time></trkpt><trkpt lat="40.91579765177442" lon="14.051351750145898"><ele>6.0</ele><time>2026-04-24T12:53:11.001Z</time></trkpt><trkpt lat="40.91581360682736" lon="14.05113497823248"><ele>6.0</ele><time>2026-04-24T12:53:12.001Z</time></trkpt><trkpt lat="40.915827024880215" lon="14.0509203955982"><ele>6.333333333333334</ele><time>2026-04-24T12:53:13.001Z</time></trkpt><trkpt lat="40.915848356116776" lon="14.050712305043932"><ele>6.666666666666667</ele><time>2026-04-24T12:53:14.001Z</time></trkpt><trkpt lat="40.91586977967025" lon="14.05050276419901"><ele>7.0</ele><time>2026-04-24T12:53:15.001Z</time></trkpt><trkpt lat="40.91590723507156" lon="14.050297150784582"><ele>7.0</ele><time>2026-04-24T12:53:16.001Z</time></trkpt><trkpt lat="40.91592857631297" lon="14.050089633787564"><ele>7.0</ele><time>2026-04-24T12:53:17.001Z</time></trkpt><trkpt lat="40.9159475791749" lon="14.049874779909665"><ele>7.0</ele><time>2026-04-24T12:53:18.001Z</time></trkpt><trkpt lat="40.915958529286385" lon="14.049664158019782"><ele>8.0</ele><time>2026-04-24T12:53:19.001Z</time></trkpt><trkpt lat="40.91597662310479" lon="14.049449665447693"><ele>9.0</ele><time>2026-04-24T12:53:20.001Z</time></trkpt><trkpt lat="40.91599700453191" lon="14.049235877459697"><ele>10.0</ele><time>2026-04-24T12:53:21.001Z</time></trkpt><trkpt lat="40.91601710779085" lon="14.04902376208385"><ele>10.333333333333334</ele><time>2026-04-24T12:53:22.001Z</time></trkpt><trkpt lat="40.916041335685776" lon="14.048807948968303"><ele>10.666666666666666</ele><time>2026-04-24T12:53:23.001Z</time></trkpt><trkpt lat="40.91606111064135" lon="14.048595069037958"><ele>11.0</ele><time>2026-04-24T12:53:24.001Z</time></trkpt><trkpt lat="40.91608037350804" lon="14.048383961413007"><ele>11.333333333333332</ele><time>2026-04-24T12:53:25.001Z</time></trkpt><trkpt lat="40.916099150466366" lon="14.048174116263462"><ele>11.666666666666666</ele><time>2026-04-24T12:53:26.001Z</time></trkpt><trkpt lat="40.91612450824423" lon="14.047969213019663"><ele>12.0</ele><time>2026-04-24T12:53:27.001Z</time></trkpt><trkpt lat="40.9161436867812" lon="14.047761867048095"><ele>12.0</ele><time>2026-04-24T12:53:28.001Z</time></trkpt><trkpt lat="40.91616619067687" lon="14.047550703946815"><ele>12.0</ele><time>2026-04-24T12:53:29.001Z</time></trkpt><trkpt lat="40.91618608410974" lon="14.047335765246762"><ele>12.0</ele><time>2026-04-24T12:53:30.001Z</time></trkpt><trkpt lat="40.916206788063164" lon="14.047122875949645"><ele>11.666666666666666</ele><time>2026-04-24T12:53:31.001Z</time></trkpt><trkpt lat="40.91622874458985" lon="14.04690832928704"><ele>11.333333333333332</ele><time>2026-04-24T12:53:32.001Z</time></trkpt><trkpt lat="40.916245518714796" lon="14.046690526009078"><ele>11.0</ele><time>2026-04-24T12:53:33.001Z</time></trkpt><trkpt lat="40.916267756893696" lon="14.046474771559868"><ele>10.333333333333332</ele><time>2026-04-24T12:53:34.001Z</time></trkpt><trkpt lat="40.91629121493224" lon="14.0462613188492"><ele>9.666666666666666</ele><time>2026-04-24T12:53:35.001Z</time></trkpt><trkpt lat="40.91631692736457" lon="14.04604360188893"><ele>9.0</ele><time>2026-04-24T12:53:36.001Z</time></trkpt><trkpt lat="40.916337987297055" lon="14.045826636563872"><ele>9.333333333333334</ele><time>2026-04-24T12:53:37.001Z</time></trkpt><trkpt lat="40.91635799307049" lon="14.045610360339202"><ele>9.666666666666668</ele><time>2026-04-24T12:53:38.001Z</time></trkpt><trkpt lat="40.91637629775161" lon="14.045387463641344"><ele>10.0</ele><time>2026-04-24T12:53:39.001Z</time></trkpt><trkpt lat="40.91639592968004" lon="14.045168985590623"><ele>10.0</ele><time>2026-04-24T12:53:40.001Z</time></trkpt><trkpt lat="40.916417948407535" lon="14.04495072997277"><ele>10.0</ele><time>2026-04-24T12:53:41.001Z</time></trkpt><trkpt lat="40.91644946704499" lon="14.044741202567907"><ele>10.0</ele><time>2026-04-24T12:53:42.001Z</time></trkpt><trkpt lat="40.91647087464707" lon="14.044526238332601"><ele>10.0</ele><time>2026-04-24T12:53:43.001Z</time></trkpt><trkpt lat="40.916490773745345" lon="14.044315297047836"><ele>10.0</ele><time>2026-04-24T12:53:44.001Z</time></trkpt><trkpt lat="40.91650725139776" lon="14.04410902930641"><ele>10.0</ele><time>2026-04-24T12:53:45.001Z</time></trkpt><trkpt lat="40.91652882064275" lon="14.043917541837294"><ele>10.0</ele><time>2026-04-24T12:53:46.001Z</time></trkpt><trkpt lat="40.91655247973046" lon="14.043740716647925"><ele>10.0</ele><time>2026-04-24T12:53:47.001Z</time></trkpt><trkpt lat="40.91656503661592" lon="14.043577616458837"><ele>10.0</ele><time>2026-04-24T12:53:48Z</time></trkpt><trkpt lat="40.91657866343544" lon="14.043427319459365"><ele>10.0</ele><time>2026-04-24T12:53:49Z</time></trkpt><trkpt lat="40.916592239453756" lon="14.04328248395317"><ele>10.8</ele><time>2026-04-24T12:53:50Z</time></trkpt><trkpt lat="40.91660566149534" lon="14.043137721522312"><ele>11.6</ele><time>2026-04-24T12:53:51Z</time></trkpt><trkpt lat="40.916625937425664" lon="14.04299997972122"><ele>12.399999999999999</ele><time>2026-04-24T12:53:52Z</time></trkpt><trkpt lat="40.916639903316785" lon="14.04286465293632"><ele>13.2</ele><time>2026-04-24T12:53:53Z</time></trkpt><trkpt lat="40.91665368205269" lon="14.042733627419363"><ele>14.0</ele><time>2026-04-24T12:53:54Z</time></trkpt><trkpt lat="40.91668254123057" lon="14.042595229250681"><ele>14.0</ele><time>2026-04-24T12:53:55Z</time></trkpt><trkpt lat="40.91668096450553" lon="14.042461720373261"><ele>13.999999999999998</ele><time>2026-04-24T12:53:56Z</time></trkpt><trkpt lat="40.916699248182105" lon="14.042331156879817"><ele>13.999999999999998</ele><time>2026-04-24T12:53:57Z</time></trkpt><trkpt lat="40.91671369823316" lon="14.042200289310024"><ele>14.0</ele><time>2026-04-24T12:53:58Z</time></trkpt><trkpt lat="40.91673060552245" lon="14.042075011156879"><ele>14.0</ele><time>2026-04-24T12:53:59Z</time></trkpt><trkpt lat="40.91674604903207" lon="14.04196026409884"><ele>14.000000000000002</ele><time>2026-04-24T12:54:00Z</time></trkpt><trkpt lat="40.916759539598374" lon="14.041848158397226"><ele>14.0</ele><time>2026-04-24T12:54:01Z</time></trkpt><trkpt lat="40.916772604259414" lon="14.041738342749294"><ele>14.0</ele><time>2026-04-24T12:54:02Z</time></trkpt><trkpt lat="40.916780092069146" lon="14.041624747839892"><ele>14.0</ele><time>2026-04-24T12:54:03Z</time></trkpt><trkpt lat="40.91678951640512" lon="14.04151317175366"><ele>14.000000000000002</ele><time>2026-04-24T12:54:04Z</time></trkpt><trkpt lat="40.91680088549848" lon="14.041404967280155"><ele>14.0</ele><time>2026-04-24T12:54:05Z</time></trkpt><trkpt lat="40.91681451204277" lon="14.041297797304175"><ele>14.000000000000002</ele><time>2026-04-24T12:54:06Z</time></trkpt><trkpt lat="40.916823914778504" lon="14.041185328190236"><ele>14.0</ele><time>2026-04-24T12:54:07Z</time></trkpt><trkpt lat="40.91683745528583" lon="14.041069204430574"><ele>14.0</ele><time>2026-04-24T12:54:08Z</time></trkpt><trkpt lat="40.91684850952619" lon="14.040960025821128"><ele>14.0</ele><time>2026-04-24T12:54:09Z</time></trkpt><trkpt lat="40.91685706530052" lon="14.04087005482697"><ele>14.000000000000002</ele><time>2026-04-24T12:54:10Z</time></trkpt><trkpt lat="40.91686615009626" lon="14.040719486861967"><ele>14.0</ele><time>2026-04-24T12:54:12Z</time></trkpt><trkpt lat="40.91687603092736" lon="14.040565337483786"><ele>13.833333333333334</ele><time>2026-04-24T12:54:14Z</time></trkpt><trkpt lat="40.91688908434875" lon="14.040400450795776"><ele>13.666666666666668</ele><time>2026-04-24T12:54:16Z</time></trkpt><trkpt lat="40.916904566050896" lon="14.040316395025854"><ele>13.5</ele><time>2026-04-24T12:54:17Z</time></trkpt><trkpt lat="40.916905744572354" lon="14.040224340135653"><ele>13.333333333333332</ele><time>2026-04-24T12:54:18Z</time></trkpt><trkpt lat="40.91691082241595" lon="14.040135688534034"><ele>13.166666666666666</ele><time>2026-04-24T12:54:19Z</time></trkpt><trkpt lat="40.91691634281647" lon="14.040040707599836"><ele>13.0</ele><time>2026-04-24T12:54:20Z</time></trkpt><trkpt lat="40.91692578929957" lon="14.039950665676725"><ele>12.857142857142856</ele><time>2026-04-24T12:54:21Z</time></trkpt><trkpt lat="40.91693137449469" lon="14.039861516201173"><ele>12.714285714285715</ele><time>2026-04-24T12:54:22Z</time></trkpt><trkpt lat="40.91694315828114" lon="14.039764137244202"><ele>12.571428571428571</ele><time>2026-04-24T12:54:23Z</time></trkpt><trkpt lat="40.916956570221444" lon="14.039675083663171"><ele>12.428571428571427</ele><time>2026-04-24T12:54:24Z</time></trkpt><trkpt lat="40.91696320098816" lon="14.03958001440515"><ele>12.285714285714285</ele><time>2026-04-24T12:54:25Z</time></trkpt><trkpt lat="40.91697427381554" lon="14.039485497564968"><ele>12.142857142857142</ele><time>2026-04-24T12:54:26Z</time></trkpt><trkpt lat="40.91697995805696" lon="14.039388281192915"><ele>12.0</ele><time>2026-04-24T12:54:27Z</time></trkpt><trkpt lat="40.91699408385642" lon="14.039296921339297"><ele>12.0</ele><time>2026-04-24T12:54:28Z</time></trkpt><trkpt lat="40.91699773467147" lon="14.039206180095041"><ele>12.0</ele><time>2026-04-24T12:54:29Z</time></trkpt><trkpt lat="40.917002683698925" lon="14.039104621145258"><ele>12.0</ele><time>2026-04-24T12:54:30Z</time></trkpt><trkpt lat="40.91700985119291" lon="14.038987900896226"><ele>12.0</ele><time>2026-04-24T12:54:31Z</time></trkpt><trkpt lat="40.91702381292826" lon="14.038868680645425"><ele>12.0</ele><time>2026-04-24T12:54:32Z</time></trkpt><trkpt lat="40.91703594721027" lon="14.038753159171812"><ele>12.0</ele><time>2026-04-24T12:54:33Z</time></trkpt><trkpt lat="40.91705133732054" lon="14.038637100421347"><ele>12.0</ele><time>2026-04-24T12:54:34Z</time></trkpt><trkpt lat="40.91706048773834" lon="14.038508850142607"><ele>12.0</ele><time>2026-04-24T12:54:35Z</time></trkpt><trkpt lat="40.917071413339855" lon="14.038385383323261"><ele>12.0</ele><time>2026-04-24T12:54:36Z</time></trkpt><trkpt lat="40.91708355397695" lon="14.03825536821166"><ele>12.0</ele><time>2026-04-24T12:54:37Z</time></trkpt><trkpt lat="40.91710008903021" lon="14.0381325273249"><ele>12.0</ele><time>2026-04-24T12:54:38Z</time></trkpt><trkpt lat="40.917110969014374" lon="14.038019045689358"><ele>12.0</ele><time>2026-04-24T12:54:39Z</time></trkpt><trkpt lat="40.91711576237349" lon="14.037913284261041"><ele>12.0</ele><time>2026-04-24T12:54:40Z</time></trkpt><trkpt lat="40.917126547692845" lon="14.03782237757368"><ele>12.0</ele><time>2026-04-24T12:54:41Z</time></trkpt><trkpt lat="40.91714069600952" lon="14.03772281309054"><ele>12.0</ele><time>2026-04-24T12:54:42Z</time></trkpt><trkpt lat="40.9171518938863" lon="14.03761621248628"><ele>12.0</ele><time>2026-04-24T12:54:43Z</time></trkpt><trkpt lat="40.91716447402101" lon="14.037499971742893"><ele>12.0</ele><time>2026-04-24T12:54:44Z</time></trkpt><trkpt lat="40.91717621067072" lon="14.037395524498017"><ele>11.8</ele><time>2026-04-24T12:54:45Z</time></trkpt><trkpt lat="40.91718723206413" lon="14.03729239601696"><ele>11.6</ele><time>2026-04-24T12:54:46Z</time></trkpt><trkpt lat="40.91719896472248" lon="14.03717163447592"><ele>11.4</ele><time>2026-04-24T12:54:47Z</time></trkpt><trkpt lat="40.91721208657131" lon="14.037037955332657"><ele>11.200000000000001</ele><time>2026-04-24T12:54:48Z</time></trkpt><trkpt lat="40.91724278772523" lon="14.036901703535433"><ele>11.0</ele><time>2026-04-24T12:54:49Z</time></trkpt><trkpt lat="40.91725779512641" lon="14.036771154523397"><ele>11.0</ele><time>2026-04-24T12:54:50Z</time></trkpt><trkpt lat="40.917256521707564" lon="14.036634921160573"><ele>11.0</ele><time>2026-04-24T12:54:51Z</time></trkpt><trkpt lat="40.91727156124469" lon="14.036501798287688"><ele>11.0</ele><time>2026-04-24T12:54:52Z</time></trkpt><trkpt lat="40.91728487953486" lon="14.03637912616162"><ele>11.0</ele><time>2026-04-24T12:54:53Z</time></trkpt><trkpt lat="40.91730625186241" lon="14.036247842187322"><ele>11.0</ele><time>2026-04-24T12:54:54Z</time></trkpt><trkpt lat="40.91732310629732" lon="14.036117742466589"><ele>11.0</ele><time>2026-04-24T12:54:55Z</time></trkpt><trkpt lat="40.91733675383513" lon="14.03599400146727"><ele>11.0</ele><time>2026-04-24T12:54:56Z</time></trkpt><trkpt lat="40.9173515425575" lon="14.035882631188926"><ele>11.0</ele><time>2026-04-24T12:54:57.003Z</time></trkpt><trkpt lat="40.91736413518481" lon="14.035776768602497"><ele>11.0</ele><time>2026-04-24T12:54:58.003Z</time></trkpt><trkpt lat="40.91737436587705" lon="14.035680324111992"><ele>11.0</ele><time>2026-04-24T12:54:59.003Z</time></trkpt><trkpt lat="40.91738674741236" lon="14.0355920793634"><ele>11.0</ele><time>2026-04-24T12:55:00.003Z</time></trkpt><trkpt lat="40.91739389856101" lon="14.035500623699882"><ele>10.833333333333332</ele><time>2026-04-24T12:55:01.003Z</time></trkpt><trkpt lat="40.91741894080715" lon="14.035363308921182"><ele>10.666666666666666</ele><time>2026-04-24T12:55:03.003Z</time></trkpt><trkpt lat="40.91743189157727" lon="14.035258588699135"><ele>10.5</ele><time>2026-04-24T12:55:05.002Z</time></trkpt><trkpt lat="40.917443910578925" lon="14.035167002669786"><ele>10.333333333333334</ele><time>2026-04-24T12:55:08.002Z</time></trkpt><trkpt lat="40.91750980645712" lon="14.035158849306248"><ele>10.166666666666668</ele><time>2026-04-24T12:55:49Z</time></trkpt><trkpt lat="40.9174680909574" lon="14.03503352730576"><ele>10.0</ele><time>2026-04-24T12:56:17Z</time></trkpt><trkpt lat="40.91747977412571" lon="14.034941548496581"><ele>10.0</ele><time>2026-04-24T12:56:21Z</time></trkpt><trkpt lat="40.9174672388162" lon="14.035033567869933"><ele>10.0</ele><time>2026-04-24T12:56:24Z</time></trkpt><trkpt lat="40.917502062128655" lon="14.035130721615289"><ele>10.0</ele><time>2026-04-24T12:56:27Z</time></trkpt></trkseg></trk></gpx>